ECMWFNIL_sfc_thetae_000.txt.gz
Theta_e
276 276 275 275 275 276 276 275 275 275 275 276 275 275 275 276 277 278 279 279 279 279 281 284 284 284 286 288 291 293 294 296 296 295 295 295 295 295 294 294 294 295
276 276 276 276 276 276 275 275 275 275 275 275 275 275 275 276 276 277 278 278 278 278 280 282 283 284 285 287 289 291 293 294 293 295 295 294 295 296 295 295 295 295
275 275 274 274 274 274 274 275 275 275 275 275 275 275 275 276 275 276 276 277 277 278 279 280 282 284 285 285 287 289 291 293 291 294 293 293 295 295 296 296 296 295
275 274 274 274 274 274 274 274 274 275 275 275 275 275 275 275 275 275 276 277 277 278 279 279 282 283 283 283 284 286 289 291 292 293 293 293 293 295 295 296 295 296
274 274 274 274 274 274 274 274 274 274 274 275 275 275 275 274 274 275 275 276 276 277 277 279 280 281 281 282 282 283 285 288 291 292 292 292 293 294 295 295 295 295
274 274 274 274 274 274 274 274 274 274 274 274 274 275 274 274 274 274 274 274 275 275 276 278 279 279 279 280 281 281 283 286 289 291 291 292 292 294 295 295 295 295
273 273 273 274 274 274 274 274 274 275 274 274 274 274 274 273 273 273 273 274 274 275 275 276 277 277 278 279 280 281 282 285 287 290 290 291 292 292 294 295 295 295
272 273 273 273 273 273 273 274 274 274 274 274 273 273 273 273 273 273 273 273 273 274 274 275 275 275 276 278 279 280 281 283 285 288 290 291 291 291 293 294 295 295
272 272 272 272 272 273 273 273 273 273 274 273 272 272 272 272 272 272 272 273 273 273 273 273 273 274 276 277 278 278 279 280 282 285 288 290 290 290 291 292 293 294
271 272 272 272 272 272 272 273 273 273 273 272 272 272 271 271 272 272 272 272 272 272 272 271 272 273 274 275 276 277 278 279 281 283 287 289 290 290 290 291 291 292
270 271 271 271 271 272 272 272 272 272 272 272 271 271 270 270 270 271 271 271 271 270 271 271 271 272 272 273 274 277 278 279 280 282 285 288 290 290 290 290 291 291
269 270 270 270 270 271 271 272 271 271 271 271 271 270 270 270 269 270 270 270 270 270 270 270 271 271 271 272 273 274 276 277 278 281 285 288 289 290 290 290 290 291
268 269 269 269 270 270 271 271 271 270 270 269 270 269 268 268 269 269 269 269 269 270 270 270 270 270 271 272 272 273 274 276 278 280 284 287 289 290 290 291 291 292
268 268 268 269 269 270 270 270 270 269 269 268 268 268 268 267 267 268 268 269 269 269 270 270 270 270 271 271 272 273 274 276 278 279 282 285 288 289 290 290 290 290
267 268 268 268 269 269 269 268 268 267 267 266 266 266 267 267 267 267 267 267 268 268 269 269 269 269 270 271 272 273 275 276 278 279 282 284 287 288 289 289 289 290
267 267 267 268 268 267 267 266 266 266 265 265 265 265 266 266 266 267 267 267 267 267 268 269 269 270 272 275 276 274 275 276 278 279 282 284 287 288 288 288 288 289
266 266 267 266 266 266 266 265 265 264 264 264 264 265 265 266 266 266 267 267 267 267 267 268 269 270 274 276 278 279 278 278 279 280 282 284 286 288 287 287 287 288
265 266 265 265 264 264 264 263 263 263 263 263 264 264 265 266 266 266 266 267 267 267 267 268 268 272 274 275 277 279 280 279 280 281 282 283 285 287 288 287 287 287
265 265 264 263 263 263 263 262 262 262 262 262 263 264 265 265 266 266 266 267 267 267 267 268 268 272 274 275 276 278 280 280 279 280 281 282 284 285 286 287 287 286
264 263 262 261 261 261 261 261 261 261 261 262 263 264 265 265 266 266 266 266 267 267 267 268 268 271 274 275 276 277 279 280 279 280 281 281 282 284 286 287 287 287
262 261 261 260 260 260 260 260 260 261 261 262 263 264 264 265 265 265 266 266 267 267 268 268 269 273 275 276 277 279 280 281 279 280 281 281 282 283 285 287 288 288
261 260 260 259 259 259 259 259 260 260 260 262 263 264 265 266 266 267 266 266 267 267 268 268 269 274 275 276 277 279 281 280 280 281 281 281 282 283 285 287 288 288
260 259 258 258 258 258 258 259 260 260 261 263 263 264 265 266 266 266 267 267 267 268 268 269 269 273 275 276 277 279 280 279 280 281 281 282 282 283 284 286 288 288
259 258 258 258 258 258 258 259 260 262 262 264 264 265 265 266 267 267 268 268 268 268 269 269 269 272 275 276 278 279 280 279 280 281 281 282 282 283 285 286 287 288
258 257 257 257 257 258 259 259 261 262 263 265 265 265 266 267 267 267 268 269 269 269 272 271 270 271 275 276 278 279 279 280 280 281 281 282 283 283 285 286 287 287
257 257 257 257 257 258 259 261 263 263 263 263 264 265 265 266 267 268 268 269 270 270 270 271 270 271 272 276 277 279 281 280 281 281 280 281 283 283 284 285 286 286

ECMWFNIL_sfc_thetae_003.txt.gz
Theta_e
276 275 275 275 275 276 275 275 275 274 274 274 274 274 275 275 276 276 276 277 277 276 276 276 277 277 277 278 278 280 281 282 284 285 286 288 289 291 292 291 291 292
275 275 276 276 275 275 275 275 274 274 274 274 274 275 275 275 276 276 276 276 276 276 276 276 276 276 277 277 278 279 279 281 283 285 284 285 287 290 292 292 292 292
274 274 274 273 273 273 274 274 274 274 274 274 275 275 275 276 276 276 276 276 276 276 276 276 276 276 276 277 278 278 278 281 281 282 283 283 285 288 291 293 292 292
273 273 273 273 273 273 274 274 274 274 274 274 274 275 275 276 276 276 275 276 275 275 275 275 275 275 276 277 277 277 278 280 280 281 281 282 284 286 290 292 292 292
273 273 273 273 273 274 273 273 273 273 273 274 274 275 275 275 275 275 275 274 274 274 274 274 274 274 275 275 275 276 278 278 279 280 280 281 283 284 287 290 291 290
272 272 273 272 273 273 272 272 273 273 273 274 274 275 275 275 275 275 274 274 273 273 273 273 274 274 274 274 275 276 276 276 277 278 278 279 280 283 285 288 290 290
271 271 271 272 272 272 272 272 272 273 273 274 274 274 274 274 274 274 274 274 273 273 273 273 273 273 274 274 274 274 275 274 275 275 277 278 280 281 282 285 288 289
270 270 271 271 270 270 271 271 271 272 273 273 273 274 274 274 273 273 273 273 272 272 272 272 272 273 273 273 273 273 273 273 274 275 277 278 279 279 280 283 286 289
270 269 269 269 269 269 270 270 271 271 272 272 272 273 273 273 273 273 273 272 272 271 271 271 271 272 273 273 272 272 272 272 273 275 274 275 277 278 280 281 283 287
268 268 268 268 268 269 269 269 270 270 271 271 272 272 272 272 272 272 272 271 271 271 270 270 271 271 272 272 272 271 271 271 272 273 273 274 275 278 280 281 282 285
267 268 267 267 268 268 268 269 269 270 270 271 271 271 272 271 271 271 270 270 270 270 269 270 270 271 271 271 271 271 271 271 271 272 272 273 275 277 279 279 280 282
267 267 267 267 267 267 268 268 269 269 270 270 270 270 270 270 269 269 269 268 269 269 269 269 270 270 270 270 270 271 271 271 271 271 271 273 274 275 276 278 279 282
266 266 267 267 267 267 268 268 268 268 269 269 269 269 268 268 268 267 267 267 268 268 268 268 269 269 269 269 270 270 270 270 270 270 271 272 273 274 276 278 280 283
266 266 266 267 267 267 268 268 268 268 267 268 268 267 266 266 266 266 266 267 267 267 268 268 268 268 269 269 269 270 270 270 270 270 271 272 273 275 277 279 280 282
266 266 266 266 267 267 267 267 266 266 266 266 265 265 265 265 265 265 265 265 266 267 267 268 268 268 269 269 269 269 269 269 269 270 270 271 272 274 276 279 280 283
266 266 266 266 266 266 265 265 264 264 263 263 263 264 264 264 264 264 264 265 265 266 267 267 268 268 270 273 274 271 270 270 270 270 271 272 273 275 277 279 280 282
265 265 265 265 265 264 263 263 262 262 262 262 262 262 262 263 263 263 264 265 265 266 266 267 268 269 272 274 275 276 274 272 272 272 273 273 273 274 275 278 280 283
265 264 264 263 263 262 262 261 261 261 260 261 261 261 262 262 263 263 264 265 266 266 267 267 268 271 274 275 276 276 276 273 273 273 273 274 275 276 277 279 280 282
263 263 262 261 261 261 260 260 259 259 259 259 259 261 262 262 262 263 264 265 265 266 267 267 268 272 274 275 275 276 277 276 273 273 273 273 274 276 278 280 282 283
262 261 261 260 260 259 259 259 258 258 259 260 260 261 261 262 263 263 264 265 266 266 267 268 268 271 274 275 276 276 277 277 274 273 273 273 274 275 277 279 281 282
261 260 259 259 258 258 258 258 258 258 259 260 260 261 262 262 263 263 264 265 266 267 267 267 268 273 275 276 276 278 278 278 275 274 274 274 274 276 277 279 281 281
259 258 258 257 257 257 257 257 258 259 259 260 261 262 263 264 264 264 264 265 266 267 267 267 269 274 275 276 277 278 278 275 275 274 274 274 275 276 277 279 280 280
258 257 257 257 257 257 257 257 258 258 259 261 261 262 262 262 262 263 264 265 266 267 267 268 268 272 275 276 277 278 277 274 274 274 274 274 276 278 279 280 281 281
257 257 256 256 256 256 257 257 259 260 261 262 261 261 261 261 262 263 264 264 265 266 267 267 268 272 276 277 278 279 278 275 274 274 274 275 276 278 279 280 281 283
256 256 256 256 256 256 257 257 259 260 261 261 261 261 261 262 262 262 262 264 265 266 269 269 269 272 275 277 278 278 277 276 275 274 274 275 276 278 280 281 282 283
256 256 256 256 256 257 257 259 260 260 260 260 260 261 261 261 261 261 261 263 265 266 267 268 268 270 273 277 278 279 280 277 276 274 274 274 276 277 279 280 282 283

ECMWFNIL_sfc_thetae_006.txt.gz
Theta_e
275 275 274 274 274 275 274 274 274 273 273 274 273 273 274 274 275 275 275 275 275 275 275 276 276 276 276 276 276 276 276 276 276 276 276 277 278 279 279 280 282 282
274 275 275 275 274 274 274 274 273 273 273 273 273 274 274 274 274 275 274 275 275 275 275 275 275 275 275 275 275 275 275 275 275 276 276 277 278 279 279 281 281 282
273 273 273 273 273 273 273 273 273 273 273 273 273 274 274 275 274 274 275 275 275 275 275 275 275 275 275 274 274 274 274 274 274 275 276 276 277 277 278 279 280 281
273 273 273 272 272 272 272 272 272 272 273 272 272 273 274 274 274 274 274 275 274 274 275 275 275 275 274 274 274 274 274 274 274 275 274 274 275 276 277 279 280 281
272 272 272 272 272 272 272 271 271 271 272 272 272 273 273 273 273 273 274 274 274 274 274 274 274 274 274 274 274 273 274 274 274 274 274 274 275 277 278 278 278 279
272 272 272 271 271 271 271 271 271 271 271 271 271 272 272 272 272 273 273 273 273 274 274 274 274 274 274 274 273 273 273 273 273 274 273 273 274 276 276 276 275 275
270 271 270 270 270 270 270 270 270 271 271 271 271 271 271 271 271 272 272 273 273 273 273 273 273 273 273 273 273 272 272 272 273 273 273 273 274 274 274 274 274 274
269 269 269 269 269 269 269 269 269 270 270 270 270 270 271 271 271 271 272 272 273 273 273 273 272 272 272 272 272 271 271 272 272 272 272 273 273 273 272 273 274 276
269 268 268 268 268 268 268 268 269 269 270 269 269 270 270 271 271 271 271 272 272 272 272 271 271 271 272 272 271 271 270 270 271 272 272 272 272 272 272 272 273 274
268 268 267 267 267 267 267 268 268 268 269 269 269 269 269 270 270 270 271 271 271 271 270 270 270 270 270 271 271 270 270 270 271 271 271 271 271 271 271 271 272 272
267 267 267 267 267 267 267 267 267 268 269 269 269 269 269 269 269 270 269 269 269 269 268 268 268 268 268 269 270 270 270 270 270 271 271 271 271 271 272 271 271 272
266 266 266 266 266 266 267 267 267 268 268 268 268 267 267 267 267 267 268 267 267 267 267 267 267 267 267 268 268 269 269 269 270 270 270 270 271 271 271 271 271 271
266 266 266 266 266 266 267 267 267 267 266 266 266 265 265 265 265 265 266 266 266 266 266 266 266 266 266 267 267 267 268 268 269 269 269 270 270 270 271 271 271 271
266 266 266 266 266 266 266 266 266 265 265 264 264 264 263 264 264 264 264 265 265 265 265 265 265 265 266 266 267 267 268 268 268 269 269 269 270 270 271 271 271 271
266 266 266 266 266 265 265 264 264 263 263 263 262 262 263 263 263 263 263 263 263 264 264 264 265 265 266 266 266 267 268 268 268 269 269 269 269 270 270 271 271 271
265 265 265 265 264 263 263 262 262 262 261 261 261 261 261 262 262 262 262 262 262 263 264 264 265 265 267 271 272 270 270 270 270 270 269 269 269 269 270 270 271 272
264 264 264 263 262 262 261 261 260 260 259 259 260 260 260 261 261 261 262 262 263 263 263 264 265 266 271 273 274 275 273 271 271 271 272 272 271 271 270 271 271 272
263 263 262 261 261 260 260 259 259 259 258 259 259 259 260 261 261 261 262 263 263 264 264 265 265 270 272 273 275 275 276 273 272 272 272 272 272 272 272 272 273 273
261 261 260 259 259 259 258 258 258 258 258 258 258 259 260 260 261 262 263 264 264 264 264 265 266 270 273 274 275 276 276 275 273 273 272 272 273 273 273 273 273 273
260 259 258 258 258 258 258 257 257 257 258 259 259 260 260 261 262 262 262 262 263 263 264 264 265 269 272 274 275 276 277 277 274 274 274 273 273 274 274 274 273 273
259 258 257 257 257 257 257 257 257 257 258 259 259 260 261 261 261 261 261 262 262 263 263 263 264 270 272 274 275 276 277 277 274 274 275 275 275 275 275 274 274 274
257 256 256 256 256 256 256 256 257 257 258 259 260 261 261 261 261 262 261 262 262 262 262 262 263 270 272 273 274 276 277 274 274 275 275 275 275 275 275 275 275 275
257 256 255 255 256 255 256 256 257 257 258 260 260 260 260 260 260 261 261 261 261 261 261 262 263 267 272 273 274 276 275 273 274 275 275 275 275 275 275 275 275 275
256 255 255 255 255 255 255 256 257 258 259 260 259 259 259 259 260 260 260 261 261 261 261 262 264 267 272 273 274 275 275 273 273 273 274 275 275 275 275 275 275 278
255 255 255 255 255 255 256 256 257 258 259 259 259 259 259 260 260 259 260 260 261 261 265 264 264 266 271 272 273 275 274 273 273 273 272 272 274 275 275 276 276 277
255 254 254 254 254 255 256 257 258 258 258 259 259 259 259 259 259 259 259 260 261 262 262 264 264 265 267 272 274 275 276 273 272 271 271 271 273 274 274 275 276 276

ECMWFNIL_sfc_thetae_009.txt.gz
Theta_e
278 277 277 277 276 277 276 276 276 275 275 275 275 275 275 275 276 276 276 276 276 276 276 277 277 277 277 277 277 277 277 277 277 277 277 277 276 277 276 276 277 276
277 277 277 277 276 276 276 275 275 274 274 274 274 274 275 275 275 275 275 275 275 275 276 276 276 277 277 277 277 277 276 277 276 277 276 276 276 276 276 276 276 277
276 275 275 275 274 274 274 274 274 274 274 274 274 274 274 274 274 275 275 275 275 275 275 276 276 276 276 276 277 276 276 276 275 276 276 276 276 275 276 276 276 276
275 275 274 274 274 274 274 273 273 273 273 273 273 273 273 274 274 274 274 274 274 274 274 275 275 276 276 276 276 275 276 275 276 276 275 275 275 275 275 276 276 275
274 274 274 274 274 273 273 272 272 272 272 272 272 273 273 273 272 272 273 273 273 273 273 274 274 275 275 275 275 275 275 275 275 275 275 274 275 275 275 275 275 274
273 273 273 273 272 272 272 271 271 271 271 271 272 272 272 272 272 272 272 272 272 272 272 273 273 274 274 274 275 274 274 274 274 274 274 274 274 274 275 275 274 274
272 272 271 272 271 271 271 271 271 271 271 271 271 271 271 271 271 271 271 272 272 272 272 272 272 273 274 274 273 273 273 273 273 273 273 273 273 273 274 274 273 274
271 271 271 270 270 270 270 270 270 270 271 271 270 270 271 271 271 271 271 271 271 271 271 271 272 272 272 273 272 271 271 271 272 272 272 272 272 272 272 273 273 273
270 270 270 269 269 269 269 269 269 270 270 270 270 270 270 270 270 270 270 270 269 269 269 270 270 271 271 271 270 270 269 270 270 270 271 271 271 271 271 272 272 272
269 269 269 268 268 268 268 269 269 269 269 269 269 269 269 269 269 269 268 268 267 267 268 268 268 269 269 269 269 269 268 268 269 269 269 270 270 270 271 271 271 271
268 268 268 268 268 268 268 268 268 268 269 268 268 268 267 267 267 267 266 266 266 266 266 267 267 267 267 267 267 268 268 267 268 268 268 269 269 269 271 270 270 271
268 268 267 267 267 267 268 268 268 268 268 267 267 266 265 265 265 265 265 265 265 265 265 265 266 266 266 266 266 267 267 267 267 267 267 268 268 269 269 270 270 270
267 267 267 267 267 267 267 267 267 266 266 265 265 264 264 263 264 264 264 264 264 264 265 265 265 265 265 265 266 266 266 266 266 267 267 267 268 268 269 270 270 271
267 267 267 267 267 267 266 266 265 265 264 264 263 262 262 262 263 263 263 264 264 264 264 264 264 265 265 265 266 266 266 266 266 267 267 267 268 269 269 270 270 271
266 266 267 266 266 265 265 264 263 263 262 262 262 262 262 262 262 262 262 262 263 264 264 264 264 265 265 265 266 266 267 267 268 268 268 268 268 269 270 270 270 271
266 266 266 265 264 264 263 263 262 261 261 260 261 261 261 262 262 262 262 262 262 263 264 264 265 265 267 271 272 269 269 270 270 270 270 270 270 270 270 271 271 271
265 265 264 263 263 262 261 261 260 260 260 260 260 260 260 261 261 262 262 263 263 264 264 264 265 265 269 272 273 274 271 270 270 270 271 271 271 271 271 272 272 272
264 263 262 262 261 260 260 259 259 259 259 259 259 259 260 261 261 262 263 263 264 263 263 264 264 268 271 272 273 274 274 271 270 270 271 271 272 272 272 273 273 273
262 262 261 260 260 259 259 258 258 258 258 258 259 260 260 260 261 262 262 263 263 263 263 264 264 268 271 272 273 274 275 274 271 271 271 271 272 273 273 273 273 273
261 260 259 259 259 258 258 258 257 258 258 259 259 260 260 261 261 262 262 262 262 262 263 263 263 267 271 272 273 274 275 275 272 272 272 272 272 273 273 274 274 274
260 259 258 258 257 257 257 257 257 258 258 259 259 260 260 260 261 261 261 261 261 262 262 262 263 269 271 273 273 274 275 275 272 272 271 271 272 273 274 275 275 275
259 258 257 257 257 257 256 257 257 258 258 259 259 260 261 261 261 261 261 261 261 261 261 261 263 269 271 272 274 275 276 272 271 271 271 271 272 273 274 274 275 276
258 257 256 256 256 256 256 256 257 257 258 259 259 259 260 260 260 260 261 261 261 261 261 261 262 266 271 273 274 275 274 271 271 271 271 271 272 273 273 273 274 274
257 256 256 256 255 255 256 257 257 258 258 259 259 258 259 259 260 260 261 261 261 261 261 261 262 266 271 273 274 275 274 271 271 271 271 271 272 272 273 273 274 276
256 256 256 255 255 255 256 255 256 257 258 259 259 259 259 259 260 260 260 261 261 261 265 264 263 266 271 272 274 275 273 272 271 271 270 271 271 271 273 273 273 275
256 255 255 255 255 255 255 256 257 257 258 258 258 259 258 259 259 260 260 261 262 263 263 264 265 266 268 273 274 275 275 272 271 270 270 270 271 271 272 273 273 274

ECMWFNIL_sfc_thetae_012.txt.gz
Theta_e
285 284 283 283 283 283 282 282 281 281 281 281 280 280 280 280 280 280 280 280 280 280 280 280 280 280 280 280 280 280 280 280 280 281 281 280 280 280 280 280 280 280
283 283 283 282 282 282 281 281 281 280 280 280 280 279 280 279 279 279 279 278 279 279 279 279 279 279 279 279 279 279 279 279 279 281 280 280 280 280 280 280 280 280
282 282 281 281 281 281 280 280 280 279 279 279 279 279 279 279 278 278 278 278 278 278 278 278 278 278 278 278 278 278 278 278 279 279 279 279 279 279 279 279 279 279
281 281 280 280 280 279 279 279 279 279 279 278 278 278 278 278 278 277 277 277 277 277 277 277 277 277 277 277 278 277 278 278 279 279 278 279 279 279 279 279 279 279
280 280 279 279 279 279 278 278 277 278 277 277 277 277 277 277 277 276 276 276 276 276 276 276 277 277 277 277 277 277 277 277 278 278 278 277 278 278 278 278 277 277
279 279 279 278 278 278 277 277 277 277 276 276 276 277 276 276 276 275 275 275 275 275 275 276 276 276 276 276 276 276 276 276 277 277 276 276 277 277 277 277 276 276
277 277 277 277 277 277 276 276 276 276 276 276 276 275 275 275 275 275 275 275 275 275 274 274 274 274 275 275 275 275 275 275 276 276 275 275 275 275 276 276 276 275
276 276 276 276 275 275 274 275 275 275 275 275 274 275 275 274 274 274 274 274 273 273 273 273 273 273 273 273 273 273 273 274 274 274 273 273 273 273 274 274 274 274
276 275 275 274 274 274 274 274 274 274 274 274 274 274 274 274 274 273 273 272 272 272 272 272 272 272 272 272 271 271 271 271 272 272 271 271 271 272 272 272 272 272
275 275 274 274 273 274 273 273 273 273 273 273 273 273 272 273 272 272 271 271 270 270 270 270 270 270 270 270 270 270 270 270 270 270 270 270 270 270 270 270 270 270
274 274 273 273 273 273 273 272 272 273 273 272 272 271 271 271 270 270 270 269 269 269 269 269 269 269 269 269 269 269 269 269 269 269 269 270 270 270 270 270 269 269
273 273 273 273 272 272 272 272 272 272 272 271 271 270 269 269 269 269 269 268 268 268 268 268 269 269 269 268 269 269 269 269 269 269 269 270 270 269 269 269 269 270
273 273 273 272 272 272 272 272 271 271 270 269 269 268 267 267 268 267 268 268 268 268 268 268 268 268 268 269 269 269 269 269 269 269 269 269 269 269 269 269 270 270
273 272 272 272 272 271 271 270 270 269 268 268 267 266 266 266 267 266 267 267 267 267 268 268 268 268 269 269 269 269 269 269 269 269 269 269 270 270 270 270 270 270
272 272 272 271 270 270 269 269 268 268 267 266 266 266 266 266 266 266 266 266 267 267 267 268 268 268 269 269 269 269 269 269 270 270 270 270 270 270 271 271 272 272
271 271 271 270 269 268 268 267 267 266 265 264 264 265 265 265 265 265 266 266 266 267 268 268 268 268 269 270 272 270 270 270 270 270 270 270 270 270 271 271 272 272
270 270 270 268 268 267 266 265 265 264 263 263 263 264 264 264 265 265 266 266 267 267 267 267 268 268 270 272 273 274 272 271 270 270 271 271 271 271 271 271 272 273
270 269 267 267 266 265 264 264 263 262 262 263 263 263 264 264 264 265 266 266 267 267 267 267 267 269 272 273 274 274 274 272 271 271 271 271 272 272 272 272 272 273
268 267 266 265 265 264 263 262 262 262 262 262 262 263 264 264 265 265 265 266 266 266 266 267 267 269 271 273 274 275 275 274 272 272 272 272 272 272 272 272 272 272
266 265 265 264 263 262 262 261 261 261 262 262 263 263 264 264 264 264 265 265 265 265 265 266 266 268 271 273 274 275 275 275 272 272 272 272 272 272 272 272 272 272
265 264 263 263 262 261 261 261 261 261 262 262 263 263 264 264 264 264 264 264 264 265 265 265 266 270 272 273 274 275 275 275 272 272 272 272 272 273 273 273 273 273
264 263 262 262 261 261 260 261 261 261 261 262 263 263 264 264 264 264 264 263 264 264 264 264 266 270 272 273 274 275 276 273 272 272 272 272 272 273 273 273 273 273
263 262 262 261 261 260 260 260 261 261 262 263 262 263 263 263 263 263 264 264 264 264 264 264 265 268 271 273 274 275 275 272 272 272 271 271 272 272 273 273 273 274
263 261 261 260 260 259 260 261 261 261 262 262 262 262 262 262 263 263 264 264 264 264 264 264 265 268 272 273 274 275 275 272 272 271 271 271 271 272 273 273 274 276
261 261 261 260 259 260 260 259 260 261 261 262 262 262 262 263 263 263 263 264 264 264 266 266 266 269 272 273 274 275 274 272 272 271 270 271 271 271 273 273 273 275
260 259 260 259 259 259 259 259 261 261 261 261 261 262 262 263 263 263 262 263 264 265 266 268 268 268 270 273 274 275 275 272 272 271 270 271 271 271 271 272 273 273

ECMWFNIL_sfc_thetae_015.txt.gz
Theta_e
290 289 289 288 288 288 287 287 286 286 285 285 284 284 284 284 284 283 282 282 282 282 282 282 282 281 282 281 281 281 281 281 281 281 281 281 281 281 280 281 281 281
289 288 288 288 287 287 286 286 286 285 284 284 284 283 283 283 283 282 281 281 281 281 281 281 281 281 280 280 280 280 279 280 279 281 280 280 280 280 280 280 280 281
288 287 287 286 286 285 285 285 285 284 283 283 283 282 282 282 281 281 281 280 280 280 280 280 280 280 279 279 279 279 279 279 278 279 279 279 280 279 280 280 280 280
287 286 285 285 285 284 284 283 283 282 282 282 281 281 281 281 281 280 279 280 279 279 279 279 279 279 279 278 278 278 278 278 278 279 278 279 279 279 279 279 279 279
285 285 285 284 284 284 283 282 281 281 281 281 281 281 280 280 279 279 279 279 278 278 278 278 278 278 278 278 278 277 277 278 278 278 278 277 278 278 279 279 278 278
284 284 284 283 283 282 282 281 281 281 281 280 280 280 279 279 278 278 278 277 277 277 277 277 277 277 277 277 277 276 276 276 277 277 277 276 277 278 278 278 277 277
283 283 282 282 282 281 281 280 280 280 280 280 279 279 279 278 277 277 277 277 277 277 277 276 276 276 276 276 276 275 275 276 276 276 275 275 276 276 276 276 276 276
282 282 281 281 280 280 280 280 279 279 279 279 278 278 278 277 277 277 277 276 276 276 276 275 275 275 275 275 274 274 274 274 274 274 274 273 274 273 274 275 275 274
281 280 280 279 279 279 278 278 278 278 278 277 277 277 277 277 276 276 276 276 275 275 274 274 274 274 274 273 273 273 272 272 273 272 272 272 272 272 272 273 272 272
280 279 278 278 277 278 277 277 277 277 277 276 276 276 276 276 276 275 275 274 273 273 273 273 273 273 273 272 272 272 271 271 271 271 271 271 271 271 271 271 271 271
278 278 277 277 277 277 276 276 276 276 276 275 275 275 275 275 274 274 273 273 272 272 272 272 272 272 271 271 271 271 271 271 270 270 270 270 270 270 271 270 270 270
277 277 277 276 276 276 276 276 275 275 275 275 275 274 274 273 273 272 272 271 272 271 271 271 271 271 271 270 270 271 271 270 270 270 270 270 270 270 270 270 270 271
277 277 276 276 276 276 276 275 275 274 274 274 274 273 272 272 271 271 271 271 271 271 270 270 270 270 270 270 270 270 270 270 270 270 270 270 271 271 271 271 271 271
277 277 276 276 276 275 275 275 274 274 273 273 272 271 270 270 270 270 270 270 270 270 270 270 270 270 270 270 270 270 270 270 270 270 271 271 271 271 272 272 272 272
276 276 276 275 275 274 274 273 273 273 272 271 270 270 270 269 269 269 269 269 269 269 269 270 270 270 270 270 270 270 271 271 271 271 271 271 271 272 272 272 272 272
276 275 275 274 274 273 273 272 272 271 270 269 268 268 268 268 268 268 268 268 268 269 269 269 270 270 271 272 273 271 272 272 272 272 272 272 272 271 272 272 272 273
275 274 274 273 273 272 272 271 270 269 268 267 267 267 267 267 267 266 267 268 268 268 269 269 270 270 272 273 274 275 274 273 272 272 273 273 273 272 272 272 273 273
274 273 272 272 271 271 269 269 268 267 266 266 266 266 266 266 266 266 267 268 268 268 268 269 269 271 272 273 274 275 275 274 273 273 273 273 273 273 272 273 273 273
273 272 271 270 270 269 268 267 266 265 265 265 265 266 266 266 266 266 267 268 268 268 268 268 268 271 272 273 274 275 276 276 274 273 273 272 273 273 273 273 273 273
272 271 270 269 268 267 266 265 264 264 265 265 265 265 265 265 266 266 267 267 267 267 267 268 268 270 272 273 275 276 276 276 274 273 273 273 273 273 273 273 273 272
270 269 268 267 266 265 265 264 264 264 264 265 265 265 265 265 266 266 266 266 266 266 266 266 267 270 272 274 275 275 276 276 274 273 273 273 273 273 273 273 273 273
269 268 267 266 265 264 264 264 264 264 264 265 265 266 266 266 266 266 266 265 266 265 265 265 267 271 272 273 274 275 277 274 273 273 273 273 273 273 273 273 274 273
268 267 266 265 264 264 263 264 264 264 264 265 264 265 265 265 265 265 266 265 265 265 265 265 266 269 272 273 274 276 275 273 272 272 272 272 272 273 273 273 274 274
267 266 265 264 264 263 263 264 264 264 264 265 264 264 265 265 265 265 265 266 265 265 265 265 266 268 272 273 274 275 275 272 272 271 271 272 272 273 273 274 274 276
266 266 265 264 263 264 264 264 264 264 264 265 264 265 264 265 265 265 265 265 265 265 267 267 267 269 272 273 274 275 274 272 272 271 271 271 272 272 273 273 274 275
265 265 264 264 263 263 263 263 264 263 264 264 264 264 264 265 265 265 264 264 265 266 266 268 268 268 270 273 274 274 275 273 272 271 270 271 271 272 271 272 273 273

ECMWFNIL_sfc_thetae_018.txt.gz
Theta_e
288 288 287 287 286 286 286 285 285 284 283 283 282 282 282 281 282 281 280 280 279 279 279 279 279 279 280 278 278 278 278 277 278 277 277 278 277 277 278 277 277 278
287 287 287 287 286 286 285 285 284 284 283 282 281 281 281 281 280 280 279 279 279 278 278 278 278 278 277 277 277 276 276 276 276 279 277 277 277 277 277 277 277 278
287 287 286 286 285 285 284 284 283 282 282 281 281 280 280 280 279 279 279 278 278 278 278 277 277 277 276 276 276 276 276 275 275 276 276 276 276 276 276 277 276 277
286 286 286 285 285 284 284 283 281 281 281 280 279 280 280 280 279 278 278 279 277 276 276 276 276 276 276 275 275 275 275 275 275 275 275 276 276 276 276 276 277 277
285 285 285 284 284 283 282 282 281 280 279 279 279 279 279 278 277 277 277 276 276 276 276 276 275 275 275 275 275 275 275 275 275 275 275 275 275 276 276 276 276 275
284 284 284 283 282 282 281 281 280 279 279 278 278 278 277 277 276 276 276 276 276 275 275 275 275 275 275 274 274 274 274 274 274 274 274 274 274 275 276 275 275 275
284 283 282 282 281 281 280 280 279 279 278 278 278 277 277 276 276 276 275 275 275 275 275 274 274 274 274 274 273 273 273 273 273 273 273 273 274 274 274 274 274 274
283 282 282 281 280 280 279 279 279 278 278 277 277 276 276 276 275 275 275 275 274 274 274 274 274 273 273 273 273 272 272 273 273 273 273 272 272 272 272 273 273 272
282 281 281 280 279 279 278 278 278 277 277 277 276 276 275 275 275 275 275 274 274 274 273 273 273 273 273 272 272 272 272 272 272 272 272 271 271 271 271 271 271 271
281 280 279 279 279 278 277 277 277 276 276 276 275 275 275 275 274 274 274 274 273 273 272 272 272 272 272 271 272 271 271 271 271 271 271 270 270 270 270 270 270 270
280 279 279 278 278 277 277 276 276 276 275 275 274 274 274 274 274 273 273 273 272 272 271 271 271 271 271 271 271 271 270 270 270 270 270 270 270 270 271 270 270 270
279 279 278 278 277 277 276 276 275 275 275 274 274 274 273 273 273 272 272 271 271 271 270 270 270 270 270 270 270 270 270 270 270 270 270 270 270 270 270 270 270 270
279 278 278 277 277 276 275 275 274 274 274 273 273 273 272 272 271 271 271 271 270 270 270 270 270 269 269 269 269 269 269 269 269 269 270 270 270 270 270 270 270 270
279 278 277 277 276 275 275 274 273 273 273 272 272 272 271 271 270 270 270 269 269 269 269 269 269 269 269 269 269 269 269 269 270 270 270 270 270 271 271 271 272 272
278 277 276 276 275 274 274 273 273 272 272 272 271 270 270 270 269 269 268 268 268 268 268 269 269 269 269 269 269 269 270 269 270 270 270 270 271 272 272 273 273 273
277 276 275 275 274 273 273 272 272 271 270 270 270 269 269 269 268 268 268 268 268 268 269 269 269 269 271 273 273 270 270 270 270 271 272 272 272 272 273 273 273 273
276 275 275 274 274 273 272 272 271 270 269 269 268 268 268 268 268 267 267 268 268 268 268 269 269 270 273 274 275 276 274 272 272 273 273 273 273 273 273 273 273 274
275 274 274 273 272 272 271 271 270 269 268 268 267 267 267 267 267 267 267 268 268 268 268 269 269 272 274 275 276 276 276 274 274 273 273 273 273 273 273 273 273 273
274 273 273 272 271 271 270 269 269 268 267 266 266 266 266 266 267 267 267 268 268 268 268 269 269 272 274 275 275 276 276 276 274 274 274 273 274 273 273 273 273 273
273 273 272 271 270 269 268 268 267 267 266 266 266 266 266 266 267 267 267 267 268 268 268 269 269 271 273 274 275 275 276 276 274 274 274 274 273 273 273 273 273 273
273 272 271 270 269 268 267 266 266 266 266 266 266 266 266 266 266 266 267 267 268 268 268 267 268 271 272 274 274 275 276 276 275 274 273 273 273 273 273 273 273 273
272 271 270 268 268 267 266 266 265 266 265 266 266 266 266 267 267 267 267 267 267 267 266 266 267 271 272 273 274 275 276 275 274 273 272 272 272 273 273 273 273 273
272 270 268 267 267 266 265 265 265 265 266 266 266 266 266 266 266 267 267 267 266 266 265 265 266 269 271 272 274 275 275 273 273 273 272 272 272 272 273 273 273 273
271 270 268 267 266 266 266 266 266 266 266 266 266 266 266 266 266 266 267 266 266 266 266 265 266 268 271 272 274 275 275 273 272 272 271 271 272 272 273 273 274 276
270 269 268 266 266 266 266 266 265 265 266 266 266 266 266 266 266 265 266 266 266 266 268 267 265 267 271 272 273 274 274 273 272 271 271 271 271 271 273 273 273 274
270 268 267 266 266 266 266 266 266 265 265 265 265 266 265 265 265 265 265 265 266 266 265 266 266 266 268 272 273 274 275 273 272 271 270 270 271 272 272 272 272 272

ECMWFNIL_sfc_thetae_021.txt.gz
Theta_e
288 287 287 287 287 286 286 285 285 285 284 284 283 283 283 282 282 281 281 280 280 279 279 279 279 279 279 278 278 278 278 277 277 276 276 277 277 276 277 276 276 276
287 287 287 287 287 286 286 286 285 285 284 283 283 282 282 281 281 281 280 280 280 279 278 278 278 278 278 278 277 277 277 277 276 278 276 276 276 276 276 276 276 276
287 287 286 286 286 285 285 285 284 284 284 283 282 281 281 281 281 280 280 279 279 278 278 278 278 277 277 277 277 277 276 275 275 275 276 275 276 276 275 275 275 275
287 287 287 286 286 285 285 284 283 283 282 281 281 281 281 281 280 279 279 279 278 277 277 277 277 277 277 276 276 276 275 275 275 275 275 275 276 275 275 275 276 275
286 286 286 286 286 285 284 284 283 282 281 281 280 280 280 280 279 278 278 278 277 277 276 276 276 276 276 276 275 275 275 275 275 275 274 274 274 275 275 275 274 274
285 286 286 286 285 284 284 283 283 282 281 280 280 280 280 279 278 278 277 277 276 276 276 276 275 275 275 275 275 275 275 275 274 274 274 274 274 274 275 275 273 273
285 285 285 285 284 284 284 283 282 282 281 280 279 279 279 278 278 277 277 276 276 276 275 275 275 275 275 275 274 274 274 274 274 274 273 273 273 273 273 273 273 272
284 284 284 283 283 283 283 282 281 281 280 279 279 278 278 278 277 277 276 276 275 275 275 275 275 275 274 274 274 273 273 274 273 273 272 272 272 272 272 273 272 271
283 283 283 282 282 282 282 281 281 280 280 279 278 277 277 277 277 276 276 275 275 275 275 274 274 274 274 274 273 273 272 272 273 272 272 272 271 271 271 271 271 271
282 282 282 282 282 282 281 281 280 279 279 279 278 277 277 276 276 276 275 275 274 274 274 274 274 273 273 273 273 272 272 272 272 272 272 271 271 271 270 270 270 270
282 282 282 281 281 281 281 280 279 279 278 278 277 276 276 275 275 275 275 274 274 274 273 273 273 273 272 272 272 272 272 271 271 271 271 271 271 270 271 270 270 269
282 281 281 281 281 281 280 279 279 278 278 277 277 276 275 275 275 274 274 274 274 273 273 273 272 272 272 271 271 271 271 271 271 271 271 271 270 270 270 269 269 269
282 282 282 281 281 280 279 278 278 277 277 276 276 276 275 274 274 274 274 273 273 272 272 272 271 271 270 270 270 270 270 270 270 270 270 270 270 270 270 270 270 270
282 282 281 281 281 279 278 278 277 276 276 276 275 274 274 274 273 273 272 272 271 271 271 271 270 270 269 269 269 269 269 269 269 269 270 270 270 270 270 270 271 271
282 281 280 280 279 278 277 276 276 276 275 274 274 274 274 273 273 272 271 270 270 270 269 270 269 269 269 269 269 269 269 269 270 270 270 270 270 270 271 271 272 272
281 280 279 279 278 277 276 276 275 274 274 273 273 272 272 271 271 270 270 270 269 269 269 269 269 269 271 274 273 270 270 270 270 270 270 270 270 271 272 273 273 273
280 279 278 277 277 276 275 274 274 273 272 272 271 270 270 269 269 269 269 269 269 268 268 268 269 269 274 276 276 275 271 271 270 271 271 271 272 272 272 273 274 274
279 278 277 276 276 275 274 273 273 272 271 271 269 269 269 268 269 269 268 268 269 269 269 269 269 272 275 276 277 278 276 271 271 271 272 273 273 273 273 274 274 274
278 277 276 275 275 274 273 272 271 271 270 269 269 269 268 268 268 268 268 268 268 268 268 269 269 274 276 277 277 278 278 277 274 274 273 273 274 274 274 274 274 273
277 276 275 275 274 273 272 271 270 270 270 269 268 268 268 268 267 267 267 267 268 268 269 269 269 274 277 277 277 278 278 278 275 274 274 274 274 274 274 274 273 272
276 276 275 274 273 272 271 270 270 270 269 268 268 268 267 267 267 267 267 268 269 269 269 269 269 275 277 277 277 277 278 277 275 275 274 274 274 274 273 273 273 273
276 275 274 273 272 271 270 270 270 269 268 268 267 267 267 267 267 267 267 268 269 268 269 269 270 275 276 276 276 277 277 275 275 274 274 273 272 273 272 273 273 273
276 275 273 272 271 270 270 270 270 269 268 268 267 267 267 267 267 267 268 268 268 268 268 268 269 273 275 275 276 277 276 274 274 273 272 272 272 272 272 272 273 273
276 275 273 272 271 270 270 271 270 269 268 268 267 266 267 267 268 267 268 268 268 268 268 267 267 271 274 275 275 276 276 273 273 272 271 271 271 272 272 272 273 275
275 275 274 272 271 271 271 270 269 268 268 267 268 268 267 268 268 267 267 267 268 267 270 268 267 270 274 274 275 276 275 274 273 271 271 271 271 271 272 272 273 274
275 274 274 272 272 271 270 270 269 267 267 267 268 268 267 267 267 267 266 266 267 267 268 268 267 267 270 274 275 276 276 273 272 271 270 270 271 271 271 272 273 273

ECMWFNIL_sfc_thetae_024.txt.gz
Theta_e
289 288 288 287 287 287 286 286 286 285 285 285 285 284 284 284 283 283 282 281 281 280 280 280 280 279 280 279 278 278 278 278 277 277 277 277 277 277 277 276 276 276
288 288 288 288 287 287 287 287 286 286 285 285 285 285 284 284 283 283 282 281 281 280 280 279 279 279 279 278 278 278 277 277 277 278 277 277 276 276 276 276 276 276
288 288 287 287 287 287 286 286 286 286 285 285 285 284 284 284 282 282 282 281 280 280 279 279 279 279 278 278 278 278 277 277 277 277 277 276 276 276 276 276 275 275
288 288 288 287 287 286 286 285 285 285 285 284 284 284 284 283 282 282 281 281 280 279 279 279 279 278 278 278 277 277 277 277 277 276 276 276 276 275 275 275 275 275
288 287 287 287 287 286 285 285 284 285 284 284 284 283 283 282 282 281 281 280 280 279 279 278 278 278 278 277 277 276 276 276 276 276 275 275 275 275 275 275 274 274
287 287 287 286 286 285 285 284 285 284 284 283 283 283 282 282 281 281 280 280 279 279 278 278 278 277 277 277 276 276 276 275 275 275 275 274 274 275 275 275 274 274
286 286 286 286 285 285 285 284 284 284 284 283 282 282 282 281 281 281 280 280 279 278 278 278 277 277 277 276 276 275 275 275 275 275 274 274 274 274 274 274 274 273
286 286 285 285 285 284 284 284 284 284 283 282 282 282 282 281 281 281 280 279 279 278 278 277 277 277 276 276 275 275 274 274 274 274 274 273 273 273 273 274 273 273
286 285 284 284 284 284 284 284 284 283 283 282 282 281 281 281 281 280 280 279 278 278 277 277 277 276 276 276 275 275 274 274 274 274 273 273 273 272 272 273 272 272
285 285 284 284 284 284 284 284 283 283 282 282 281 281 280 280 280 280 279 278 278 277 277 276 276 275 275 275 275 274 274 274 273 273 273 273 272 272 272 272 271 271
284 284 284 283 284 284 284 283 283 282 281 281 280 280 280 279 279 279 278 278 277 277 276 275 275 275 275 274 274 274 274 273 273 273 272 272 272 272 273 271 271 271
284 284 283 283 284 284 284 283 282 281 281 280 280 279 279 279 278 278 278 277 277 276 276 275 275 275 274 274 274 273 273 273 272 272 272 272 271 271 271 271 270 270
284 284 284 284 284 284 284 283 282 281 280 280 280 279 279 278 278 277 277 277 276 275 275 274 274 274 273 273 273 272 272 272 271 271 271 271 271 270 270 270 270 270
284 284 284 284 284 283 283 283 282 281 280 280 279 279 278 278 277 277 276 276 275 275 274 274 273 273 273 272 272 272 271 271 271 270 270 270 270 270 270 270 270 271
285 284 284 283 283 283 283 282 281 281 280 279 279 278 278 277 277 276 275 274 274 274 273 273 273 273 272 272 271 271 271 270 270 270 269 269 270 270 270 270 271 271
284 283 283 283 282 282 282 281 281 280 279 278 278 277 277 276 275 275 274 274 273 272 272 272 272 272 274 276 275 271 270 270 269 269 270 270 270 270 270 271 271 271
284 283 283 282 282 282 281 280 280 278 278 277 276 276 275 275 274 274 273 273 273 272 271 271 271 271 277 278 278 277 271 270 270 270 271 271 271 270 270 271 272 273
284 283 282 282 281 281 280 279 278 277 276 276 275 274 274 273 273 273 273 272 272 271 271 271 270 274 279 279 279 278 275 270 270 270 271 271 271 271 272 273 273 274
283 282 281 281 280 280 279 278 277 276 276 275 274 274 273 272 273 273 272 272 271 271 270 270 270 276 279 280 280 279 277 273 271 271 271 271 272 273 273 273 274 274
282 281 281 280 280 279 278 277 276 276 276 275 274 273 272 272 272 272 271 271 270 270 270 270 269 276 280 281 280 280 278 275 272 272 272 273 273 273 274 274 274 274
281 281 280 280 279 278 276 276 275 275 275 274 273 273 272 272 271 271 270 270 270 270 269 269 269 277 280 281 281 281 280 276 273 273 274 274 274 275 274 274 275 274
280 280 279 278 277 276 275 275 275 275 274 273 273 272 272 272 271 271 270 269 269 269 269 269 270 277 281 282 282 282 282 276 274 274 274 274 274 275 275 275 274 273
279 279 278 277 276 275 275 274 274 274 274 273 272 272 271 271 270 270 270 269 269 269 269 269 269 276 281 282 282 282 281 276 275 274 274 273 273 274 274 274 273 272
279 278 277 276 275 275 274 275 274 274 274 273 272 271 271 270 270 270 270 269 269 269 270 270 270 275 281 282 282 282 280 275 274 273 273 273 272 273 272 272 273 274
277 277 277 276 275 275 275 274 273 273 273 272 272 272 271 270 270 269 269 269 269 270 272 271 270 275 281 281 281 282 279 275 274 273 272 272 272 271 272 272 272 274
276 276 276 275 275 274 274 274 274 272 271 271 271 271 270 270 269 269 268 268 269 269 271 271 271 274 278 281 281 281 280 274 273 272 271 271 271 270 270 271 272 272

ECMWFNIL_sfc_thetae_027.txt.gz
Theta_e
290 289 289 288 288 288 287 287 287 286 286 286 286 286 286 285 285 284 284 283 283 282 282 281 281 281 281 280 280 280 279 279 279 279 278 279 278 278 278 277 277 277
289 289 289 289 288 288 288 287 287 287 286 286 286 286 286 285 285 284 284 283 283 282 282 281 281 281 280 280 280 279 279 279 278 279 278 278 277 277 277 277 277 277
289 288 288 288 288 287 287 287 287 287 286 286 286 286 286 285 284 284 284 283 283 282 281 281 281 281 280 280 279 279 279 278 278 278 278 278 277 277 277 277 276 276
289 289 289 288 288 287 287 286 286 286 286 285 285 286 286 285 285 284 283 283 282 282 281 281 281 280 280 280 279 279 279 278 278 278 277 277 277 277 276 276 276 276
288 288 289 288 288 288 286 286 285 285 285 285 285 285 285 284 284 283 283 283 282 282 281 281 280 280 280 279 279 279 278 278 277 277 277 276 276 276 276 276 276 275
288 288 288 288 288 287 286 285 286 285 285 284 285 284 284 284 283 283 283 282 282 281 281 280 280 280 279 279 279 278 278 277 277 277 276 276 275 276 276 275 275 275
287 287 287 288 287 286 286 285 285 285 285 285 284 284 284 283 283 283 283 282 282 281 280 280 280 279 279 279 278 278 277 277 276 276 276 275 275 275 275 275 275 274
287 287 287 287 286 286 286 285 285 285 285 284 284 284 284 283 283 283 282 282 281 281 280 280 279 279 279 278 278 277 277 277 276 276 275 275 275 274 274 275 275 274
287 286 286 285 286 286 285 285 285 285 285 284 284 283 283 283 283 282 282 281 281 280 280 279 279 279 278 278 278 277 276 276 276 276 275 274 274 274 274 274 274 274
286 286 285 285 285 286 285 285 286 285 284 284 284 283 282 283 283 282 281 281 280 280 279 279 279 278 278 278 277 277 276 276 275 275 275 274 274 274 274 274 273 273
286 286 285 285 285 286 285 285 285 285 284 283 283 282 282 282 282 282 281 281 280 280 279 279 278 278 277 277 277 277 276 276 275 275 275 274 274 274 275 273 273 273
285 285 285 285 285 285 285 285 285 284 283 283 283 282 282 282 281 281 281 280 280 280 279 279 278 278 277 277 277 276 276 275 275 275 274 274 274 273 274 273 273 272
285 285 285 285 285 285 285 285 284 284 283 282 282 282 281 281 281 281 281 280 280 280 279 278 278 277 277 276 276 275 275 275 274 274 274 273 273 273 273 272 272 272
286 286 285 285 285 285 284 284 284 283 283 283 282 282 281 281 281 280 280 280 280 279 279 278 278 277 276 276 275 275 274 274 274 273 273 272 272 272 272 271 271 271
285 285 285 285 285 284 284 284 284 284 283 283 282 282 282 281 281 281 280 279 279 279 278 278 277 277 276 276 275 274 274 273 273 272 272 271 271 271 271 271 270 270
285 285 285 284 284 284 284 284 283 283 283 282 282 282 281 281 280 280 280 279 279 278 278 277 277 277 278 280 279 274 273 273 272 272 271 271 270 270 270 270 270 270
284 284 284 283 284 284 284 284 284 283 282 282 281 281 281 280 280 279 279 279 278 277 277 276 276 276 280 282 281 280 275 273 272 271 271 270 270 269 269 269 270 270
284 284 284 284 284 284 284 284 283 282 281 281 280 280 280 280 279 279 279 278 278 277 276 276 276 279 281 282 282 281 278 273 272 271 270 270 270 270 269 270 270 270
283 283 283 283 283 283 283 283 283 282 281 280 280 280 280 279 279 279 278 278 277 276 276 276 275 280 282 283 283 282 280 275 271 271 270 270 270 270 270 270 271 271
282 283 283 283 283 283 282 282 282 282 281 281 280 279 279 278 277 277 277 277 277 276 276 275 275 279 282 283 283 282 281 277 271 271 271 270 271 271 271 272 273 273
283 283 283 283 282 282 282 281 281 281 280 280 279 278 278 277 276 276 276 276 275 275 275 274 273 280 283 283 283 283 281 277 270 271 271 271 271 272 273 274 274 274
282 282 282 281 281 280 280 281 280 280 279 278 277 277 276 276 275 275 275 274 275 274 274 273 273 280 283 283 284 283 282 273 271 271 271 271 272 273 274 275 275 275
281 282 281 280 279 279 279 279 279 278 278 276 275 275 275 275 275 275 275 274 274 274 273 272 272 279 283 284 284 283 281 272 271 271 272 272 273 274 275 275 275 275
279 279 280 279 278 278 278 279 278 276 276 275 275 274 274 274 274 274 274 274 273 272 273 272 271 277 283 284 283 284 279 271 271 272 272 273 273 274 275 275 275 276
276 276 277 276 276 277 277 276 275 275 274 273 273 274 273 273 272 272 271 271 272 272 274 273 272 275 282 284 284 284 278 272 272 272 272 272 273 273 274 274 274 276
273 274 276 276 276 275 274 275 273 272 272 272 272 273 272 272 272 272 271 271 272 272 273 273 272 273 279 284 284 284 281 274 273 273 272 272 273 272 272 272 273 273

ECMWFNIL_sfc_thetae_030.txt.gz
Theta_e
290 290 290 290 289 289 288 287 287 287 287 287 287 286 287 286 286 285 285 284 284 283 283 282 282 282 282 281 281 280 280 280 280 279 279 279 278 278 278 278 277 278
290 290 290 289 289 288 288 288 287 287 287 287 287 287 287 286 286 285 284 284 284 283 283 282 282 282 281 281 280 280 279 279 279 280 279 278 278 278 278 278 278 277
289 289 289 289 289 288 288 287 287 287 287 287 286 286 286 286 285 285 285 284 283 283 283 282 282 282 281 280 280 280 280 279 279 279 279 278 278 278 278 278 277 277
289 289 289 289 289 288 288 287 286 286 286 286 286 286 286 286 285 284 284 284 284 283 282 282 281 281 281 280 280 280 280 279 279 278 278 278 278 278 277 277 277 277
288 288 288 288 288 287 286 286 286 286 286 286 285 285 285 285 285 284 284 284 284 283 282 281 281 281 281 280 280 279 279 279 278 278 278 277 277 277 277 277 277 276
287 288 288 288 288 287 286 286 286 285 285 285 285 285 285 285 285 284 284 284 284 283 282 281 281 281 280 280 280 279 279 279 278 278 278 277 277 277 277 277 276 276
286 286 286 287 286 287 286 286 285 285 285 286 284 284 285 284 284 284 284 284 283 283 282 282 281 281 280 280 280 279 279 279 278 278 277 277 277 276 276 276 276 276
286 285 285 285 286 286 286 286 285 285 286 285 285 285 284 285 284 284 284 284 283 283 283 282 281 281 280 280 280 279 279 279 278 278 277 277 276 276 276 276 276 276
285 285 285 285 285 286 285 286 286 285 286 286 285 284 284 284 284 284 284 283 283 283 282 282 281 281 281 280 280 279 279 278 278 278 277 277 276 276 276 276 275 275
285 285 285 285 285 286 286 286 286 286 286 286 285 285 284 284 284 284 284 283 283 282 282 282 281 281 281 280 280 279 279 278 278 277 277 277 276 276 276 275 275 275
285 285 285 286 286 286 286 287 287 287 286 285 285 284 284 283 284 284 283 283 283 282 282 282 281 281 280 280 280 280 279 278 278 277 277 277 276 276 277 275 275 275
286 286 286 286 286 287 287 287 287 287 286 286 285 284 284 284 284 283 283 283 283 283 282 282 281 281 280 280 279 279 279 278 277 277 277 277 276 276 276 276 275 275
285 286 286 286 286 287 287 287 287 287 286 286 285 285 284 283 283 283 283 283 283 283 282 282 281 281 280 280 279 279 278 278 277 277 276 276 276 276 276 276 275 275
286 286 286 286 287 287 287 286 286 286 286 286 285 284 284 284 283 283 283 283 283 282 282 282 281 280 280 279 279 278 278 277 277 277 276 276 276 275 275 275 275 275
286 286 286 285 286 286 286 286 286 286 286 285 285 284 284 284 284 283 283 282 282 282 282 281 281 280 280 279 278 278 278 278 277 277 276 275 275 275 274 274 274 274
285 285 285 285 285 285 285 285 285 285 285 285 285 284 284 284 283 283 282 282 282 282 282 281 281 281 281 283 282 279 278 277 277 276 276 275 275 274 274 274 274 273
284 284 285 284 285 285 285 285 285 285 285 284 284 284 283 283 282 282 282 282 282 282 281 281 281 281 283 285 285 284 279 277 276 276 275 275 274 273 273 273 273 272
284 283 283 284 284 284 284 284 284 284 284 283 283 283 283 282 282 282 282 282 282 282 281 281 281 283 284 285 285 285 282 278 277 276 275 275 274 273 273 272 272 272
283 282 282 282 283 283 283 283 282 283 283 282 282 283 282 281 282 282 282 282 282 281 281 281 280 283 285 285 285 285 284 280 277 276 275 275 274 273 273 272 272 271
282 282 281 282 282 282 282 281 281 282 282 282 282 282 282 282 282 282 282 281 281 281 281 281 280 283 285 285 285 286 285 282 277 276 275 275 274 273 273 272 272 271
281 281 281 281 281 281 281 281 281 282 282 282 282 282 282 282 282 281 281 281 281 280 280 280 280 283 285 285 286 286 286 283 276 275 274 274 274 273 273 272 272 272
281 280 280 280 280 280 280 281 281 281 282 282 281 282 282 282 281 281 281 280 280 280 279 279 279 283 284 285 286 286 286 281 276 274 273 273 273 273 272 272 272 272
281 280 279 279 280 280 280 280 281 281 281 281 280 280 281 280 280 280 280 280 280 279 279 278 277 281 284 285 286 286 285 278 274 273 273 272 272 272 272 272 272 273
281 280 279 278 278 278 279 280 280 280 280 280 279 279 279 279 279 279 278 278 278 278 278 277 276 279 283 285 285 286 284 276 274 273 272 271 271 272 272 273 273 276
282 281 280 279 278 279 278 277 277 278 279 277 277 278 278 278 277 277 276 276 276 277 278 277 276 277 283 284 285 286 283 275 274 272 271 271 271 271 272 273 274 276
283 281 281 280 279 279 278 277 276 275 274 275 274 274 274 274 274 274 274 274 274 275 275 276 275 275 279 284 285 286 284 275 273 272 271 271 271 272 272 273 274 275

ECMWFNIL_sfc_thetae_033.txt.gz
Theta_e
293 293 293 293 293 293 292 291 291 291 291 291 290 290 290 290 290 289 289 289 289 288 288 288 287 287 287 286 286 285 285 285 285 285 285 284 284 285 283 284 284 284
292 292 292 293 293 292 292 291 291 291 291 291 291 291 291 291 290 290 289 289 289 288 288 288 287 287 286 286 285 285 284 284 284 285 284 284 284 284 284 284 284 284
291 291 291 291 292 291 291 291 290 290 290 290 291 291 290 290 290 289 289 288 288 288 287 287 287 286 286 286 285 284 284 284 284 284 284 284 284 283 283 284 283 283
290 290 291 291 291 291 290 290 289 290 290 289 289 290 289 289 289 289 288 287 287 287 287 287 286 286 286 285 285 284 284 284 284 284 283 283 283 283 283 283 283 282
289 290 290 290 290 290 290 289 289 289 289 289 289 289 289 289 288 288 288 287 287 287 287 286 286 285 285 285 284 284 284 284 284 283 282 282 283 282 282 282 281 281
288 289 289 289 289 289 289 288 289 288 288 288 288 288 288 288 288 288 287 287 287 287 286 286 285 285 285 284 284 283 283 283 283 282 282 282 282 282 281 281 281 281
287 288 288 288 288 289 289 289 288 288 288 288 288 287 288 287 287 288 288 287 287 287 286 286 285 284 284 284 283 283 283 283 282 281 281 281 281 280 281 280 281 280
286 286 287 287 287 287 288 288 288 288 288 287 287 288 287 287 287 287 287 287 286 286 286 286 285 285 284 284 283 282 282 282 282 281 281 281 281 280 280 280 280 280
285 286 286 286 286 286 287 287 288 288 288 287 287 288 288 287 287 287 287 286 286 286 286 285 285 284 284 283 283 282 282 282 282 281 280 280 280 280 279 280 279 279
286 286 285 285 285 286 286 287 287 288 287 287 288 288 287 287 287 287 286 286 286 285 285 285 284 284 284 283 283 283 282 282 282 281 281 281 280 280 279 279 279 279
286 286 286 286 286 286 286 287 287 288 288 287 287 287 287 287 286 286 286 286 285 285 285 285 285 284 283 283 283 283 283 282 282 281 281 281 281 280 280 279 279 279
286 286 286 286 286 286 286 286 287 287 287 287 287 286 287 286 285 285 285 285 286 286 286 285 285 285 284 283 283 283 283 283 282 282 281 281 281 281 280 280 279 279
285 285 285 285 285 286 286 286 286 286 287 287 287 287 287 286 286 285 285 286 286 286 285 285 285 285 284 284 283 283 283 282 282 282 281 281 281 281 280 280 280 279
285 285 285 285 285 285 285 286 286 286 286 287 287 287 286 286 286 285 285 285 285 285 285 285 285 285 284 284 284 283 283 282 282 282 281 281 280 280 280 280 280 279
284 285 285 285 285 285 285 285 285 286 286 286 286 286 286 286 286 286 286 285 285 285 285 285 285 284 284 284 283 283 282 282 282 282 281 280 280 280 280 280 280 279
284 284 284 284 284 284 284 285 285 285 285 285 285 286 286 286 286 286 285 285 285 285 284 284 284 285 285 286 286 283 282 282 282 281 281 281 280 279 279 279 279 279
283 283 283 283 283 284 284 284 284 284 284 284 284 285 285 285 285 285 285 285 285 284 284 284 284 284 286 287 287 287 283 282 281 281 281 280 280 279 279 278 278 279
283 283 282 282 282 282 283 283 283 283 284 284 284 284 284 284 284 284 284 284 284 284 284 284 284 285 287 287 288 287 286 283 282 281 281 280 280 279 279 278 278 278
282 282 281 281 281 282 282 282 282 283 283 283 283 284 284 283 284 284 284 284 284 284 284 284 284 286 287 288 288 288 287 285 282 282 281 280 280 279 279 278 278 277
282 282 281 281 281 281 281 281 281 281 282 283 283 283 283 283 283 283 283 283 283 283 283 284 284 285 287 287 288 288 288 286 282 281 281 280 280 279 279 278 278 277
282 282 281 281 281 281 280 280 280 281 282 282 283 282 282 283 283 283 283 283 283 283 283 283 283 286 286 287 288 288 288 287 283 282 281 280 280 279 279 278 278 277
282 281 281 280 280 280 280 281 281 281 281 282 282 282 282 282 282 282 282 283 283 283 282 282 283 286 286 287 287 288 288 286 284 282 280 280 279 279 279 278 277 276
280 280 280 280 280 279 279 280 280 280 281 281 280 281 281 281 281 282 282 282 282 282 282 282 282 284 286 286 287 288 287 285 284 282 281 279 279 279 278 277 277 276
280 280 280 280 280 279 280 281 281 281 281 281 280 279 280 280 281 281 281 281 281 281 281 281 282 283 285 286 286 287 287 285 284 282 280 279 278 278 277 277 276 278
278 278 279 279 279 280 280 279 279 280 280 279 279 279 279 280 280 279 279 280 280 280 281 281 281 282 284 285 286 286 286 285 283 282 280 278 277 276 276 276 275 277
276 276 277 278 279 279 279 279 279 279 279 279 279 279 278 279 278 278 278 278 279 279 279 279 280 281 281 284 285 286 287 285 283 281 279 278 277 276 274 274 275 275

ECMWFNIL_sfc_thetae_036.txt.gz
Theta_e
299 299 299 298 299 299 299 299 298 298 298 298 297 298 297 297 297 297 296 296 296 296 295 295 295 295 295 294 294 293 293 293 292 292 292 292 291 292 292 293 293 292
297 298 298 298 298 298 298 298 298 298 297 298 298 298 298 298 297 297 296 295 295 295 295 295 295 294 294 293 293 292 292 291 291 292 291 291 291 291 292 293 292 292
296 296 297 297 297 298 298 298 298 298 297 297 298 298 298 298 297 297 296 296 295 295 295 294 294 294 293 293 293 292 291 291 290 291 290 291 291 290 290 291 291 292
294 295 295 296 296 297 297 297 297 297 297 297 297 297 297 298 297 296 296 294 294 294 294 294 293 293 293 292 292 291 291 291 291 291 290 290 290 290 290 290 290 291
293 293 294 295 295 296 296 296 296 296 296 296 297 297 296 296 296 295 295 294 294 294 294 293 293 293 292 292 291 290 290 290 290 290 290 289 289 289 289 289 289 289
292 292 293 293 293 294 294 295 295 296 296 295 296 296 295 295 295 294 294 294 294 293 293 293 292 292 292 291 291 290 290 289 289 289 289 288 288 289 289 289 288 287
290 290 291 292 292 292 292 293 294 294 294 295 295 294 295 294 294 294 294 294 293 293 293 292 292 291 291 291 290 289 289 289 289 288 288 288 288 288 288 288 287 287
289 289 289 290 290 291 291 291 292 292 293 294 293 294 294 294 293 294 294 294 293 293 292 292 292 292 291 290 290 289 288 289 288 288 287 287 287 286 287 286 286 286
289 289 289 289 289 290 289 290 290 291 292 292 292 293 293 293 293 293 293 293 293 292 292 292 292 291 291 290 289 289 288 288 288 287 287 286 286 286 286 286 285 285
288 288 288 288 288 289 288 289 290 290 291 291 291 292 292 293 293 292 292 292 291 291 291 291 291 291 291 290 289 289 288 288 287 287 287 286 286 286 286 285 284 284
287 287 287 287 287 288 288 288 289 289 290 289 290 290 290 291 292 292 291 291 291 291 291 291 291 291 290 290 289 289 288 288 288 287 287 286 286 286 285 284 283 283
287 287 287 287 287 287 287 287 287 288 289 289 289 289 289 289 290 290 291 290 290 290 290 290 291 290 290 289 289 289 288 287 287 286 286 286 285 285 285 285 283 282
286 286 286 286 286 287 287 287 287 287 287 287 288 288 288 288 288 289 289 289 288 289 289 289 288 288 288 288 288 288 287 286 286 285 285 285 285 285 285 284 283 283
286 286 286 286 286 286 287 287 287 287 287 287 287 287 287 288 288 288 289 288 288 288 288 288 288 288 288 288 288 287 287 286 286 285 285 284 284 284 284 284 283 283
286 286 286 286 286 286 286 286 286 286 286 287 287 287 288 287 288 288 288 288 289 289 289 289 289 288 289 288 288 287 288 287 286 285 285 285 284 284 284 284 284 283
286 286 286 286 285 285 285 285 286 286 286 286 286 286 287 287 287 287 287 287 287 288 288 288 288 289 288 288 288 287 287 287 287 286 286 285 285 284 284 283 283 283
286 285 285 285 285 285 285 285 285 285 285 285 285 285 285 286 286 286 286 287 287 287 287 288 288 288 288 289 290 290 288 287 286 286 286 285 285 284 284 283 283 283
285 285 285 284 285 284 284 284 285 284 284 285 285 285 285 286 285 285 286 286 286 286 286 287 287 287 289 289 290 290 289 287 286 286 285 286 285 285 284 284 283 282
285 284 284 284 284 284 284 284 284 284 284 284 284 285 285 285 285 285 285 286 286 285 285 286 286 288 289 289 290 290 290 289 287 286 285 285 285 285 284 284 283 282
284 284 283 283 283 283 283 283 283 283 284 284 284 285 284 284 285 285 285 285 285 285 285 285 286 287 288 288 289 289 289 289 287 286 285 285 285 285 284 283 283 282
283 283 282 282 282 282 282 282 282 283 283 283 283 283 283 283 283 284 284 285 285 285 285 285 286 287 287 287 288 288 289 289 287 287 286 285 285 285 285 284 284 283
282 282 282 281 281 280 280 280 281 281 282 283 283 283 283 283 284 284 284 284 285 285 284 284 286 287 287 287 287 288 288 287 287 287 286 286 285 285 285 284 284 283
282 281 281 280 280 279 279 279 279 280 281 282 281 281 282 282 282 282 283 283 283 283 283 284 285 286 287 287 287 287 287 286 286 286 286 286 285 285 285 284 283 283
281 281 280 279 279 278 277 278 278 279 279 280 279 280 280 281 281 281 282 283 282 282 283 283 283 284 285 286 287 287 286 286 286 286 285 285 285 285 285 284 283 283
280 280 279 278 277 277 277 277 277 277 278 278 278 279 280 281 281 281 281 281 282 282 282 282 282 283 284 285 286 286 286 285 285 285 284 285 285 284 284 284 283 283
279 278 277 276 276 276 276 276 276 276 276 276 277 277 278 279 279 280 279 280 281 281 281 282 282 282 283 284 285 285 286 285 285 284 283 284 285 284 283 282 282 281

ECMWFNIL_sfc_thetae_039.txt.gz
Theta_e
297 297 297 298 298 299 299 299 299 299 300 300 299 300 300 300 301 300 299 299 299 298 299 298 298 298 298 297 297 296 296 296 295 295 294 294 293 293 293 293 294 294
295 296 296 297 297 298 298 298 299 299 298 299 299 299 300 300 301 300 299 299 298 298 298 298 298 297 297 296 296 295 294 294 294 295 293 293 293 293 292 292 293 293
294 294 295 295 295 296 297 297 298 298 298 298 298 298 299 300 300 300 299 299 298 298 298 298 297 297 296 296 295 295 294 293 293 294 293 293 293 292 292 292 292 292
294 294 294 294 294 294 295 296 296 297 297 297 297 298 298 299 299 299 299 298 298 297 297 297 296 296 296 295 295 294 294 293 293 293 293 292 292 292 291 292 291 291
292 292 293 293 294 294 294 294 294 295 295 296 296 297 297 297 297 297 297 297 297 296 296 296 296 295 295 294 294 293 293 293 293 293 292 291 292 291 291 291 290 290
291 291 292 292 293 292 292 292 292 293 293 294 294 295 295 296 295 295 295 295 296 295 295 295 295 295 294 294 293 293 292 292 292 292 291 291 291 291 291 291 290 289
289 289 290 291 291 291 290 291 291 292 292 292 293 293 294 294 294 294 294 294 295 295 294 294 294 294 294 293 293 292 292 292 291 291 290 290 290 290 291 290 290 289
288 289 289 289 289 290 289 290 290 291 291 292 291 292 292 293 293 293 293 293 293 294 294 294 294 294 293 293 292 291 291 292 291 290 290 289 290 289 289 290 289 289
288 288 288 288 288 288 287 288 289 289 291 290 291 291 291 292 292 292 292 292 292 292 293 293 293 293 293 293 292 291 291 290 291 290 289 289 288 289 289 289 289 288
287 287 287 287 286 287 287 288 288 289 289 289 290 290 290 291 291 291 291 291 291 291 291 291 292 292 292 292 292 291 290 290 290 289 289 289 289 288 288 288 288 287
287 287 286 286 286 287 287 287 288 288 288 288 288 288 289 289 290 291 290 290 291 291 291 291 291 291 291 291 292 291 290 290 290 289 289 289 289 288 288 288 288 287
286 286 286 286 286 286 286 287 287 287 287 287 288 287 288 288 288 289 289 289 289 290 290 290 290 290 290 290 290 290 290 290 290 289 289 288 288 288 288 288 288 287
286 286 286 286 286 286 286 287 287 286 286 286 287 287 287 287 288 288 288 288 288 289 289 289 289 289 289 289 289 289 289 289 289 288 288 288 288 288 288 288 288 288
286 286 286 286 286 286 286 286 286 286 286 286 286 286 286 286 286 287 287 288 288 288 288 289 289 288 288 288 288 288 287 287 287 287 287 287 287 288 287 287 287 287
286 286 287 286 286 285 285 285 285 285 285 286 286 286 286 286 286 286 286 286 287 287 288 288 289 289 289 288 287 287 287 287 287 286 286 286 286 286 287 287 287 287
286 286 286 286 286 285 285 285 285 285 284 284 284 285 285 285 285 286 286 285 285 286 286 287 288 289 288 289 289 288 287 287 287 286 286 286 286 286 286 286 286 286
285 285 285 285 285 285 285 285 285 284 284 284 284 284 284 285 285 285 285 285 285 285 285 286 287 287 288 290 290 291 289 288 287 286 286 286 286 285 285 286 286 286
285 285 284 284 285 284 284 284 284 283 283 283 283 284 284 284 284 284 284 285 285 285 285 285 285 287 289 289 290 290 290 288 287 286 286 286 286 286 286 286 286 286
284 284 283 283 283 284 284 283 283 282 282 282 282 283 283 283 283 284 284 284 284 284 284 285 285 287 288 288 289 289 289 289 287 286 286 286 286 286 286 285 285 285
284 283 282 282 283 283 283 282 282 281 281 282 282 282 282 283 283 283 283 283 283 283 283 284 284 286 287 288 288 289 289 289 287 286 286 286 286 286 286 285 285 285
283 283 283 283 283 283 282 282 281 281 280 280 281 281 281 281 282 282 282 282 282 283 282 283 283 286 286 287 287 288 288 288 287 286 286 286 286 286 286 286 286 285
283 282 282 282 282 282 282 281 281 280 280 280 280 280 281 281 281 281 281 281 281 281 281 281 283 285 286 286 286 287 288 286 286 286 286 286 286 286 286 286 286 286
282 282 281 281 281 281 280 280 280 279 279 280 279 279 279 279 279 280 280 280 280 280 280 280 281 284 285 286 286 287 286 285 285 285 285 285 286 286 287 287 287 286
281 281 280 280 279 279 279 280 279 279 278 279 278 277 277 278 279 278 279 279 279 280 281 280 281 282 284 285 285 285 285 283 284 284 284 284 285 286 286 287 287 286
278 278 278 277 277 277 278 277 277 277 277 277 277 277 277 277 277 277 277 278 279 279 280 280 279 281 283 284 284 285 284 283 283 283 283 283 284 284 286 286 286 286
275 275 275 275 274 275 275 275 276 275 275 275 275 275 275 275 275 275 274 275 276 276 277 278 278 278 280 282 283 284 285 283 283 282 282 282 283 283 284 285 285 286

ECMWFNIL_sfc_thetae_045.txt.gz
Theta_e
287 288 287 287 288 288 288 288 288 288 288 289 289 289 289 290 290 290 290 291 291 290 290 289 289 289 291 289 289 289 289 289 289 288 287 287 287 286 288 286 285 285
286 287 287 286 286 287 287 288 288 288 287 288 288 288 289 289 289 289 289 289 290 290 290 290 289 288 288 288 287 287 288 287 288 289 287 286 286 286 286 286 286 286
286 286 287 286 285 285 286 287 287 287 286 286 287 288 288 288 288 288 288 288 288 288 289 289 288 288 287 286 286 286 287 287 287 287 286 286 286 285 285 285 285 285
285 286 286 286 286 285 286 286 286 286 286 286 286 287 287 287 287 286 287 287 286 286 286 287 287 287 287 287 286 287 286 286 286 286 286 286 286 285 285 285 285 285
285 285 285 285 285 285 285 285 285 286 286 286 286 286 285 285 285 285 285 285 285 286 286 286 286 286 286 287 286 287 287 287 286 285 285 286 286 286 286 285 284 284
284 285 284 284 284 284 284 284 284 285 285 285 285 285 284 284 283 284 285 285 285 285 285 285 286 286 286 286 286 286 286 286 287 285 285 285 286 286 286 286 285 284
283 283 283 284 283 283 283 283 283 284 284 284 283 283 284 283 283 284 284 284 284 285 285 285 285 286 286 286 285 285 285 285 285 285 285 285 285 285 285 285 284 284
283 282 282 282 281 280 281 282 282 282 283 283 282 283 283 283 282 283 284 284 284 284 284 284 284 285 285 285 285 286 286 287 286 285 285 285 285 284 285 285 285 284
281 282 282 282 281 281 281 281 280 281 282 282 283 282 282 281 281 282 282 283 283 283 283 283 284 283 284 284 284 285 285 285 286 286 286 286 285 285 285 285 284 284
281 281 281 281 281 281 281 281 281 282 282 282 283 282 281 281 280 281 281 282 282 282 282 282 282 283 283 283 284 284 284 284 285 285 285 285 286 286 286 286 285 285
279 279 280 280 280 281 281 282 282 282 282 282 282 282 282 281 281 281 281 281 282 282 282 282 282 282 282 283 283 284 283 284 284 284 284 285 285 285 286 285 286 285
279 279 280 279 280 280 281 281 282 282 282 282 282 282 282 282 281 281 281 281 281 281 282 282 282 282 282 282 282 283 283 283 283 283 284 284 284 285 284 285 285 285
278 278 279 279 279 280 280 280 281 281 281 281 281 281 281 281 282 281 281 281 281 281 281 281 281 281 282 282 282 282 282 282 282 283 283 284 284 284 284 284 284 284
277 278 278 278 279 279 279 279 279 279 280 281 281 281 280 280 280 281 281 281 281 281 282 282 281 281 281 281 282 282 282 281 281 282 282 283 283 283 283 284 284 284
279 279 279 279 278 278 278 278 278 278 278 278 278 279 280 280 280 279 279 280 280 280 281 281 281 281 282 281 281 281 282 281 281 282 282 282 282 282 283 283 283 283
279 279 279 279 279 279 279 279 279 279 278 278 278 279 278 278 278 278 278 278 278 279 279 280 280 281 282 284 285 283 282 282 282 282 282 282 282 282 282 282 283 283
278 278 279 278 279 279 279 278 278 278 278 278 278 278 278 278 278 278 278 278 278 278 278 279 279 280 283 284 285 286 284 283 282 282 282 282 281 281 281 281 281 282
277 277 277 277 277 277 276 276 276 275 275 276 276 276 277 277 277 277 278 278 278 278 277 278 278 281 283 284 284 285 285 283 282 282 282 282 282 282 281 281 281 281
275 275 275 275 274 273 273 273 273 273 273 273 273 274 275 274 275 275 276 276 277 276 277 277 277 281 282 283 283 284 284 283 281 281 281 281 281 281 281 281 281 281
273 272 272 271 271 271 271 271 271 271 272 272 273 273 273 273 273 273 274 274 275 275 275 276 276 279 281 282 282 283 283 283 280 280 281 281 281 281 281 281 281 281
271 269 269 269 269 269 269 269 269 269 270 270 271 270 270 270 270 270 271 272 272 273 273 273 274 278 279 280 281 282 283 283 279 279 279 280 280 280 280 280 280 281
268 267 266 266 266 266 266 266 266 266 266 267 267 267 267 268 268 268 268 268 269 270 270 270 271 276 277 278 280 281 281 278 278 277 277 278 278 279 279 280 280 280
266 265 264 264 264 263 263 263 263 263 264 265 264 264 264 264 265 265 266 266 267 267 268 268 270 272 276 277 278 279 278 275 276 276 276 276 277 277 278 279 280 280
264 263 262 262 261 261 261 262 262 262 262 263 262 262 262 263 263 263 264 265 265 265 266 266 266 269 273 274 275 276 275 273 274 274 274 275 276 277 277 277 278 280
262 262 261 261 260 260 260 260 260 261 261 262 262 262 261 262 262 262 262 263 263 264 265 264 263 265 270 272 273 274 273 271 272 272 273 273 274 274 275 276 276 278
261 261 260 260 260 260 260 260 260 260 260 260 260 260 260 260 261 261 260 261 262 262 262 263 263 264 266 271 272 273 274 271 271 271 271 272 273 273 273 274 275 275

ECMWFNIL_sfc_thetae_048.txt.gz
Theta_e
287 286 285 285 285 286 285 285 285 284 284 284 284 284 284 284 285 285 285 286 286 286 286 286 287 287 288 288 288 288 288 288 287 287 286 285 285 285 286 286 285 285
286 286 286 286 286 286 286 286 285 285 284 284 284 284 285 285 284 284 285 285 285 285 286 286 285 286 286 286 286 286 286 287 287 288 287 286 286 285 284 284 284 285
285 285 285 285 285 285 285 286 286 285 285 285 285 286 285 286 285 285 285 285 285 285 285 286 285 285 285 285 285 285 285 285 286 286 286 286 286 285 285 284 284 284
284 285 284 285 285 284 285 284 285 285 285 284 285 285 285 286 285 284 285 285 284 284 284 285 285 285 284 284 285 285 285 285 285 284 285 286 286 285 285 285 284 284
284 284 284 284 283 283 283 284 283 284 284 284 284 284 284 284 284 283 284 284 284 284 284 284 284 284 284 284 284 284 285 285 285 286 285 285 286 286 286 285 285 284
283 282 281 281 281 281 282 281 282 282 282 282 282 282 282 282 283 283 283 283 283 283 283 284 284 284 284 284 284 284 284 284 285 285 285 285 286 286 286 286 285 284
282 281 281 280 280 280 280 280 280 280 280 280 281 282 282 282 281 282 282 282 282 283 283 283 283 283 283 283 283 283 283 283 284 284 284 285 285 285 286 286 285 285
281 281 281 280 280 280 280 281 281 281 281 281 281 282 281 282 281 281 281 280 281 282 282 282 282 282 282 283 282 282 282 284 284 283 283 283 284 284 285 286 286 285
280 280 280 280 280 280 279 280 280 280 281 281 281 282 281 281 281 281 281 281 280 281 281 281 282 282 282 282 282 282 282 282 283 283 282 282 282 283 284 285 285 285
280 280 280 280 280 279 279 279 279 280 280 280 281 280 281 281 281 281 280 280 280 280 281 281 281 281 281 281 281 281 281 281 282 282 282 282 282 282 283 283 283 284
278 278 278 278 278 278 278 278 278 279 279 279 279 279 279 280 280 280 280 280 280 280 280 281 281 281 280 281 281 281 281 281 281 281 282 282 282 282 283 283 283 283
277 277 277 277 278 278 278 278 278 278 278 279 278 278 279 279 279 279 280 279 280 280 280 280 280 280 280 280 280 281 281 281 281 281 281 281 281 282 282 283 283 283
276 277 277 277 277 278 278 278 278 278 278 278 278 278 278 278 279 279 279 279 279 279 279 280 280 280 280 280 280 280 280 280 280 280 280 280 281 281 281 282 282 283
276 277 277 277 277 277 277 277 277 277 277 277 277 277 277 277 277 278 278 278 279 279 279 279 279 279 279 280 280 280 280 279 279 279 279 279 280 280 281 281 281 282
276 276 276 276 276 276 276 276 276 276 276 275 275 275 276 276 276 276 276 276 277 277 278 278 278 278 279 279 279 279 280 280 280 280 280 279 279 280 280 281 281 281
274 274 274 274 274 274 273 273 272 272 272 272 272 273 273 274 274 274 275 274 275 275 276 276 277 277 279 281 281 280 279 280 280 280 280 279 279 280 280 281 281 281
273 273 273 272 272 271 270 270 270 270 270 270 270 270 271 271 272 272 272 273 273 273 273 274 274 275 278 280 281 282 280 278 278 278 279 279 279 278 278 279 280 281
272 272 271 270 270 269 269 268 268 268 268 268 268 268 269 269 269 269 270 270 270 270 270 270 271 274 276 277 278 279 279 277 277 277 278 278 278 278 278 278 279 279
270 269 268 268 267 267 267 266 266 266 266 266 266 266 267 266 267 266 266 267 267 267 267 268 268 271 274 275 276 277 278 277 276 276 276 276 276 277 277 277 278 278
268 266 266 265 265 265 265 264 264 264 264 264 265 265 264 264 264 264 264 264 265 265 265 265 265 268 273 274 275 276 276 276 274 274 275 275 276 276 276 276 276 277
265 264 264 264 263 263 263 262 262 262 263 263 263 263 263 262 262 262 263 263 263 263 263 263 264 270 272 273 273 274 274 274 271 271 271 272 273 274 275 276 276 276
264 263 262 262 262 262 261 261 261 261 261 262 262 262 262 262 262 262 261 261 262 262 262 262 263 269 270 271 272 273 274 270 269 269 269 269 270 271 272 273 274 275
263 262 261 261 261 260 260 260 260 260 260 261 260 260 261 260 260 261 261 261 261 261 261 261 261 265 269 270 271 272 271 268 268 268 268 268 269 270 270 271 272 273
262 261 260 260 259 259 259 260 260 260 260 260 260 259 259 259 260 260 260 260 260 260 260 260 261 264 268 269 270 271 271 268 267 267 267 267 268 269 270 271 272 274
261 260 260 259 259 259 259 259 259 259 259 260 259 259 259 259 259 259 259 259 259 260 262 261 260 262 267 268 270 271 269 268 267 267 266 266 267 267 269 269 270 272
260 259 259 258 258 258 258 258 259 259 259 259 258 258 258 258 258 258 258 258 259 259 259 260 260 260 263 268 269 270 271 268 267 266 266 266 267 267 267 268 268 269

ECMWFNIL_sfc_thetae_051.txt.gz
Theta_e
284 284 284 284 284 285 284 284 285 284 284 284 284 284 284 285 285 284 284 284 284 284 284 285 285 285 286 285 286 286 286 286 286 287 286 286 285 284 285 284 283 283
284 285 285 285 285 285 285 285 285 285 284 284 284 285 285 285 285 285 285 284 284 284 284 285 284 284 284 284 285 284 284 285 284 287 286 286 286 286 285 285 284 284
285 285 285 284 284 284 285 285 285 285 284 284 284 285 285 285 285 284 284 284 284 284 284 284 284 284 284 284 284 284 284 284 284 285 285 285 285 285 286 285 285 285
284 284 284 284 284 283 284 284 284 284 284 284 283 284 284 284 284 283 283 283 283 283 283 283 283 283 283 283 283 283 283 283 284 284 284 284 284 285 285 285 285 285
283 283 282 283 283 283 283 283 283 283 283 283 283 283 283 282 282 282 282 282 282 282 282 282 282 282 282 282 282 282 282 283 283 283 283 283 284 284 285 285 285 285
283 283 282 282 281 281 281 281 282 282 282 282 282 282 281 281 282 282 282 281 281 281 281 281 281 281 281 281 281 281 281 282 282 282 282 282 282 283 284 284 284 283
281 281 282 282 282 282 282 281 281 281 281 281 281 281 281 281 281 281 281 281 281 281 281 280 280 280 280 280 280 280 280 280 281 281 281 281 281 281 282 282 282 283
280 281 281 281 281 281 281 281 280 280 280 280 280 280 280 280 280 280 281 280 280 280 280 280 280 280 280 280 279 279 279 280 280 280 279 279 280 280 281 282 282 281
280 279 279 279 279 280 280 280 280 280 280 279 279 279 279 279 279 279 279 279 279 279 279 279 279 279 279 279 279 278 278 278 279 278 278 278 278 279 279 280 280 280
279 279 279 279 279 279 279 279 279 279 280 279 279 279 279 279 279 279 278 278 278 278 278 278 278 278 278 278 278 278 278 278 278 278 278 278 278 278 278 279 279 279
277 277 277 277 277 277 277 278 278 278 278 278 278 277 277 277 277 278 277 277 277 277 276 277 277 277 277 277 278 278 278 278 278 278 278 278 278 278 280 278 278 278
276 276 276 276 276 276 276 276 276 276 275 275 276 275 275 275 275 275 276 275 275 275 276 276 276 276 276 276 276 277 277 277 277 277 277 278 278 278 278 278 278 278
275 275 275 275 275 275 275 275 274 273 273 273 273 273 272 273 273 273 273 274 274 274 274 274 274 275 275 275 275 276 276 276 276 277 277 277 278 278 278 278 278 278
274 274 274 274 274 274 274 273 272 271 271 271 271 271 271 271 271 271 271 272 272 272 272 272 272 272 272 273 273 274 274 275 275 275 276 276 277 277 278 278 278 278
273 273 273 272 272 271 271 270 270 270 269 269 269 269 270 269 270 270 269 269 270 270 269 270 270 270 271 271 272 273 274 273 274 274 274 274 274 275 276 277 277 278
272 271 271 270 270 269 269 268 268 268 267 267 267 267 267 268 268 267 267 267 267 267 267 267 267 268 270 274 275 273 272 272 272 272 273 273 273 273 274 275 276 276
270 270 269 268 268 267 266 266 266 265 265 265 265 265 265 265 265 265 265 265 265 265 265 265 266 267 271 273 274 275 273 272 272 272 273 273 273 273 272 273 274 275
268 267 266 266 265 265 264 264 264 263 263 263 263 263 264 264 264 264 264 264 264 264 264 264 264 267 271 272 273 274 275 272 272 271 271 271 272 272 272 273 273 274
266 265 264 264 264 263 263 263 262 262 262 262 261 262 263 262 263 263 262 263 263 262 262 263 263 267 270 271 273 274 274 273 271 270 270 270 270 270 270 271 271 271
265 263 263 263 262 262 262 261 261 261 261 261 262 262 262 261 261 261 262 261 262 262 261 262 262 265 269 271 272 273 273 273 270 270 270 270 269 269 269 269 269 269
263 262 262 262 261 261 261 260 260 260 260 261 261 261 260 260 260 260 260 260 260 261 260 261 261 267 269 271 271 272 273 273 270 269 268 268 268 269 269 269 269 269
262 261 261 261 261 260 259 260 260 259 259 260 260 260 260 260 260 260 259 259 260 260 260 259 261 267 268 269 271 272 273 269 268 267 267 267 267 268 268 269 269 269
262 261 260 260 260 259 259 259 259 259 259 259 259 259 259 259 259 259 259 259 259 259 259 259 259 263 267 269 270 271 270 267 267 266 266 266 267 267 268 268 268 269
261 259 259 259 258 258 258 259 259 259 258 259 258 258 258 258 258 258 258 259 258 258 259 258 259 262 267 269 270 270 270 267 266 266 266 266 266 267 268 268 268 270
259 259 259 258 258 258 258 258 258 258 258 258 258 258 258 258 258 258 258 258 258 258 260 260 259 261 266 268 269 270 269 267 267 266 266 266 266 266 267 267 267 269
258 258 258 257 258 258 257 257 258 257 258 258 257 257 257 257 257 257 257 257 258 258 258 259 259 259 261 267 269 270 271 268 267 266 265 265 266 266 266 267 267 268

ECMWFNIL_sfc_thetae_054.txt.gz
Theta_e
283 282 282 283 283 283 283 283 284 284 284 284 283 283 284 284 284 284 284 284 284 284 284 284 284 284 284 284 284 284 283 283 283 284 284 284 283 284 284 284 284 285
282 283 283 283 283 283 283 283 283 284 284 284 284 284 284 284 284 283 283 283 283 283 283 283 283 283 283 283 283 282 282 282 282 284 283 283 283 283 283 284 284 285
281 281 281 281 281 282 282 282 282 283 283 283 283 283 283 283 283 283 283 283 282 282 282 282 282 282 282 282 282 281 281 281 281 282 282 282 282 282 282 283 283 284
281 281 281 281 281 281 281 281 281 281 281 281 280 281 282 282 281 280 280 281 280 280 281 281 281 281 281 281 281 281 281 281 281 281 281 281 281 281 281 282 282 283
280 280 280 281 282 282 282 282 281 281 281 281 280 281 280 280 280 280 280 280 279 279 278 278 278 279 279 279 280 279 280 280 280 280 280 280 280 281 281 281 281 281
279 279 279 280 280 280 279 279 279 279 280 280 280 280 280 280 279 279 279 278 279 279 278 278 278 278 278 278 278 278 278 278 279 279 279 279 279 280 280 280 280 280
278 278 278 279 279 280 279 279 279 279 278 278 277 278 278 278 278 278 278 278 277 278 277 277 277 277 277 277 277 276 277 277 278 278 278 278 278 278 279 279 279 279
277 278 278 278 278 277 277 277 277 277 277 277 277 277 277 277 276 277 277 276 276 275 276 276 276 276 276 276 276 276 276 277 277 276 276 277 277 277 278 279 278 278
277 277 277 277 277 276 276 276 276 276 276 275 275 274 275 274 274 275 275 275 274 275 275 275 275 275 275 275 275 275 274 275 276 276 276 276 276 276 277 277 277 277
275 276 276 276 275 275 275 275 275 274 274 273 273 273 272 273 273 273 273 273 273 273 273 273 273 274 274 274 274 274 274 274 274 275 275 275 275 275 276 276 276 276
274 275 275 274 274 274 274 273 272 272 272 271 271 271 271 271 272 272 271 271 271 271 271 271 272 272 271 272 272 273 273 273 273 273 273 274 274 275 276 275 276 276
274 274 274 273 273 273 272 272 271 270 270 270 270 270 270 270 270 270 270 270 270 270 270 270 270 270 270 270 271 271 271 272 272 273 273 273 274 274 274 275 275 275
273 273 273 272 272 271 271 270 270 269 269 269 269 269 269 268 268 269 269 268 268 269 268 268 268 269 269 269 269 270 270 271 271 272 272 272 273 273 273 273 274 274
272 272 271 271 271 270 269 269 268 268 268 268 268 267 267 267 267 267 267 267 267 267 267 267 267 267 268 268 269 270 270 271 271 271 271 271 271 272 272 272 273 273
271 271 270 270 269 268 268 267 267 266 266 266 266 265 266 266 266 266 265 265 266 266 266 266 266 266 267 267 269 270 271 271 271 271 271 271 271 271 272 272 272 273
270 269 268 268 267 266 266 265 265 264 264 264 264 264 264 264 264 264 264 264 264 264 264 264 265 265 267 270 273 271 271 271 271 271 271 271 271 271 271 271 271 271
268 267 266 266 265 265 263 263 264 263 262 262 262 262 262 263 263 263 263 263 263 263 263 263 264 264 268 272 273 274 272 271 271 271 271 271 270 270 269 270 270 271
266 265 264 264 263 262 262 261 261 260 260 261 261 261 262 261 262 262 262 262 262 262 262 262 263 266 269 271 272 273 274 272 271 270 270 270 270 270 269 269 269 269
264 263 262 261 261 261 260 260 259 260 260 260 260 260 260 261 261 261 261 262 261 261 261 262 262 265 269 271 272 273 274 273 270 270 269 269 269 269 268 268 268 268
263 261 261 261 260 260 260 259 259 259 259 259 260 260 260 260 259 260 260 260 260 260 260 261 261 264 269 271 272 273 273 273 270 270 269 269 268 268 267 267 267 267
262 261 260 260 259 259 258 258 259 258 259 259 259 260 259 259 259 258 259 259 259 259 259 259 260 266 269 270 271 272 273 273 269 268 268 267 267 267 267 267 268 268
261 260 259 259 260 258 258 259 259 258 258 259 258 259 258 259 259 258 258 258 259 258 258 258 260 266 268 269 270 272 273 269 268 267 267 267 267 267 267 267 268 268
261 260 259 258 258 258 257 257 259 258 258 258 257 258 258 258 257 258 258 258 258 258 258 258 258 263 267 269 270 271 270 267 267 267 267 266 266 267 267 268 268 268
261 259 258 257 256 256 257 258 257 257 257 257 257 257 257 257 257 257 257 257 257 257 258 257 258 262 267 268 270 270 270 267 267 267 266 266 267 267 268 268 268 270
259 258 258 257 256 257 256 256 256 257 257 257 257 256 257 257 257 257 257 257 257 257 259 259 258 260 265 267 269 270 269 268 268 267 266 266 267 267 267 267 268 269
258 257 257 256 257 256 255 256 256 256 256 257 256 256 256 256 256 256 256 256 257 257 257 258 258 258 260 267 269 270 271 269 268 267 266 266 267 267 266 267 268 268

ECMWFNIL_sfc_thetae_057.txt.gz
Theta_e
285 285 285 285 285 285 284 284 284 284 283 284 283 283 283 284 284 284 284 283 283 283 283 283 283 283 283 283 284 283 283 283 283 284 283 284 283 284 284 284 284 284
285 285 285 285 284 284 284 284 284 283 283 283 283 283 283 283 283 283 283 282 283 282 283 282 282 282 282 282 282 282 282 282 282 283 282 283 283 283 283 283 283 284
284 284 284 283 283 283 283 283 283 283 282 282 282 282 282 283 282 282 282 282 281 281 281 281 281 281 281 281 281 281 281 281 281 282 282 282 282 282 282 282 282 283
283 283 283 283 283 282 283 282 282 282 282 281 281 281 281 281 281 280 280 280 280 280 280 280 280 280 280 280 280 280 280 280 280 281 280 281 281 281 281 282 282 282
283 282 282 282 282 282 281 281 280 280 280 280 280 280 279 279 279 279 279 279 279 279 279 279 279 279 279 279 279 279 279 279 280 280 279 279 280 280 280 281 280 280
281 282 281 281 281 280 280 279 279 278 278 278 278 278 277 277 277 277 277 277 277 277 277 277 277 277 278 277 277 277 277 278 278 278 278 278 278 279 280 280 279 279
280 280 279 279 279 279 278 278 278 277 277 277 276 276 276 276 276 276 276 276 276 276 275 276 275 276 276 276 276 276 276 276 276 277 276 277 277 277 278 278 278 278
279 279 279 278 278 277 277 276 276 275 275 275 274 274 275 274 274 275 274 275 274 274 274 274 274 274 274 274 274 274 274 275 275 275 275 275 275 275 276 277 277 277
278 277 277 277 276 276 275 274 274 274 274 273 273 273 274 273 273 273 273 273 273 273 273 273 273 273 273 273 273 273 273 273 274 273 273 273 274 274 275 275 275 275
277 276 276 276 275 274 273 272 272 272 272 272 272 272 272 272 272 272 272 272 271 272 272 271 271 271 271 272 272 272 272 272 272 272 273 273 273 273 274 274 274 274
275 275 274 274 273 272 272 271 271 271 271 271 271 271 271 271 271 271 271 271 270 270 270 270 270 270 270 270 271 271 271 271 272 272 272 273 273 273 273 273 273 273
274 274 273 272 272 271 271 270 270 270 270 270 270 269 270 269 269 269 269 269 269 269 269 269 269 269 269 269 270 270 271 271 272 272 272 272 272 273 273 273 273 273
273 273 272 271 271 270 270 269 269 269 268 268 268 268 268 268 268 268 268 268 268 268 268 268 268 268 268 268 269 270 271 271 272 272 272 272 272 272 273 273 273 273
272 271 271 270 270 269 268 268 268 267 267 267 267 266 266 266 266 266 267 267 267 267 267 267 267 267 267 268 269 270 271 272 272 272 272 272 272 272 272 272 272 272
271 270 270 269 268 267 267 266 266 266 266 266 265 265 265 266 266 266 265 265 266 266 266 266 266 266 266 268 270 271 272 272 272 271 271 271 271 272 272 272 272 272
269 269 268 268 267 266 265 265 265 265 265 264 264 264 264 265 265 265 265 264 264 265 265 265 265 265 266 271 273 272 272 272 272 271 272 271 271 271 271 271 271 271
268 267 267 266 265 265 264 264 264 263 263 263 263 263 263 263 264 264 264 264 264 264 263 264 264 264 269 272 273 274 273 272 271 271 271 271 270 270 269 270 270 271
267 266 265 265 264 264 263 263 262 262 262 262 262 262 262 263 263 263 263 263 263 263 263 263 263 266 269 271 272 273 274 272 272 271 270 270 270 270 270 269 269 269
265 265 264 263 263 262 262 262 261 261 261 261 261 262 262 262 262 262 262 262 262 262 262 262 262 265 268 271 272 273 274 273 271 271 270 270 270 269 269 268 268 268
264 263 263 263 262 262 262 261 261 261 261 261 261 261 261 261 261 261 261 261 261 261 261 261 262 264 269 271 272 272 273 273 271 271 270 269 269 268 268 268 268 267
264 263 262 262 262 261 261 261 260 260 260 261 260 261 260 260 260 259 260 260 260 260 260 260 261 266 269 270 271 272 273 273 270 269 268 268 268 268 268 268 268 268
262 262 261 261 261 260 259 260 260 260 259 260 260 260 260 260 260 260 259 259 259 259 259 259 260 265 267 269 271 272 273 270 269 268 267 267 268 268 268 268 268 268
263 261 261 260 260 259 259 259 260 259 259 259 258 259 259 259 258 259 259 259 258 258 258 259 259 262 267 269 270 271 271 268 268 268 267 267 267 268 269 269 269 269
263 261 260 259 259 258 258 260 259 259 258 258 258 258 258 258 258 258 258 258 258 258 258 258 259 262 266 268 270 271 270 268 268 267 267 267 268 269 269 269 269 270
261 260 260 259 258 259 258 257 258 257 258 258 258 257 257 258 257 257 257 257 258 258 259 259 259 260 265 267 269 270 270 268 268 268 267 267 268 268 269 269 269 271
260 259 259 258 258 257 257 257 257 256 257 257 257 257 257 257 257 257 256 256 257 257 257 258 258 259 261 267 269 270 271 269 269 268 267 267 268 268 268 269 269 270

ECMWFNIL_sfc_thetae_063.txt.gz
Theta_e
292 292 291 291 290 290 289 289 289 288 288 288 287 286 286 286 287 287 287 287 286 286 286 286 286 286 286 286 286 286 286 286 286 286 286 286 286 286 286 285 286 286
291 291 290 290 290 290 289 289 288 287 287 287 287 286 286 286 286 286 286 286 286 285 285 285 285 285 284 284 285 285 284 285 284 286 284 285 285 285 284 285 285 285
291 291 290 289 288 288 288 288 288 287 286 286 286 286 286 286 285 285 285 285 284 284 284 284 284 284 284 283 284 284 283 284 284 284 283 284 284 284 284 284 284 284
290 290 289 289 289 288 288 287 287 286 286 285 285 285 285 285 284 284 284 284 283 283 283 283 283 283 282 282 283 283 283 283 283 283 282 283 283 283 283 283 283 283
289 289 288 288 288 288 287 286 286 285 285 284 284 284 284 283 283 282 282 282 282 282 282 282 282 281 281 281 282 281 281 282 282 281 281 281 282 282 282 282 281 281
288 288 288 287 287 286 285 285 285 284 284 283 283 283 282 282 282 281 281 281 281 281 281 281 280 280 280 280 280 280 280 280 280 280 279 279 280 281 281 281 280 280
287 287 286 286 285 285 284 283 283 283 282 282 282 281 281 281 281 280 280 280 280 280 279 279 279 279 279 279 279 279 279 279 279 279 278 278 279 279 280 280 279 279
286 285 285 284 283 283 283 282 282 281 281 281 280 280 280 280 280 280 279 279 279 279 279 278 278 278 278 278 277 277 277 279 278 277 277 277 278 277 278 279 278 278
285 284 284 283 282 282 281 281 280 280 281 280 280 279 279 279 278 279 278 278 278 278 278 277 277 277 277 277 276 276 276 276 277 276 276 276 276 277 277 277 277 277
284 283 283 282 281 280 280 280 280 279 280 279 279 279 278 278 278 277 277 277 277 277 277 276 276 276 276 276 276 275 275 275 276 276 276 276 276 276 276 276 276 276
283 282 281 280 280 279 278 278 278 278 278 278 278 278 278 277 277 277 276 276 276 275 275 275 275 275 275 275 275 275 275 275 275 276 276 276 276 276 276 276 276 275
282 281 280 279 279 278 278 278 278 277 277 277 277 277 276 276 275 275 275 275 275 275 274 274 274 274 274 274 274 274 274 275 276 276 276 276 276 276 276 276 275 275
281 281 280 279 278 278 278 277 277 276 276 275 275 275 275 275 275 274 275 274 274 274 273 274 273 273 273 273 273 274 275 275 275 275 275 275 275 275 275 276 275 275
281 280 279 278 278 277 277 276 275 275 275 274 274 274 274 274 273 273 274 274 273 273 273 273 273 273 273 273 273 274 274 275 275 274 274 275 275 275 275 275 275 275
280 279 278 277 276 276 275 275 274 274 274 274 273 273 273 273 273 273 272 272 273 272 272 272 272 272 272 272 272 273 274 274 274 274 274 274 274 274 275 275 275 275
278 277 277 276 276 275 275 274 274 273 273 272 272 272 272 272 272 272 272 272 272 272 272 272 272 272 272 272 274 274 274 274 274 274 274 274 273 273 273 274 274 274
277 277 276 275 275 274 274 273 273 272 272 272 271 271 271 270 271 271 271 271 271 271 271 271 272 272 272 273 275 275 275 274 274 274 274 274 273 273 272 273 273 274
277 276 275 275 274 273 272 272 272 271 271 270 270 270 270 270 270 270 270 270 270 270 270 270 271 272 273 273 274 275 275 274 274 273 273 273 273 273 273 273 272 272
277 276 275 274 273 272 271 270 270 270 270 269 269 270 270 269 270 270 269 270 269 269 269 270 270 272 272 273 274 275 275 275 273 273 273 272 273 273 272 272 272 271
276 275 274 273 272 271 270 270 269 269 270 270 269 269 269 269 269 268 269 268 268 268 268 269 269 271 272 273 274 274 275 275 273 273 273 272 272 272 271 271 271 270
275 274 273 272 271 270 270 269 269 270 269 269 269 269 269 268 268 268 268 267 266 267 267 267 268 270 272 273 273 274 274 275 273 272 272 271 271 271 271 271 271 271
274 274 272 271 270 269 269 269 269 269 268 269 268 269 269 268 268 268 266 266 266 265 265 265 267 270 271 272 272 273 274 272 271 271 270 270 270 271 271 271 271 271
274 273 271 270 270 269 268 269 269 268 268 268 267 268 268 267 267 266 266 266 265 264 264 264 265 268 270 271 272 273 272 270 270 270 270 270 270 270 271 271 271 271
274 272 271 270 269 269 268 269 269 268 267 267 267 267 267 266 266 265 265 265 264 264 264 263 264 266 269 270 271 272 272 270 270 269 269 269 269 270 271 271 271 272
273 272 271 270 269 269 269 269 268 267 267 266 266 266 266 266 265 265 264 264 264 264 265 264 263 265 268 269 270 271 271 270 270 269 269 269 269 270 271 271 271 272
272 270 270 269 269 268 267 267 267 266 265 265 265 266 265 266 265 264 263 263 264 263 262 263 263 263 265 269 270 271 272 271 270 269 268 269 269 269 269 270 271 272

ECMWFNIL_sfc_thetae_066.txt.gz
Theta_e
288 288 287 287 286 286 286 285 285 284 283 283 282 282 282 283 283 282 282 282 282 282 282 281 281 281 282 281 281 281 281 280 280 281 280 280 279 279 281 279 279 279
287 287 287 286 286 286 285 285 284 283 283 283 282 282 283 282 282 281 281 281 281 281 281 281 280 279 279 279 279 279 279 278 279 282 279 278 278 278 278 278 278 279
287 287 286 285 285 284 284 284 283 283 282 282 283 282 283 282 281 280 281 280 280 280 280 279 278 278 278 277 277 277 278 277 278 278 278 277 278 278 278 277 278 277
286 286 285 285 285 284 284 283 282 282 282 281 281 282 282 282 280 280 279 280 278 278 278 277 277 277 276 276 277 277 277 277 277 277 277 277 278 277 277 277 277 277
285 285 285 284 284 284 283 282 282 281 281 280 280 280 280 279 278 278 278 277 277 276 276 276 276 276 276 276 276 276 277 277 276 276 276 275 276 277 277 277 276 276
284 284 284 283 283 282 282 281 281 280 280 279 279 279 278 278 277 277 276 276 276 276 275 275 275 275 275 275 275 275 275 276 276 275 275 274 275 276 277 277 275 275
283 283 282 282 282 281 280 280 279 279 278 278 278 277 277 277 277 276 276 275 275 276 275 275 274 274 275 274 274 274 274 274 274 274 274 274 274 274 275 275 275 274
281 281 281 280 279 279 278 278 277 278 277 277 276 277 276 276 276 276 275 275 275 275 275 274 274 274 274 273 273 273 272 276 275 273 273 273 273 273 274 276 274 273
280 280 279 279 278 278 277 277 276 277 277 276 276 276 276 275 275 275 275 275 274 275 274 274 274 273 273 273 273 272 272 272 273 272 272 272 272 273 273 273 273 273
280 279 278 277 277 276 276 276 276 276 277 276 276 275 275 275 274 274 274 274 274 273 273 273 273 272 272 272 272 272 271 272 271 272 272 272 273 272 273 273 273 272
279 278 277 276 276 275 275 275 275 275 275 275 275 275 274 274 274 274 273 273 274 273 273 272 272 272 272 271 271 271 271 271 271 272 272 272 272 273 275 273 272 272
278 277 276 275 275 275 275 275 275 274 274 274 274 273 273 273 272 272 272 271 272 272 271 271 271 271 271 271 271 271 271 271 272 272 273 272 272 273 272 272 272 272
277 276 276 275 275 275 274 274 275 274 273 272 272 272 272 271 271 271 272 271 271 271 271 271 271 271 271 271 270 271 272 272 272 272 272 272 272 273 273 273 273 273
276 276 276 276 275 274 274 274 274 273 272 272 272 271 271 271 271 271 271 271 271 271 271 271 270 270 270 270 271 271 271 272 272 272 272 272 272 273 273 273 273 272
277 277 276 276 275 275 274 273 273 272 272 271 271 271 272 270 271 270 270 270 270 270 270 271 270 270 271 269 269 271 273 273 273 273 273 272 272 272 272 272 272 272
277 276 275 275 275 274 274 274 273 272 272 272 271 269 269 269 269 270 270 270 269 269 270 270 270 271 272 274 274 273 273 274 273 273 273 273 272 271 271 272 272 272
277 276 275 275 275 275 274 273 273 272 271 270 269 268 268 268 269 269 268 269 269 268 268 269 270 270 274 275 275 276 275 274 273 273 273 273 272 271 270 270 271 272
276 276 275 275 274 274 273 272 272 270 269 267 266 266 267 266 267 268 268 268 268 268 268 268 269 273 274 275 275 276 276 275 274 273 273 272 272 272 271 271 270 270
277 276 275 274 274 273 272 271 270 270 268 267 266 266 266 266 268 268 267 267 267 267 266 267 268 272 274 275 275 275 276 275 274 273 272 272 272 272 272 271 270 269
276 276 275 274 273 272 271 270 269 268 267 266 266 267 267 266 266 266 266 265 266 266 265 266 266 270 273 274 275 275 276 275 273 273 272 272 272 272 271 270 269 268
276 275 274 273 272 271 270 269 268 268 268 267 267 267 266 266 265 264 264 264 263 264 263 264 266 271 273 274 275 275 275 275 273 272 271 271 271 271 270 269 269 269
276 275 274 272 271 270 269 268 268 268 267 267 266 266 265 265 264 264 264 264 264 262 263 262 264 271 273 274 274 274 275 273 271 270 270 270 270 270 270 270 270 270
276 275 273 271 270 269 268 268 268 266 266 266 265 267 266 265 264 263 263 263 262 261 261 262 263 267 271 272 273 274 274 270 270 269 269 269 270 270 270 271 271 270
276 275 273 270 269 269 268 268 267 266 266 266 265 265 265 264 263 262 262 262 262 261 262 260 261 265 270 272 273 274 273 271 270 269 269 269 269 270 271 271 271 272
275 273 271 270 269 269 268 268 267 266 266 265 264 264 264 263 263 262 261 261 261 261 265 263 261 264 269 271 272 273 272 270 269 269 268 268 269 269 270 270 271 272
273 272 271 271 270 268 267 267 266 265 264 264 263 263 263 262 262 262 261 261 261 260 261 261 261 261 263 269 271 272 273 271 270 269 268 268 269 269 269 270 271 271

ECMWFNIL_sfc_thetae_069.txt.gz
Theta_e
287 286 286 285 285 285 284 283 283 282 282 282 281 281 281 281 281 281 280 280 280 279 279 279 279 279 279 278 278 279 279 278 278 278 277 277 277 277 278 276 276 276
286 286 285 285 284 284 283 283 282 282 281 281 281 281 281 280 280 280 280 279 279 279 278 278 278 277 277 277 277 277 277 276 276 278 276 276 276 276 276 276 276 276
285 285 284 284 283 283 282 282 282 282 281 281 281 281 281 280 280 279 279 278 278 277 277 277 276 276 276 276 276 276 276 276 275 275 276 275 276 276 275 276 276 276
284 284 284 283 283 282 282 282 281 281 281 280 280 280 280 280 279 278 278 278 277 276 276 276 276 276 275 275 275 276 275 275 275 275 275 275 275 275 275 276 276 275
283 283 283 283 282 282 282 281 280 280 280 279 279 279 279 278 277 277 277 276 276 276 275 275 275 275 275 275 275 275 275 275 275 275 274 274 274 275 276 276 274 274
283 283 283 282 282 281 280 280 280 279 279 278 278 278 277 277 276 276 276 275 275 275 275 275 275 275 275 274 274 274 274 275 274 274 273 273 273 274 276 275 274 273
282 282 281 281 280 280 280 279 279 278 278 277 277 277 276 276 276 276 275 275 275 275 274 274 274 274 274 274 274 273 273 273 273 273 272 273 273 273 273 274 273 273
281 280 280 280 279 279 278 278 277 277 277 276 276 276 276 276 275 276 275 275 275 274 274 274 273 273 273 273 273 272 272 274 273 272 272 272 273 272 272 274 273 272
280 279 279 278 278 277 277 277 277 276 276 276 275 275 275 275 275 275 275 274 274 274 273 273 273 273 272 272 272 271 271 271 272 271 272 272 272 272 272 272 272 272
279 279 278 278 277 277 276 276 276 276 276 275 275 276 275 275 274 274 274 274 273 273 272 272 272 272 271 271 272 270 271 271 271 271 271 272 272 272 272 272 272 271
278 278 277 276 276 276 276 275 275 275 276 275 276 275 274 274 274 273 273 273 273 272 272 271 271 271 271 271 270 270 270 271 271 272 272 272 272 272 274 271 271 271
277 277 276 276 275 275 275 275 275 275 275 276 275 275 273 273 273 273 272 272 272 271 271 271 270 270 270 270 270 270 271 272 272 272 272 272 272 272 272 272 271 271
277 277 277 276 275 275 275 275 275 274 274 274 274 273 273 272 272 272 271 271 271 271 271 270 270 270 270 269 269 271 271 272 271 271 272 271 272 272 272 272 272 271
278 277 276 276 275 275 275 275 275 274 274 273 273 272 271 272 272 272 271 271 270 270 270 269 269 269 269 269 270 270 270 271 271 271 271 271 271 271 272 271 272 271
277 276 276 276 275 275 275 275 274 274 273 273 273 272 273 273 272 272 270 270 269 269 269 269 269 269 269 269 268 270 271 271 272 272 272 271 271 270 270 270 270 270
277 276 276 275 275 275 275 274 274 273 273 273 273 273 272 271 269 269 269 269 269 268 268 269 269 269 272 275 275 270 272 273 273 273 272 272 272 271 270 270 269 270
276 276 276 275 275 275 275 274 274 273 273 273 271 270 269 269 269 269 268 269 268 268 268 268 269 269 274 276 277 277 275 273 272 272 273 272 272 271 271 270 269 269
276 276 275 275 275 274 274 274 273 273 272 271 270 270 270 268 268 268 268 268 268 267 267 267 268 273 275 276 277 277 277 274 274 273 272 272 272 271 271 271 270 269
276 275 275 275 275 275 274 273 272 272 271 270 270 270 267 267 269 269 269 267 267 267 266 266 267 272 275 277 277 277 277 276 274 273 272 272 272 272 272 271 271 269
277 276 276 275 275 274 273 272 272 271 271 271 270 269 268 268 268 268 267 265 266 266 265 265 266 271 274 276 277 277 277 276 274 273 272 272 272 272 271 270 268 268
277 276 275 275 274 273 273 272 272 271 271 270 269 269 268 268 268 266 265 264 264 264 263 264 265 271 273 275 276 277 277 276 274 273 272 271 271 271 270 269 268 268
276 276 275 274 274 273 272 273 272 271 270 270 269 268 268 266 264 264 265 264 264 263 262 262 264 271 273 275 276 276 277 274 272 271 270 270 269 270 270 270 270 269
276 276 275 274 273 272 272 271 271 270 270 269 268 269 268 266 265 264 264 264 263 263 262 262 262 267 272 274 275 276 275 272 271 269 269 268 269 270 270 270 270 271
276 276 275 274 273 272 272 272 271 271 270 269 269 268 268 266 264 263 262 263 263 262 263 261 261 265 271 273 274 275 274 271 270 269 268 268 268 269 270 270 271 272
276 276 275 274 273 273 273 272 271 270 269 268 268 268 268 265 263 263 262 261 261 261 265 264 262 264 269 272 273 274 274 272 270 268 267 267 268 268 270 270 270 271
276 276 276 275 274 273 272 272 270 268 267 267 266 266 265 264 263 263 262 261 261 260 261 262 262 261 262 270 272 273 275 271 269 268 267 267 268 268 267 269 270 270

ECMWFNIL_sfc_thetae_072.txt.gz
Theta_e
284 283 283 283 282 283 282 281 281 281 280 280 280 280 280 280 280 279 279 279 279 278 278 278 278 278 279 278 277 277 277 277 277 276 276 277 276 276 277 276 276 276
283 284 284 283 283 282 282 282 281 281 280 280 280 280 280 280 279 279 278 278 278 277 277 277 277 277 277 277 276 276 275 276 276 278 276 276 276 275 275 275 275 275
284 283 283 282 282 281 281 281 281 280 280 280 280 279 279 279 278 278 278 277 277 276 276 276 276 276 276 276 276 275 275 275 275 275 275 275 275 275 275 275 275 275
283 283 283 282 282 281 281 280 280 280 280 280 279 280 280 279 278 278 277 278 276 276 276 276 275 275 275 275 275 275 275 275 274 274 274 275 275 275 275 275 275 274
283 282 282 281 281 281 281 280 280 280 279 279 279 279 279 278 277 277 276 276 276 275 275 275 275 275 275 275 275 274 275 274 274 274 274 273 274 275 275 274 274 273
282 282 282 281 281 281 280 280 279 279 279 278 278 278 277 277 276 276 276 275 275 275 275 274 274 274 274 274 274 274 274 273 273 273 273 273 273 274 275 274 273 273
281 281 281 281 280 280 280 279 279 279 278 278 277 277 277 276 276 276 275 275 275 275 274 274 274 273 274 273 273 273 273 273 272 273 272 273 273 273 273 273 273 272
281 280 280 280 279 279 279 279 278 278 277 277 277 276 276 276 275 275 275 275 274 274 274 273 273 273 273 272 272 272 272 273 272 272 272 272 272 272 272 273 272 272
280 280 280 279 279 278 278 278 277 277 277 277 276 276 276 276 276 275 275 274 274 273 273 273 273 272 272 272 272 271 271 271 272 271 272 271 271 271 271 272 271 271
280 279 279 278 278 278 277 277 277 276 276 276 276 276 275 276 276 276 275 274 273 273 272 272 272 272 272 272 271 271 271 271 271 271 271 271 271 271 271 271 271 271
279 279 278 278 277 277 277 277 276 276 276 275 275 275 276 276 276 275 274 274 274 273 272 272 272 271 271 271 271 271 271 271 271 271 271 271 271 271 274 271 271 271
278 278 278 277 277 277 277 277 276 276 275 275 276 275 275 276 275 274 274 274 273 272 272 271 271 271 271 270 270 271 271 272 271 271 271 271 271 271 271 271 271 271
278 278 278 278 278 277 277 277 276 276 276 276 276 275 275 275 274 274 274 273 273 272 271 271 270 270 269 269 270 270 271 271 270 270 270 270 271 270 271 271 271 271
278 278 278 278 278 277 277 277 277 276 276 275 275 275 275 274 274 274 273 273 272 272 271 270 270 269 269 270 270 270 270 270 270 269 269 270 270 270 270 270 270 270
278 278 278 278 277 277 277 277 277 276 276 275 275 274 275 274 274 274 272 272 271 270 269 270 270 270 269 270 270 270 270 271 270 270 270 269 270 269 269 269 269 269
278 278 277 277 277 276 277 276 276 275 274 274 274 274 274 274 273 273 272 272 271 271 270 270 270 270 273 275 274 271 270 271 272 271 271 271 271 271 270 270 269 269
278 277 277 277 277 277 276 276 275 274 274 274 274 274 273 272 272 272 271 271 271 270 270 270 270 270 275 277 277 276 273 272 272 271 272 272 271 271 270 271 270 269
278 277 277 277 277 276 276 275 275 274 273 274 273 273 273 272 272 272 271 271 271 270 270 270 270 274 277 278 279 279 277 273 273 272 272 272 271 271 271 271 270 270
277 277 277 277 276 276 275 275 274 274 273 273 272 273 272 271 272 272 271 271 270 270 269 269 268 275 277 278 279 279 280 277 274 273 272 271 271 271 271 270 269 269
277 277 277 276 276 276 275 274 274 274 273 273 272 272 272 272 271 271 271 270 270 269 269 268 268 274 277 278 279 279 280 278 274 273 272 271 271 271 271 271 269 267
277 277 277 276 276 275 275 274 274 273 273 272 272 272 271 271 271 270 270 270 269 268 267 267 268 274 277 277 278 279 279 278 274 273 272 271 271 271 270 268 268 268
277 277 277 276 275 275 274 274 273 273 272 272 272 272 271 271 270 270 270 269 269 268 267 266 266 274 276 277 278 279 279 276 274 273 271 270 270 270 268 268 268 268
278 277 277 276 275 275 274 273 273 273 273 272 271 272 271 270 270 270 269 269 268 267 267 267 265 271 276 277 277 279 278 273 273 271 270 268 268 268 268 268 269 269
278 277 277 276 275 274 274 274 273 273 273 272 272 271 271 270 270 269 268 268 267 266 266 265 264 268 275 276 277 278 276 272 271 269 268 267 267 269 269 269 269 272
278 277 277 276 275 274 274 273 273 273 273 272 272 272 271 270 269 268 267 266 266 265 267 266 263 266 274 275 276 277 276 272 271 268 267 267 267 267 268 268 268 270
278 277 277 275 275 274 273 273 273 272 272 271 271 271 270 269 268 268 267 265 264 263 265 266 263 261 265 275 276 277 277 272 270 268 267 267 267 267 266 267 268 268

ECMWFNIL_sfc_thetae_075.txt.gz
Theta_e
283 283 282 282 282 282 281 281 281 280 280 280 280 279 279 279 279 279 279 279 279 279 279 278 278 278 278 277 277 277 277 277 277 276 276 276 276 276 276 275 275 275
282 282 283 282 282 282 281 281 281 280 280 279 279 279 279 279 279 279 279 278 278 278 277 277 277 277 277 277 276 277 276 276 276 277 276 275 275 275 275 275 274 275
282 282 282 281 281 281 281 280 280 280 280 279 279 279 279 279 278 278 278 278 277 277 277 277 276 276 276 276 276 276 275 275 275 275 275 275 275 275 274 274 274 274
282 282 282 281 281 281 281 280 279 279 279 279 279 279 279 279 278 278 278 278 277 276 276 276 276 276 275 275 275 275 275 275 275 275 275 275 275 274 274 274 274 274
282 282 281 281 281 281 281 280 279 279 279 279 279 279 278 278 277 277 277 276 276 276 276 275 275 275 275 275 275 274 274 274 274 274 274 274 274 274 274 274 273 273
281 281 281 281 281 280 280 280 279 279 279 279 278 278 277 277 277 276 276 276 275 275 275 275 275 275 275 274 274 274 274 274 274 274 273 273 273 274 274 273 273 273
281 281 280 280 280 280 280 280 279 280 279 279 278 277 277 277 276 276 276 276 275 275 275 275 274 274 274 274 273 273 273 273 273 273 273 272 273 273 273 273 273 272
281 280 280 280 280 280 279 279 279 279 278 278 277 277 277 276 276 276 276 275 275 275 275 275 275 274 273 273 273 273 272 273 273 272 272 272 272 272 272 273 272 271
280 280 280 279 279 279 279 279 278 278 278 277 277 276 276 276 276 275 275 275 274 274 274 274 273 273 272 272 272 272 272 272 272 272 272 271 271 271 271 271 271 271
280 280 279 279 279 278 278 278 277 277 277 277 276 276 276 275 275 275 275 274 274 273 273 273 272 272 272 272 272 272 272 272 272 272 271 271 271 271 271 270 270 270
279 279 279 279 278 278 278 277 277 277 276 276 276 276 276 276 276 275 275 274 274 273 273 272 272 272 272 272 272 272 272 272 272 271 271 271 271 271 273 270 270 269
279 279 279 279 278 278 277 277 276 276 276 277 277 276 276 276 276 275 275 275 274 273 273 272 272 272 272 272 271 272 272 272 271 271 271 271 270 270 270 270 269 269
279 279 279 278 278 277 277 277 276 276 276 276 277 276 276 276 275 274 274 274 274 273 272 272 272 271 271 272 272 272 272 272 271 271 271 271 270 270 269 269 269 269
280 279 279 278 278 277 277 277 277 276 276 277 277 276 276 276 275 275 274 274 274 273 272 271 271 271 272 272 272 271 271 271 271 271 271 270 270 269 269 269 269 269
280 279 279 278 277 277 277 277 277 277 277 276 276 276 276 276 276 275 274 273 273 273 272 272 272 271 272 272 271 271 272 271 271 270 270 270 269 269 269 268 268 268
280 279 278 278 277 277 277 277 277 277 276 276 276 276 275 275 275 274 274 273 272 272 272 271 271 271 273 276 275 272 272 271 271 270 270 270 269 269 269 269 268 268
279 279 279 278 278 278 278 277 277 276 276 276 276 275 274 274 274 274 273 272 272 271 271 271 271 271 276 279 278 277 272 271 271 270 270 270 270 270 269 270 269 269
279 279 278 278 278 278 278 277 277 276 275 275 275 274 274 274 273 273 273 272 272 272 272 271 271 274 279 280 280 279 276 273 271 270 271 271 271 270 270 270 270 269
279 279 278 278 278 278 277 277 276 276 275 275 274 274 273 273 274 273 272 272 272 272 271 272 271 277 281 281 281 280 278 274 271 271 271 271 271 271 270 270 270 269
279 279 278 278 278 277 277 276 275 275 275 275 274 274 273 273 273 273 273 272 272 272 271 271 270 276 281 282 282 281 281 277 273 272 272 271 271 271 271 271 270 269
279 278 278 278 277 277 276 276 275 275 275 275 274 274 273 273 273 273 272 272 272 272 271 271 270 277 281 282 282 282 282 280 274 274 272 272 271 271 271 271 270 268
279 278 278 277 277 276 276 276 275 275 275 274 274 274 274 274 273 273 272 272 272 271 271 270 270 278 281 282 282 282 283 278 274 274 272 272 271 271 271 270 268 268
279 278 278 277 277 276 276 276 275 275 275 274 274 274 273 273 273 272 272 272 271 271 270 271 270 276 280 281 282 282 281 275 274 273 272 271 270 270 269 269 268 268
279 278 278 277 276 276 276 276 276 276 275 275 274 274 273 273 273 272 272 272 271 270 271 271 270 273 280 281 281 282 280 273 273 272 272 270 269 269 268 268 268 271
279 278 278 277 277 277 277 276 276 276 276 274 274 275 274 273 272 272 271 271 270 270 272 271 270 272 279 280 281 281 279 273 273 271 270 269 268 267 268 267 267 270
279 279 278 278 277 277 277 277 277 276 275 274 274 274 273 272 271 271 270 270 269 268 269 270 269 268 273 280 280 281 281 274 273 270 269 268 267 266 265 265 266 266

ECMWFNIL_sfc_thetae_078.txt.gz
Theta_e
285 284 283 283 282 282 282 281 281 280 280 280 280 280 280 279 279 279 279 279 279 279 279 279 279 279 279 278 278 278 278 277 277 277 277 277 276 276 276 275 275 275
284 284 283 282 282 282 281 281 281 281 280 280 280 280 279 279 279 279 279 279 279 279 278 278 278 278 278 278 278 277 277 277 276 278 276 276 276 276 275 275 275 275
283 283 282 281 281 281 281 280 280 280 280 279 279 279 279 279 279 279 279 279 278 278 278 278 278 278 278 278 278 277 277 276 276 276 276 275 275 275 274 274 274 274
282 282 282 281 281 281 280 280 279 279 279 279 279 279 279 279 279 278 278 279 278 277 277 278 278 277 277 277 277 276 276 276 276 276 275 275 275 275 274 274 274 274
282 281 281 281 280 280 280 280 279 279 279 279 279 279 279 279 278 278 278 277 278 277 277 277 277 276 276 276 276 275 275 275 275 275 275 274 274 274 274 274 273 273
281 281 281 280 280 280 280 280 279 279 279 279 279 279 278 278 277 277 277 277 277 277 276 276 276 275 275 275 275 275 275 275 274 275 274 274 274 274 274 274 273 273
280 280 280 280 280 280 280 279 279 279 279 278 278 278 278 277 277 277 277 277 276 276 275 275 275 275 275 275 275 274 274 274 274 274 274 273 274 273 273 273 273 273
280 280 280 280 279 279 279 279 279 278 278 278 278 277 277 277 277 276 276 276 276 276 275 275 275 275 274 274 274 274 273 274 273 273 273 273 273 273 273 273 273 272
280 280 280 279 279 279 278 278 278 278 278 277 277 276 276 276 276 276 276 276 275 275 275 274 274 274 274 274 274 274 273 273 273 273 273 272 272 272 272 272 271 271
280 279 279 279 279 278 278 278 278 277 277 277 276 276 276 276 276 276 276 275 275 274 274 274 273 273 273 274 274 274 273 273 272 273 272 272 272 272 271 271 271 271
279 279 279 279 278 278 278 277 277 277 277 276 276 276 276 276 276 276 275 275 275 274 274 274 273 273 273 273 273 273 273 273 272 272 272 272 272 272 273 271 271 271
279 279 279 278 278 278 277 277 277 277 276 276 276 276 275 276 276 276 276 275 275 275 274 274 274 273 273 272 272 273 273 273 272 272 272 272 272 271 271 271 271 270
279 279 279 279 278 278 278 277 277 277 277 276 276 276 275 275 276 276 276 275 275 274 274 274 274 273 273 273 273 274 273 272 272 272 272 271 271 271 271 271 270 270
279 279 279 279 279 278 278 277 277 277 277 276 276 276 276 276 276 276 275 275 274 274 274 274 273 273 273 274 274 274 273 273 273 272 272 271 270 270 270 270 270 270
280 279 279 279 278 278 277 277 277 277 277 277 277 277 277 276 276 276 275 274 274 274 273 273 273 273 274 274 274 274 274 273 273 272 271 271 270 270 270 270 269 270
281 280 279 278 278 278 278 278 277 277 277 277 277 277 276 276 275 275 275 274 273 273 273 273 273 273 275 277 276 274 274 273 273 272 271 271 270 270 269 269 269 269
280 279 279 278 278 278 278 278 277 277 277 277 276 276 275 275 275 274 274 274 273 273 272 272 272 273 277 279 279 278 274 273 272 271 271 271 271 270 269 269 269 269
280 280 279 279 278 278 278 278 277 277 276 276 275 275 275 275 274 274 274 274 273 273 273 272 272 275 279 280 281 280 277 273 272 271 271 271 271 270 270 269 269 269
280 279 279 279 278 278 278 277 277 277 276 275 275 275 275 274 275 274 273 273 273 273 272 273 272 277 280 282 281 281 279 275 273 272 271 271 272 271 269 269 269 269
280 279 279 279 278 278 277 277 276 276 276 276 275 275 275 275 274 274 274 273 273 273 273 273 272 277 281 282 282 282 281 277 272 272 272 272 272 271 270 269 270 269
280 280 279 279 278 278 277 277 276 276 276 276 275 275 274 274 274 274 274 273 273 273 273 272 272 277 281 283 283 283 282 278 273 273 272 272 271 271 270 270 270 270
280 280 279 278 278 277 277 277 276 276 276 275 275 275 275 275 275 274 274 273 273 273 273 272 272 278 281 283 284 284 283 276 274 273 273 272 271 271 271 271 270 270
281 280 279 278 278 277 277 277 276 276 276 276 275 275 275 274 274 274 274 274 273 273 273 273 273 277 280 283 284 285 283 277 275 274 273 272 271 272 272 271 271 270
280 280 279 278 278 277 277 277 277 277 276 276 275 275 275 275 275 274 274 274 273 273 273 273 273 275 279 282 284 285 284 277 275 274 273 272 271 272 271 271 270 271
280 280 279 278 278 278 278 277 277 277 277 276 276 276 276 275 275 274 274 274 274 274 275 274 273 274 278 281 283 284 283 278 276 274 273 272 271 270 270 269 268 270
280 280 279 279 278 278 278 278 278 277 277 276 276 276 276 275 275 274 274 274 274 273 273 273 272 271 274 280 282 284 284 277 275 273 273 273 271 269 268 268 268 267

ECMWFNIL_sfc_thetae_081.txt.gz
Theta_e
290 289 288 288 288 287 286 286 285 285 285 284 284 284 284 284 283 283 283 283 283 283 283 283 283 283 283 283 283 283 283 282 281 282 282 281 281 281 280 280 281 281
288 288 288 287 287 287 286 286 285 285 284 284 284 284 283 283 283 283 283 283 283 283 283 282 283 283 282 282 282 282 281 281 281 281 281 281 280 280 280 280 279 279
288 287 286 286 286 285 285 285 285 285 284 284 283 283 283 283 282 282 282 283 282 282 282 282 282 282 282 282 282 282 281 281 280 280 280 280 280 279 279 279 279 279
287 287 286 286 286 285 285 284 284 283 283 283 283 283 283 282 282 282 282 282 282 281 281 281 281 281 281 281 281 281 280 280 280 280 279 279 279 279 278 279 278 278
286 286 286 285 285 284 284 284 283 283 283 283 282 282 282 282 281 281 281 281 281 280 280 280 280 280 280 280 280 279 279 279 279 279 279 278 278 278 278 278 277 276
286 286 285 284 284 283 283 283 283 283 282 282 282 282 282 281 281 281 280 280 280 280 279 279 279 279 279 279 279 279 279 278 278 278 278 277 277 278 277 277 277 276
285 284 283 284 283 283 283 283 282 282 282 282 282 281 281 280 280 280 280 280 279 279 279 279 278 278 278 278 278 278 278 277 277 278 277 277 277 276 277 277 277 276
284 284 283 283 283 282 282 282 282 282 281 281 281 280 280 280 280 279 279 279 279 278 278 278 278 278 278 278 278 277 277 277 277 277 277 276 276 276 276 276 276 276
283 283 283 282 282 282 281 281 281 281 281 281 280 279 280 279 279 279 278 278 278 278 278 278 278 277 277 277 277 277 276 276 276 276 276 276 275 275 275 276 275 275
283 282 281 281 281 281 280 280 280 280 280 280 279 279 279 279 279 278 278 278 278 277 277 277 277 277 276 277 277 277 276 276 276 276 276 276 275 275 275 275 275 274
282 281 281 281 281 281 280 280 279 279 280 279 279 278 278 278 278 278 278 278 277 277 277 276 276 276 276 276 276 276 276 276 275 275 275 275 275 275 275 275 275 275
282 281 281 280 280 280 280 279 279 279 279 279 279 278 278 278 277 278 278 277 277 277 277 276 276 276 276 276 276 276 275 275 275 275 275 274 275 275 275 275 275 275
281 281 281 281 280 280 279 279 279 279 278 278 278 278 277 277 277 277 277 277 277 276 276 276 275 275 275 275 275 275 275 275 275 274 274 274 274 274 274 274 275 274
282 282 281 280 280 280 279 279 279 279 278 278 278 277 277 277 277 277 277 277 276 276 275 275 275 274 274 275 275 275 275 275 275 274 274 274 274 274 274 274 274 274
282 282 281 281 280 279 279 279 279 278 278 278 278 278 278 278 277 277 276 276 276 276 275 275 274 274 275 275 275 275 275 275 275 274 274 274 274 273 274 274 274 274
281 281 280 280 280 279 279 279 279 278 278 278 278 278 278 278 277 277 276 276 275 275 275 274 274 274 276 278 278 276 276 275 275 275 274 274 274 274 273 273 273 273
281 281 280 280 280 280 279 279 279 278 278 278 277 277 277 277 276 276 275 275 275 274 274 274 274 274 279 280 280 279 276 276 275 275 274 274 274 273 273 273 273 273
281 281 280 280 280 279 279 279 278 278 278 277 277 276 276 276 276 275 275 275 275 274 274 274 274 277 281 282 282 281 278 276 275 275 274 274 274 273 273 273 273 273
282 281 280 280 280 279 279 278 278 278 277 277 276 277 276 275 276 275 275 275 274 274 274 274 274 278 282 283 283 282 281 277 275 275 274 274 274 273 273 273 273 272
282 281 280 280 280 279 278 278 277 277 277 277 277 276 276 276 275 275 275 274 274 274 274 274 273 279 283 283 283 283 282 278 275 275 274 274 274 273 273 273 273 272
282 281 280 280 279 279 279 278 278 278 277 277 276 276 276 275 275 275 274 274 274 274 274 274 273 279 283 284 284 284 283 279 275 275 274 274 274 274 273 273 273 272
282 281 281 280 279 279 278 278 278 278 277 277 277 276 277 276 276 276 275 274 274 274 274 273 274 280 283 284 284 284 284 278 274 274 274 274 274 274 273 273 273 272
282 281 281 280 279 279 278 279 278 277 277 277 276 276 276 276 275 275 275 274 274 274 274 274 274 278 282 284 285 285 284 277 275 274 274 273 273 273 273 273 272 272
282 282 281 280 279 279 279 279 279 278 277 277 276 276 276 276 276 275 275 275 274 274 274 275 274 277 282 283 285 285 284 278 276 275 274 274 273 273 273 273 272 273
282 282 281 280 279 280 279 279 278 278 278 277 277 277 276 276 276 275 275 275 275 275 276 276 276 276 281 283 284 285 285 280 277 276 275 274 273 273 273 273 272 273
282 282 281 280 280 280 280 279 279 278 277 276 276 276 276 275 275 275 275 275 275 275 275 276 276 276 278 282 284 285 286 282 279 277 275 275 274 273 272 272 272 272

ECMWFNIL_sfc_thetae_084.txt.gz
Theta_e
296 295 294 295 297 295 294 292 292 292 292 292 291 292 291 292 291 291 292 292 292 292 292 292 292 292 292 292 292 292 292 291 290 291 291 291 290 290 290 290 290 289
295 294 295 296 298 296 293 293 292 292 292 292 293 292 292 291 290 291 291 291 291 291 290 290 290 290 290 290 291 290 289 289 288 290 289 289 288 289 288 288 288 287
294 293 294 294 295 295 294 292 291 291 292 292 293 292 291 290 290 290 290 290 289 289 289 289 289 289 289 289 290 289 288 288 287 288 288 287 287 287 287 287 287 287
293 293 293 293 292 293 292 291 289 290 291 291 291 291 290 290 289 289 289 288 288 288 288 288 288 288 288 288 288 288 287 287 286 287 286 286 286 286 286 286 285 285
292 292 292 292 291 290 289 289 288 289 289 290 290 289 288 288 288 288 288 287 287 287 287 287 287 287 287 287 287 286 285 285 285 286 285 284 284 284 284 284 283 282
291 291 291 290 290 289 288 288 288 288 289 289 288 288 288 288 288 287 287 286 286 286 286 286 286 286 286 286 286 285 285 284 284 284 283 283 282 282 281 282 281 281
290 290 289 288 287 287 287 287 287 288 288 288 288 287 288 287 287 287 286 286 286 285 285 285 285 284 285 285 285 284 284 283 283 283 282 281 281 280 281 281 281 281
290 290 289 288 287 286 287 287 287 287 288 287 287 287 287 287 287 286 286 285 285 285 284 284 284 284 284 284 284 283 282 282 282 282 281 281 280 280 280 281 281 280
290 288 288 287 286 286 286 286 286 286 286 286 286 286 287 286 286 285 285 285 285 284 284 284 284 283 284 284 283 282 282 281 281 282 281 280 280 280 280 281 280 280
288 287 285 285 285 285 285 285 285 285 285 285 286 286 285 285 285 285 285 284 284 283 283 283 283 283 283 283 283 282 282 281 281 281 281 281 281 280 280 280 279 279
287 286 284 284 284 284 284 284 284 284 285 284 285 285 285 284 284 284 284 284 283 283 283 282 282 282 282 282 282 282 282 282 281 281 281 280 280 279 279 279 279 279
286 285 284 284 284 284 283 283 284 284 284 284 284 284 284 284 283 283 283 283 283 283 283 282 282 282 282 282 282 282 281 281 280 279 279 278 278 278 278 278 278 279
285 285 284 284 284 284 284 284 284 284 284 283 284 284 283 283 283 283 283 283 283 283 282 282 282 282 282 281 281 281 280 279 278 278 277 277 277 277 278 278 278 278
286 286 285 285 285 285 284 284 284 284 283 283 284 283 283 283 283 282 283 283 282 282 282 282 281 281 280 280 280 279 279 278 277 277 276 276 277 277 277 277 277 278
287 287 286 286 284 283 283 283 283 283 283 283 283 283 283 283 283 282 282 282 282 281 281 281 280 279 279 279 278 278 278 277 277 277 276 276 276 276 277 277 277 277
286 286 286 285 283 282 282 283 283 282 282 282 282 283 282 282 282 282 282 281 280 280 280 280 279 279 279 280 280 278 278 277 277 277 277 276 276 276 276 276 277 277
285 285 284 283 283 282 283 282 282 282 282 282 282 282 281 281 281 280 280 279 279 279 279 279 278 278 281 282 282 281 278 277 277 277 277 277 277 276 276 276 277 277
285 285 284 283 283 282 283 282 282 282 281 281 281 281 281 281 280 280 280 279 279 279 278 277 276 280 283 283 283 282 280 278 278 277 277 277 277 277 277 277 276 276
285 285 284 283 283 283 283 282 281 280 280 280 280 281 280 280 280 279 278 278 278 277 276 276 276 281 284 284 284 283 282 279 278 278 277 277 277 277 277 277 277 276
285 284 284 283 283 283 282 282 280 280 280 280 280 280 279 279 279 278 278 278 277 277 276 276 276 282 284 284 284 283 283 280 278 278 277 277 277 277 277 277 277 276
285 284 284 283 282 282 282 281 280 280 280 280 280 279 279 278 278 278 278 277 277 277 277 276 276 283 285 285 284 284 283 281 278 278 278 277 278 277 277 277 277 277
285 284 284 283 282 282 282 281 280 280 280 280 280 280 280 280 279 279 277 277 277 277 277 276 276 283 285 285 285 285 284 279 278 277 277 277 277 277 277 277 277 276
285 284 284 283 283 282 281 280 280 280 280 280 279 279 279 279 278 278 278 277 277 277 276 276 276 282 285 285 285 285 284 278 278 277 277 277 276 277 277 276 276 276
285 285 283 283 282 281 281 281 281 281 280 280 279 278 278 278 279 278 277 277 277 276 277 276 276 281 285 285 285 286 283 279 278 277 277 277 276 277 277 276 276 276
285 285 284 283 282 282 281 281 281 281 281 280 280 279 279 279 278 278 278 278 277 277 278 277 276 280 285 285 285 286 284 280 278 277 276 276 276 276 276 276 276 276
285 284 284 283 283 282 282 282 281 281 280 279 279 279 278 278 278 278 276 276 277 276 277 277 276 279 283 285 286 286 286 283 280 278 277 277 277 276 276 276 276 275

ECMWFNIL_sfc_thetae_087.txt.gz
Theta_e
303 301 300 299 299 299 298 298 297 296 294 293 293 293 293 293 294 294 295 296 297 298 299 299 299 299 299 298 299 298 298 297 296 296 296 295 294 294 293 293 291 289
302 300 299 299 299 300 299 299 297 296 295 295 295 296 295 295 294 294 295 296 296 297 297 297 297 297 297 296 297 295 294 294 292 295 293 292 292 292 291 290 289 289
300 299 299 299 299 299 300 299 298 296 295 295 295 295 295 294 294 294 295 295 295 295 295 295 295 294 294 294 294 293 292 291 291 291 291 290 290 289 289 289 288 288
300 299 299 299 300 300 298 297 295 294 295 294 293 294 293 293 293 293 294 293 293 292 292 293 292 292 292 292 292 291 291 290 290 290 289 288 288 288 287 287 286 286
299 298 298 299 299 297 297 296 294 292 293 294 293 292 291 291 291 290 290 291 291 290 291 290 291 291 291 290 290 289 289 288 288 288 287 287 287 287 286 286 285 284
297 297 297 297 297 294 293 294 293 292 292 292 292 291 290 290 289 289 289 289 289 289 289 289 289 289 289 289 289 288 287 287 287 287 286 285 284 285 285 284 283 282
296 296 296 296 296 293 292 292 292 292 292 291 289 288 289 289 288 288 288 288 288 288 288 288 288 288 288 288 287 287 286 286 286 285 284 283 283 282 283 283 282 282
295 296 296 296 294 292 291 291 290 290 290 289 288 288 288 288 288 288 287 287 288 288 287 287 287 287 287 287 286 285 285 286 284 283 282 282 282 281 282 283 282 281
296 295 295 293 291 290 290 289 289 290 289 288 288 288 288 288 288 288 287 287 287 287 287 286 286 286 286 285 285 284 284 284 284 283 282 281 281 281 281 281 281 280
296 296 294 291 290 289 289 288 288 288 288 288 288 287 287 287 288 287 287 287 286 286 286 285 285 285 285 285 284 284 283 283 283 283 282 282 281 281 281 280 280 279
294 295 292 290 289 288 288 287 287 287 287 287 287 286 287 286 287 287 286 286 286 285 285 284 284 284 284 284 284 284 283 283 283 282 282 282 281 281 281 280 279 278
293 293 291 289 289 287 287 287 287 286 286 286 286 286 286 286 286 285 285 285 285 285 284 284 284 284 284 284 283 283 283 283 282 282 282 281 280 280 280 280 279 278
292 291 289 287 287 286 287 286 286 286 286 285 286 285 285 285 285 285 285 285 285 284 284 284 284 284 284 283 283 283 282 282 281 281 280 280 279 279 279 279 279 279
291 290 288 288 287 286 286 285 285 285 285 285 285 284 284 284 284 284 284 285 284 284 284 284 284 283 283 283 283 282 282 281 281 280 279 279 279 278 278 278 279 279
291 289 288 288 287 286 285 284 284 284 284 284 284 284 284 284 284 284 284 284 284 283 283 283 283 283 283 282 281 281 281 280 280 279 279 278 278 277 278 278 278 279
290 289 288 287 287 286 285 285 284 284 284 284 284 283 283 284 284 284 283 283 282 282 282 282 282 282 283 284 283 281 280 280 280 279 278 278 277 277 277 278 278 278
290 290 288 287 287 287 286 285 284 284 284 284 284 284 283 283 283 283 283 283 282 282 281 281 281 281 284 286 286 285 281 280 279 279 278 278 278 277 277 277 277 278
289 289 288 287 287 286 285 285 284 284 284 284 284 283 283 284 283 282 282 282 281 281 281 281 281 283 286 286 286 285 283 280 280 279 279 279 279 278 278 277 277 277
290 288 287 286 287 286 285 285 284 283 283 283 283 283 283 282 282 282 281 281 281 281 280 281 280 285 286 286 286 285 284 281 280 280 279 279 279 278 278 278 278 277
289 288 287 286 286 285 285 284 284 283 283 283 283 283 282 282 282 281 281 281 281 281 280 279 279 284 286 286 286 285 284 282 280 280 280 280 279 279 279 278 278 277
288 288 287 286 285 285 284 284 283 283 283 283 283 282 282 281 281 281 281 281 281 281 280 279 279 285 286 286 286 285 285 283 280 280 280 279 279 279 279 279 279 278
288 288 287 285 285 285 284 283 283 283 283 282 282 282 282 282 282 281 280 280 280 280 279 278 280 285 286 286 286 286 285 280 280 279 279 279 278 279 279 279 279 279
288 287 286 285 285 284 283 283 282 282 283 282 281 282 281 281 280 280 280 279 279 279 278 278 278 284 286 286 286 286 283 279 280 279 279 278 278 278 278 278 278 278
288 287 286 285 284 283 283 283 283 283 283 282 281 280 280 280 280 280 280 279 279 278 278 278 278 282 286 286 286 286 281 279 279 279 278 278 278 278 278 278 278 279
287 287 286 285 284 284 283 283 283 282 283 282 281 281 280 281 280 279 279 279 279 278 280 278 278 281 286 286 286 285 281 280 279 279 278 278 277 277 278 278 278 279
286 286 285 284 283 283 283 283 284 283 282 281 281 281 281 280 280 279 278 278 278 278 278 278 277 279 284 286 286 285 283 279 279 279 278 278 278 278 279 279 278 277

ECMWFNIL_sfc_thetae_090.txt.gz
Theta_e
306 305 304 303 303 303 299 298 298 298 296 295 295 295 294 295 296 296 297 298 299 300 300 300 301 301 301 302 302 301 300 299 297 295 294 293 290 287 287 285 284 283
305 303 302 302 301 300 299 299 298 297 297 295 296 295 296 295 295 296 296 297 298 299 299 299 299 299 299 299 298 298 295 294 293 294 291 290 288 286 284 283 283 282
303 303 301 300 300 299 299 299 299 298 298 297 296 296 296 295 294 295 296 297 297 297 297 298 297 296 296 296 295 293 292 291 291 289 289 288 286 284 283 283 282 281
302 302 302 301 300 299 299 298 297 297 297 296 296 296 295 295 294 295 295 294 296 295 295 295 295 293 292 291 291 290 290 289 288 288 287 286 285 284 282 282 281 280
300 301 301 301 300 300 299 298 297 295 294 294 294 293 293 293 293 293 292 292 292 291 291 291 291 291 291 290 289 288 287 286 285 285 285 284 283 282 281 281 280 280
299 299 299 299 298 298 298 298 296 295 294 292 292 292 292 291 291 291 290 290 290 290 290 289 289 289 289 288 288 287 286 284 283 284 283 282 281 281 281 280 280 279
297 297 297 297 297 296 297 297 296 294 293 293 290 289 289 289 289 289 290 289 289 289 289 289 288 288 287 287 287 285 284 283 282 282 282 281 281 280 279 279 279 279
294 294 295 295 295 293 294 294 293 291 290 289 289 288 289 289 289 289 289 288 288 288 288 287 287 287 286 286 286 284 282 283 282 281 280 279 279 279 278 279 278 278
293 292 292 292 292 291 291 291 291 289 289 289 289 287 288 288 288 288 288 288 287 287 286 286 286 286 285 285 285 284 282 281 281 280 279 279 278 278 278 278 278 278
292 291 291 291 292 291 290 289 289 289 289 289 288 287 287 287 287 287 287 287 286 286 286 285 285 285 284 284 283 282 282 280 279 279 279 279 278 278 278 277 277 277
291 291 291 290 291 290 290 289 288 288 288 289 288 286 286 286 286 286 286 286 286 285 285 285 285 284 284 283 282 281 281 280 279 278 278 278 278 278 279 277 277 277
291 291 291 290 289 289 289 289 287 287 287 288 288 287 286 286 286 285 285 285 285 285 285 284 284 284 283 283 281 280 279 279 279 278 278 278 278 278 277 277 277 277
291 291 291 290 289 289 289 288 287 287 287 287 286 286 286 285 285 285 285 285 284 284 284 284 283 283 283 282 281 279 279 279 278 278 277 278 278 277 277 277 277 277
291 291 290 290 288 287 287 287 287 286 286 286 286 286 285 285 285 285 284 284 284 284 283 283 283 282 282 282 281 280 280 279 278 278 278 278 277 277 277 277 277 278
290 290 289 288 287 286 286 286 286 286 285 285 285 285 285 285 284 284 283 283 283 283 283 283 282 282 282 281 280 279 279 279 279 279 278 277 277 276 277 278 278 278
289 288 288 287 286 285 285 285 285 285 285 285 285 285 285 284 284 284 283 283 282 282 282 282 282 282 283 285 284 281 280 279 279 278 277 276 276 277 277 278 278 278
288 287 287 286 286 285 284 284 284 285 285 285 285 285 284 284 284 283 283 283 282 282 281 282 282 282 285 287 287 286 280 279 278 277 277 277 277 277 277 277 278 279
288 286 286 285 285 285 284 283 283 284 284 284 284 284 284 284 283 283 283 282 282 282 281 281 281 284 287 287 288 286 284 280 279 277 277 277 277 277 277 277 278 278
287 286 285 285 285 284 283 283 283 284 284 284 283 284 284 283 283 282 282 282 282 281 281 281 281 285 288 288 289 287 285 282 278 278 277 277 277 277 277 278 278 278
287 286 285 285 284 284 283 282 283 284 284 284 284 284 283 283 283 283 283 282 282 281 281 281 280 284 288 289 288 287 286 282 278 278 278 278 278 278 278 278 278 278
286 286 286 284 284 283 283 282 282 282 283 284 284 283 283 283 283 282 282 282 282 282 281 280 279 286 289 289 289 287 286 283 278 278 277 277 278 278 279 279 279 279
286 285 285 284 283 283 282 282 282 282 282 284 284 283 283 283 283 283 282 282 282 282 281 280 280 286 288 289 288 287 286 280 278 277 277 278 278 279 280 280 280 280
286 285 285 284 283 282 282 282 282 282 283 283 283 283 282 282 282 282 282 282 281 281 281 280 280 285 288 288 288 288 285 279 279 278 278 278 278 280 280 280 280 280
285 285 284 283 283 282 282 282 282 282 283 283 283 282 282 282 282 281 282 281 281 280 281 280 279 284 287 288 287 287 283 279 279 279 278 278 279 279 279 279 280 280
285 285 284 283 283 282 282 281 281 281 282 283 283 282 282 282 281 281 280 280 280 280 281 280 279 282 287 287 287 287 282 280 279 279 278 278 278 278 278 278 279 281
285 285 284 283 282 281 281 281 281 281 281 282 282 282 281 281 280 280 279 279 279 279 280 280 279 280 285 287 287 287 284 280 279 278 278 278 278 278 277 278 278 279

ECMWFNIL_sfc_thetae_093.txt.gz
Theta_e
302 303 304 303 304 304 301 301 301 300 298 298 297 297 297 297 297 297 298 301 302 304 305 305 305 305 304 302 301 300 299 299 299 299 298 297 295 294 292 290 290 290
302 302 302 302 303 302 301 302 301 300 298 297 298 298 298 297 297 297 297 299 300 301 302 302 303 304 303 302 301 300 299 299 297 297 296 295 293 292 291 289 288 287
301 302 302 302 302 302 300 300 300 300 299 298 298 298 297 296 296 296 297 298 298 299 300 300 301 302 301 301 300 299 298 296 295 293 293 292 291 290 288 287 286 285
300 302 303 303 303 301 300 299 299 299 299 297 296 296 296 296 296 295 296 296 297 297 297 298 298 297 298 298 298 296 295 294 293 292 291 289 289 288 286 286 285 283
299 300 301 301 301 301 300 299 298 298 298 298 297 296 295 294 294 294 294 294 295 294 294 294 294 293 293 293 294 294 293 292 290 290 289 288 287 286 285 284 283 282
297 299 299 300 299 299 299 299 299 298 298 297 297 295 295 294 293 293 293 293 293 293 292 291 291 291 291 291 291 292 291 290 290 290 288 287 285 285 285 284 283 282
296 297 298 298 298 298 299 299 298 297 297 296 294 293 293 293 292 292 292 293 292 292 292 291 291 291 291 291 291 290 290 290 289 289 288 286 285 284 284 283 283 282
294 294 295 295 295 296 298 298 297 295 295 292 291 291 291 292 292 291 292 291 291 291 291 291 291 291 290 290 290 289 288 289 288 288 287 285 284 283 282 283 282 281
292 291 292 291 292 293 294 295 295 295 293 292 291 289 289 290 290 290 291 290 290 290 290 290 290 290 289 289 289 289 288 287 287 287 286 284 283 282 282 281 281 280
290 290 290 291 291 291 291 291 293 293 292 292 290 289 289 289 289 289 289 289 289 289 289 289 289 288 288 289 289 289 288 287 286 286 286 284 284 282 281 280 280 279
290 289 290 290 291 290 290 289 289 290 289 290 289 289 289 288 287 288 288 289 289 288 288 288 288 288 288 288 288 288 288 287 285 285 285 284 283 282 281 280 279 279
290 289 290 290 290 290 289 289 289 288 288 288 289 289 288 287 287 287 288 288 288 288 288 288 288 288 288 288 287 287 287 286 285 284 284 283 281 281 280 280 279 278
290 290 290 290 290 290 289 288 288 288 288 288 288 288 287 286 286 287 287 288 288 288 288 288 287 287 287 287 286 286 285 284 283 283 282 281 280 280 279 279 279 278
291 290 290 290 289 289 288 288 288 287 287 287 287 288 286 286 286 286 287 287 287 287 287 287 287 286 286 286 285 285 284 283 282 281 280 280 279 279 278 278 278 278
291 290 289 289 289 288 288 287 287 286 286 286 287 288 287 286 286 286 286 285 286 286 286 286 286 286 286 285 284 283 283 282 281 281 280 279 279 278 278 277 278 278
290 289 289 289 288 288 287 287 286 285 285 285 286 287 287 286 286 286 286 285 285 284 285 285 285 285 285 286 286 284 283 282 281 280 280 279 278 278 277 277 277 278
290 289 288 288 288 287 287 286 285 285 284 284 284 285 286 286 285 285 285 285 284 284 283 284 284 285 286 288 288 287 283 282 281 280 279 279 278 278 277 277 278 279
290 288 288 288 287 287 286 285 284 284 284 284 284 284 285 285 284 284 284 284 283 283 283 283 283 285 288 288 289 288 286 282 281 280 279 279 279 278 278 278 278 278
288 288 287 287 287 286 285 284 283 283 283 283 283 284 285 284 285 284 284 284 283 282 282 282 282 286 288 288 288 288 287 283 281 280 280 279 279 279 278 278 278 278
288 287 287 287 286 285 284 283 283 283 283 283 283 283 284 284 284 284 284 283 283 283 282 282 282 285 288 288 288 288 287 285 281 280 280 279 279 279 278 278 278 279
288 287 287 286 285 284 284 283 283 282 282 282 283 283 283 283 284 284 284 284 283 283 283 282 282 285 288 288 288 288 288 285 281 280 280 279 279 279 279 279 279 280
287 287 287 285 284 284 283 283 282 282 282 282 282 281 282 283 284 284 284 283 283 283 282 282 282 286 287 288 288 289 287 282 280 279 279 279 278 279 279 280 280 280
287 287 286 284 284 283 283 282 282 281 281 281 281 281 281 282 283 283 284 283 283 282 282 282 281 285 287 288 289 289 286 281 280 279 279 278 278 279 279 280 280 281
287 286 285 284 283 283 283 282 282 281 281 281 282 281 281 282 283 283 283 283 283 282 282 282 281 283 286 288 288 288 285 280 280 279 278 278 278 279 280 280 281 282
286 285 285 284 283 283 282 282 281 281 281 280 281 281 281 282 283 283 282 283 283 282 283 282 281 282 286 287 288 288 284 281 280 279 278 278 278 278 280 280 280 281
285 285 284 284 283 282 282 282 281 280 280 280 280 281 281 282 282 282 281 281 282 282 282 282 281 281 285 287 288 288 285 281 280 279 278 278 278 279 278 279 280 280

ECMWFNIL_sfc_thetae_099.txt.gz
Theta_e
301 300 301 300 301 300 299 298 297 298 299 298 299 299 300 300 299 300 301 303 304 305 307 308 308 308 308 307 305 304 302 301 300 300 299 298 297 296 295 294 294 293
300 299 299 299 298 297 298 298 298 299 299 298 298 298 298 298 297 298 299 301 302 303 305 307 307 307 307 306 305 303 302 301 300 300 299 298 297 296 296 295 294 294
298 298 298 298 299 298 298 298 298 298 299 299 298 297 297 297 298 298 299 300 301 302 303 305 306 306 306 306 305 303 301 300 300 299 298 298 297 296 296 295 294 293
297 298 299 298 298 298 297 297 297 297 297 297 297 298 298 298 299 299 300 299 300 301 302 303 304 304 305 305 304 302 301 301 300 299 298 297 297 296 295 295 294 294
297 297 297 297 297 297 296 297 297 297 297 298 298 297 297 297 297 298 298 298 298 298 298 300 301 302 302 302 302 301 300 300 298 298 296 295 295 295 295 294 294 293
295 296 296 297 297 296 296 297 297 297 297 297 298 297 297 297 297 296 295 296 296 296 297 298 298 299 299 300 300 300 298 297 296 296 295 295 295 294 294 294 293 292
295 294 295 295 295 296 296 297 296 296 297 297 294 296 295 295 296 295 295 296 295 294 295 296 296 296 295 295 295 296 296 296 295 295 295 294 294 293 293 293 293 293
294 293 294 294 294 294 295 296 295 294 294 292 294 293 294 294 294 294 294 293 294 294 294 294 295 297 295 294 294 295 295 296 295 294 294 294 293 293 292 292 292 292
292 292 291 291 292 292 292 293 292 291 291 292 292 291 292 293 293 293 293 293 293 293 294 293 294 294 294 293 294 295 295 295 295 294 294 294 293 293 293 292 291 291
291 290 290 290 291 292 292 291 291 291 290 291 292 291 292 291 292 293 293 293 293 293 293 293 293 292 292 293 294 294 295 295 294 294 294 294 294 294 293 291 291 290
290 289 290 290 291 291 291 290 289 289 289 291 290 291 291 291 290 291 292 292 293 293 293 293 293 293 293 293 293 293 294 295 294 294 294 294 294 294 292 291 290 290
290 289 290 290 290 290 290 289 288 289 290 289 290 291 291 291 291 291 292 292 292 293 293 293 293 293 293 293 293 293 293 293 293 293 293 293 293 293 293 291 291 290
291 291 291 290 290 289 287 288 288 288 289 290 289 290 291 291 290 291 291 292 292 292 292 292 292 293 293 293 292 292 292 292 292 292 292 292 293 293 292 292 291 291
292 291 289 289 288 287 288 288 288 288 288 288 288 289 290 291 291 290 290 290 292 292 292 292 292 292 292 292 292 292 292 291 292 292 292 291 291 291 291 291 290 290
291 288 288 288 287 287 287 288 288 288 287 287 288 289 290 290 290 289 289 289 290 291 291 291 291 291 292 292 291 291 291 291 291 291 291 291 291 291 290 290 289 289
290 288 288 286 287 288 288 288 287 287 287 287 288 288 289 289 288 288 289 289 289 290 290 291 291 291 290 291 291 291 291 291 291 291 290 290 289 289 288 287 287 287
289 288 287 288 288 287 287 287 287 287 287 287 287 287 288 288 287 288 288 289 289 289 289 290 290 290 290 292 292 293 291 291 290 290 289 289 288 288 287 286 286 286
288 288 288 288 287 287 287 287 286 286 286 287 287 287 287 286 286 288 288 288 288 288 289 289 290 289 291 291 292 292 291 290 289 289 288 288 288 288 288 287 286 285
288 288 288 288 288 287 287 286 286 286 286 286 286 287 285 286 287 287 287 287 287 287 288 288 289 290 291 291 291 292 292 290 288 288 287 287 287 287 287 286 285 284
287 287 287 288 287 286 285 286 285 286 287 287 286 285 285 286 286 286 287 286 287 287 287 287 287 288 291 291 291 291 292 291 288 287 287 287 287 286 286 286 285 284
286 287 287 287 286 286 285 285 286 286 286 286 286 286 285 285 286 285 286 286 286 286 286 286 287 289 290 291 291 291 292 291 288 287 287 286 286 286 286 285 285 284
286 287 287 286 286 285 285 286 286 286 286 285 285 284 284 284 284 285 285 285 286 286 285 286 286 289 290 290 291 291 292 289 288 286 286 285 285 285 285 285 284 284
286 286 287 286 286 285 285 286 286 285 285 284 284 284 284 284 284 284 285 285 285 285 284 285 285 287 289 289 290 291 290 288 287 286 286 285 285 284 284 284 284 283
286 285 286 286 286 286 286 286 286 285 285 284 284 284 283 284 283 283 283 283 284 284 284 284 284 285 288 289 289 290 289 287 286 286 285 284 284 284 283 283 283 283
285 284 285 286 286 287 286 286 286 286 285 282 283 283 284 283 282 282 282 282 282 283 283 284 284 284 287 288 289 289 288 287 286 285 284 283 283 282 282 282 282 282
284 284 284 285 286 286 286 286 285 283 282 282 282 282 282 281 281 281 281 282 281 281 282 283 283 282 284 287 288 288 289 287 286 285 283 283 282 282 280 280 280 280

ECMWFNIL_sfc_thetae_102.txt.gz
Theta_e
300 299 301 300 301 301 300 298 297 298 299 298 299 299 299 300 298 299 300 300 301 302 302 304 306 308 308 308 308 307 305 303 302 302 300 299 299 298 297 296 295 294
299 299 298 298 297 295 297 298 298 298 299 298 298 298 298 297 297 298 299 299 299 300 302 303 305 306 307 308 308 307 306 304 303 302 301 299 299 298 298 297 296 295
297 297 297 298 299 298 298 297 297 298 298 298 296 296 297 296 297 296 298 298 298 298 299 300 302 304 306 306 307 306 305 304 303 302 300 300 299 298 298 297 296 295
297 298 298 298 298 298 297 297 296 295 294 295 296 297 296 296 296 296 296 296 297 297 298 299 300 301 303 304 304 304 304 304 304 302 301 300 299 298 298 297 296 296
297 297 296 297 297 297 295 296 296 296 296 297 295 294 294 294 295 294 294 294 295 296 297 298 300 300 301 302 302 302 302 302 301 300 299 298 298 298 297 296 295 294
293 295 296 296 296 296 296 296 297 296 296 295 296 295 294 294 293 293 293 293 293 295 295 296 298 298 299 300 300 301 301 299 299 299 298 297 296 296 296 295 295 294
294 293 294 295 294 295 295 296 295 295 295 296 292 293 292 293 293 293 294 293 293 293 295 296 296 296 297 297 298 298 298 298 296 296 296 296 295 295 294 294 293 294
293 291 293 292 293 293 294 295 294 294 293 290 292 293 292 293 293 293 292 292 293 293 293 293 294 296 295 295 295 295 295 297 296 295 295 295 295 295 294 294 294 293
290 290 290 290 290 291 291 291 291 289 289 291 291 290 289 291 291 291 291 291 292 291 292 292 293 293 292 293 294 294 294 294 295 295 295 294 294 294 295 294 293 293
289 289 288 289 289 289 290 289 288 289 288 290 290 289 290 289 290 291 291 291 291 290 290 291 291 290 290 291 293 293 294 294 294 294 294 295 295 295 294 294 293 293
288 287 287 288 289 288 289 288 287 288 287 289 289 289 290 289 288 289 290 290 291 291 291 290 290 291 291 290 290 291 293 293 294 294 294 294 294 295 293 294 293 293
287 287 287 288 288 288 288 288 287 287 288 288 288 290 289 289 290 289 289 290 290 291 291 291 290 290 291 291 291 290 291 292 292 293 293 294 294 294 294 294 294 293
287 287 287 287 287 288 287 287 287 287 287 288 287 288 289 289 288 289 289 289 290 290 290 290 290 290 291 291 291 292 291 291 292 292 293 293 293 293 294 294 294 293
287 286 286 287 287 287 287 287 287 286 287 287 286 288 288 289 289 289 289 289 290 290 290 290 290 290 291 291 292 292 291 291 291 291 292 292 292 292 293 293 293 293
287 286 286 286 286 287 287 287 287 286 286 286 286 287 288 288 289 289 289 289 289 289 289 289 290 291 291 292 292 291 291 291 291 291 291 291 291 292 292 292 292 292
287 286 287 286 286 286 287 286 286 286 286 286 287 287 287 287 287 287 288 289 289 289 288 289 290 291 290 292 292 292 292 292 291 291 291 291 291 290 291 291 291 292
287 287 286 287 287 286 286 286 286 286 285 286 286 286 287 287 286 287 288 288 288 289 288 288 289 290 291 293 294 294 292 292 291 291 291 290 290 290 290 290 290 290
285 286 286 287 285 286 286 286 285 284 285 286 286 286 286 285 285 287 287 288 288 288 288 289 289 290 292 293 293 294 293 291 291 291 290 290 290 290 290 290 289 289
285 285 285 286 286 286 285 284 284 284 285 285 286 286 283 285 286 286 287 287 287 287 288 288 289 291 292 293 293 293 294 292 290 290 290 289 290 289 289 289 289 289
284 284 285 285 285 285 284 284 283 285 285 285 285 284 285 285 285 285 286 286 286 287 287 288 288 289 292 292 292 293 293 293 290 289 289 289 289 289 289 289 289 289
286 285 285 285 284 284 283 283 284 285 285 285 285 285 285 286 286 285 286 286 286 286 286 287 288 290 291 292 292 292 293 292 289 289 289 288 288 288 288 288 288 288
285 285 285 285 285 284 283 284 284 284 285 285 284 284 284 284 284 284 285 285 286 285 285 286 287 290 291 291 292 292 293 289 288 288 288 288 287 287 287 287 287 287
285 284 285 285 285 284 284 285 285 285 284 281 283 284 284 284 284 285 285 285 285 285 285 286 286 288 290 290 291 292 291 288 287 287 287 287 287 287 287 287 287 286
284 284 284 284 284 284 285 285 285 284 284 282 283 284 284 284 284 284 284 284 284 284 285 285 286 286 288 289 290 291 290 287 287 287 287 287 287 287 287 286 286 286
283 282 282 283 283 284 284 285 285 285 285 280 283 282 283 283 282 282 283 283 283 283 284 284 285 285 288 289 290 290 289 287 286 286 286 286 286 286 286 286 285 285
283 282 282 282 283 283 284 284 284 283 283 282 282 281 282 282 281 281 281 283 282 282 282 283 283 284 284 288 289 289 290 287 286 285 285 286 286 286 285 284 284 284

ECMWFNIL_sfc_thetae_105.txt.gz
Theta_e
306 306 307 307 307 308 308 306 305 306 306 306 306 306 306 307 306 306 307 308 308 309 310 310 311 311 311 310 310 309 307 306 305 304 302 301 300 300 299 299 299 298
303 304 304 304 304 303 304 305 305 305 305 305 305 306 305 303 303 303 304 304 305 306 307 308 309 309 310 309 309 308 308 306 305 305 303 301 301 300 300 300 299 299
301 301 302 303 304 304 303 303 304 303 304 304 303 302 303 301 302 301 302 303 303 304 304 305 306 307 307 308 309 308 307 306 305 304 303 302 301 300 300 300 300 299
300 301 302 302 303 303 303 302 301 301 300 301 301 301 301 301 301 300 300 299 302 302 303 303 304 305 305 306 306 306 307 307 307 305 303 303 302 301 300 300 300 300
299 299 300 301 301 301 301 300 300 300 300 301 301 299 299 299 299 299 299 299 300 300 301 301 302 302 303 304 304 304 305 304 304 304 303 303 303 302 302 301 299 298
297 298 299 299 300 300 300 300 300 300 300 299 300 300 299 299 298 298 298 298 298 299 299 300 300 301 302 302 303 303 304 303 303 302 302 301 300 300 301 299 298 297
297 297 297 297 297 298 298 299 299 299 299 300 298 298 297 297 297 297 298 298 298 297 298 298 299 299 300 301 301 301 302 302 301 301 300 299 298 297 297 298 297 297
295 295 295 295 295 296 296 297 297 297 297 295 297 298 296 297 297 297 297 297 297 298 297 297 298 299 299 299 300 299 298 300 300 298 298 298 297 297 297 297 296 296
292 292 292 292 293 294 293 294 294 294 294 295 296 295 294 296 296 296 295 295 296 296 297 296 297 297 297 297 297 297 297 297 298 297 296 296 296 297 297 296 295 295
291 291 291 291 291 292 292 292 292 292 292 292 293 294 294 293 294 295 294 294 294 294 294 295 295 295 295 295 296 296 296 296 296 296 296 296 296 296 296 295 295 294
290 290 290 290 291 291 291 291 291 291 291 291 292 292 293 293 292 292 293 293 294 294 294 294 294 294 294 295 295 295 295 295 296 296 296 296 296 296 294 295 295 295
290 289 290 290 290 290 290 290 291 290 290 290 291 292 292 292 292 292 292 292 293 294 294 294 294 294 294 295 295 294 294 294 295 295 295 295 295 295 295 295 295 295
289 289 289 289 290 290 290 290 289 289 289 290 290 290 291 291 291 291 291 291 293 293 293 293 293 293 293 294 294 294 293 293 293 293 293 294 295 295 295 295 295 295
289 288 289 289 289 289 289 289 289 289 289 289 289 289 290 290 291 291 291 291 292 292 292 292 292 293 293 293 293 293 293 293 293 293 293 293 293 294 294 294 294 294
288 288 288 288 288 288 288 288 288 288 288 288 288 289 289 290 290 290 290 291 291 291 291 291 291 292 293 293 293 293 293 293 293 293 293 293 293 293 293 293 293 294
288 287 288 287 288 288 288 288 288 288 288 287 288 288 288 289 289 289 289 290 290 291 291 291 291 292 290 291 292 293 293 293 293 293 292 293 293 293 293 292 293 293
288 288 287 288 288 287 288 287 287 287 287 287 287 287 287 288 288 288 288 289 289 290 290 291 291 291 290 292 293 294 293 293 292 292 292 292 292 293 293 293 292 292
287 287 287 287 287 287 287 286 286 285 286 286 286 286 287 287 287 287 288 288 289 289 289 290 291 290 292 292 293 293 293 293 293 292 292 292 292 292 292 292 292 292
287 287 287 287 287 286 286 285 285 285 285 286 286 287 285 286 287 287 287 288 288 288 289 289 290 290 292 292 293 293 293 293 293 292 291 291 292 292 291 291 291 291
286 286 286 286 286 285 285 285 285 286 286 286 286 285 285 286 286 286 287 287 287 288 288 289 289 289 291 292 292 292 293 293 292 291 290 291 291 291 291 291 291 290
286 286 285 286 286 285 285 285 285 285 285 286 286 286 286 286 287 287 287 286 286 287 287 288 289 289 291 291 292 292 293 293 292 291 290 290 291 290 291 291 291 291
285 285 285 285 285 284 284 285 285 285 285 286 285 286 286 285 285 285 285 286 286 286 286 286 287 289 290 291 291 292 292 290 290 289 289 289 289 289 289 290 290 291
284 284 284 284 284 284 284 285 285 285 285 284 284 286 286 286 285 286 286 286 285 285 285 286 287 288 289 290 291 291 291 289 288 288 288 288 288 288 289 289 289 289
284 283 283 282 282 282 283 283 284 284 284 284 284 285 285 285 285 285 285 285 285 285 285 285 286 287 288 289 290 291 290 288 288 288 287 288 288 288 288 288 288 287
283 282 282 281 281 282 282 282 283 283 284 282 283 283 283 284 284 284 284 284 284 284 284 284 285 285 287 288 289 290 289 288 288 288 287 287 287 287 288 288 288 287
282 281 281 280 281 281 281 281 282 281 282 282 282 282 283 283 282 282 282 283 283 283 283 283 283 284 285 287 288 289 289 288 288 287 286 286 287 287 287 287 287 287

ECMWFNIL_sfc_thetae_108.txt.gz
Theta_e
315 316 316 316 317 318 318 318 318 318 319 320 319 320 319 319 319 317 316 316 316 316 317 317 318 317 316 316 315 314 313 311 310 309 306 305 304 304 304 304 304 303
314 314 314 315 316 316 316 317 318 317 318 319 318 318 318 317 317 317 316 315 314 314 314 315 316 316 316 315 314 313 312 312 311 310 308 306 305 304 304 305 305 304
313 313 313 312 314 315 315 316 315 315 316 316 317 316 316 315 315 314 314 315 315 314 314 314 314 314 314 314 314 312 311 311 309 310 308 307 306 304 304 305 304 303
311 312 312 312 313 313 314 313 313 313 313 313 313 314 313 313 313 312 312 309 311 312 313 313 313 313 313 313 313 312 312 311 311 309 308 307 307 306 305 305 304 303
310 309 310 310 310 311 311 310 310 311 311 311 312 312 311 310 310 310 310 310 310 310 311 311 311 311 311 311 311 310 310 309 310 310 308 307 307 306 306 305 305 304
307 307 307 307 308 308 309 309 309 310 310 310 310 310 310 309 309 309 309 308 309 309 309 309 309 309 310 309 309 308 308 308 308 308 307 306 306 306 306 305 304 303
306 306 306 306 306 307 307 307 308 308 308 309 309 308 309 308 308 308 308 308 308 307 307 308 308 308 309 308 308 308 308 308 309 309 307 306 305 304 304 304 303 302
304 304 304 304 304 305 305 305 306 306 307 306 305 306 307 306 307 307 307 307 307 307 307 307 307 307 308 308 307 307 306 307 307 307 307 306 303 300 301 301 300 299
302 302 302 301 301 303 303 303 303 304 304 303 304 305 305 305 305 306 305 305 305 305 305 306 306 306 307 306 306 306 305 305 305 304 303 302 300 299 299 300 299 298
301 300 299 300 300 301 301 301 301 301 300 301 301 302 302 303 303 303 303 302 301 301 302 303 303 303 303 304 304 304 303 302 302 301 301 301 300 300 299 299 298 298
300 300 300 300 300 300 300 300 300 300 300 299 299 300 301 301 300 300 299 299 299 299 300 300 300 301 302 302 302 303 302 302 301 301 300 300 300 300 296 299 298 298
299 299 299 298 298 299 299 299 299 299 299 299 299 299 299 300 299 298 298 297 297 298 298 299 300 300 300 301 301 301 301 300 300 300 300 300 299 299 299 299 299 299
298 297 297 298 298 298 298 298 298 298 297 297 298 297 297 298 299 298 298 297 297 297 298 298 298 299 299 300 300 300 300 299 298 298 298 298 298 298 299 299 299 299
297 296 296 296 296 297 297 297 297 297 297 297 296 296 296 297 297 298 298 298 297 297 298 298 298 298 298 298 299 299 298 297 298 297 296 296 297 297 298 298 298 298
295 295 295 295 295 295 295 295 296 296 295 295 295 295 296 296 296 296 296 296 297 297 297 297 296 296 297 297 297 298 298 297 297 297 296 296 296 296 296 297 297 297
294 294 294 294 294 294 294 294 294 294 294 294 294 294 295 295 295 295 295 295 295 296 296 296 296 296 292 291 293 295 297 297 297 296 296 296 295 295 295 296 296 296
293 293 293 293 293 293 293 292 292 292 291 292 292 293 293 293 293 294 294 295 295 295 295 295 295 295 291 293 293 293 294 295 295 295 296 295 295 294 294 295 296 296
292 292 292 292 291 291 291 289 289 289 290 290 290 291 292 292 292 293 293 294 294 294 294 295 295 292 292 293 293 293 292 294 295 294 295 295 294 294 294 294 295 295
291 291 291 291 291 289 289 289 289 289 289 289 289 289 290 291 289 292 292 293 293 293 293 294 294 292 292 292 292 292 293 292 294 294 294 294 294 294 294 294 294 294
290 289 289 290 289 289 289 289 289 289 289 290 290 289 289 290 290 290 290 291 292 292 292 293 293 291 292 292 291 292 292 292 294 294 294 294 294 294 294 294 294 294
289 289 289 289 289 288 288 288 288 288 288 289 289 289 289 289 290 289 289 288 289 290 290 291 292 291 291 291 291 291 292 292 293 293 293 293 294 294 294 294 294 294
288 288 287 287 287 287 287 287 287 287 287 288 288 289 289 289 289 289 288 288 289 288 289 289 290 290 290 290 291 291 292 291 291 291 291 291 291 293 293 294 294 293
287 287 286 286 286 286 286 286 286 286 287 288 287 287 288 288 288 288 288 288 287 287 287 288 289 289 290 290 290 291 291 290 290 290 290 290 290 291 292 293 293 293
287 286 285 285 285 285 285 285 286 286 287 287 286 286 286 287 287 288 288 288 287 287 287 287 287 288 288 289 289 290 289 288 289 289 289 289 289 290 291 291 292 288
286 285 285 284 284 284 285 284 285 285 286 286 286 286 286 287 287 287 287 287 287 286 286 286 286 286 287 288 288 289 289 288 289 289 288 288 289 289 290 291 291 289
285 284 284 283 283 284 284 284 285 285 285 285 285 286 286 287 286 286 285 286 286 286 286 286 286 286 287 288 288 288 289 288 289 288 288 288 288 289 289 289 290 290

ECMWFNIL_sfc_thetae_111.txt.gz
Theta_e
319 319 319 318 318 319 319 319 319 319 319 319 319 320 320 321 321 320 319 319 319 319 320 320 320 319 317 316 315 314 313 312 312 311 309 308 307 307 306 306 306 306
317 317 317 318 318 318 318 319 319 318 318 318 319 319 320 320 321 321 320 320 319 317 317 317 318 318 318 317 316 315 314 313 312 312 310 308 307 307 307 307 307 306
317 317 316 316 316 317 318 318 318 317 317 317 318 318 318 318 318 319 318 318 318 318 317 316 315 316 316 316 317 315 314 313 312 312 311 310 309 307 307 307 306 306
316 316 316 316 316 316 317 316 316 316 315 315 315 316 316 316 316 315 316 314 315 315 316 316 316 315 315 315 314 314 314 313 313 313 311 310 310 309 308 307 306 306
314 314 314 313 314 314 314 313 313 313 313 314 314 314 313 313 313 313 313 313 313 313 313 313 314 314 314 314 313 312 312 312 312 312 310 309 309 308 308 307 306 305
311 311 311 311 311 311 311 311 311 311 312 312 312 312 312 312 311 311 311 311 311 311 311 311 311 312 312 311 311 311 310 310 310 310 309 308 308 308 307 307 306 305
309 310 309 309 309 309 309 309 310 310 310 310 310 309 310 309 309 309 309 309 309 309 309 310 310 310 310 310 309 309 309 309 309 309 308 307 307 307 307 306 304 304
307 307 307 307 307 307 307 308 307 308 308 307 307 307 307 307 307 308 308 308 308 308 308 308 308 309 309 309 308 308 307 308 308 307 307 307 307 306 306 306 305 303
305 305 305 305 305 305 305 305 305 305 305 305 305 305 305 305 305 305 305 306 306 306 306 306 307 307 307 307 307 307 306 306 307 306 305 305 305 305 305 305 302 301
304 303 303 303 303 304 302 303 302 302 302 302 302 303 303 303 304 304 303 303 303 303 303 303 303 303 304 305 305 305 305 305 305 304 304 303 303 303 302 301 300 299
302 302 301 301 301 301 301 301 301 301 301 301 301 301 302 302 302 302 301 300 300 300 300 301 301 302 302 302 302 303 303 303 302 302 302 302 301 300 297 298 298 298
300 300 299 299 299 299 299 299 300 300 300 300 300 300 300 300 300 300 300 299 299 299 299 299 299 299 300 300 300 301 301 301 301 301 300 300 299 298 298 298 298 297
298 298 298 298 298 298 298 298 298 298 298 298 298 298 298 298 299 298 299 299 299 299 298 298 299 299 299 299 300 300 300 299 299 299 298 298 298 298 298 298 298 297
297 297 296 296 297 297 297 297 297 297 297 297 297 297 297 297 297 297 298 298 298 298 298 299 298 298 298 298 299 299 298 298 298 297 297 297 297 297 297 297 297 297
296 296 296 296 295 295 295 295 295 295 295 295 296 296 297 297 297 296 296 296 297 297 297 298 298 297 298 297 297 297 298 297 297 297 297 296 296 296 296 296 296 297
295 295 294 294 294 294 293 293 294 294 294 294 294 294 295 295 295 295 295 295 295 296 296 297 297 298 294 292 293 295 295 295 295 295 295 296 295 295 295 296 296 297
294 294 294 293 293 292 292 292 292 292 292 292 292 293 293 294 294 294 294 295 295 295 295 296 297 297 293 294 294 294 293 294 293 294 294 294 294 294 294 294 295 295
293 293 293 292 291 291 291 290 291 289 289 290 290 291 291 293 292 293 293 294 294 294 294 295 295 293 294 294 294 294 292 292 293 293 293 293 294 294 294 294 294 294
292 292 292 291 290 290 289 289 289 289 289 289 289 289 290 291 290 292 293 293 293 293 293 293 293 293 293 293 293 293 293 292 292 292 292 292 293 293 293 293 293 293
291 289 290 290 289 289 289 288 288 288 288 288 289 289 288 290 289 290 289 291 291 291 291 291 291 291 292 292 292 292 292 292 291 291 291 291 292 292 292 292 293 292
289 289 288 288 289 288 287 287 288 287 287 288 288 289 288 288 289 288 288 288 289 289 290 290 290 291 291 291 292 292 292 292 291 291 291 291 292 292 292 292 293 293
288 288 288 288 287 287 287 287 287 286 286 287 288 288 288 288 288 288 287 287 288 288 288 287 289 290 291 291 291 291 292 289 290 290 290 290 290 291 291 292 292 292
287 287 286 286 286 286 285 286 286 286 286 287 286 287 287 287 287 287 287 287 287 287 287 287 288 289 290 290 290 291 290 288 288 288 288 288 289 290 290 291 291 291
286 286 285 285 285 284 285 285 285 286 286 287 286 286 286 286 287 287 287 287 287 286 286 286 286 287 288 289 289 290 289 287 287 287 287 287 288 289 289 290 290 288
285 284 284 283 283 284 284 284 284 285 286 286 286 286 286 287 287 287 286 286 286 286 286 286 286 286 288 288 289 289 288 287 287 287 286 287 287 288 288 289 290 289
284 283 282 282 282 282 283 284 284 285 284 284 284 285 286 286 286 285 284 285 286 286 286 286 286 286 287 288 289 289 290 287 287 286 285 286 286 287 287 287 288 288

ECMWFNIL_sfc_thetae_114.txt.gz
Theta_e
317 317 316 316 315 314 314 313 312 311 311 312 312 311 311 313 314 314 312 314 316 316 315 316 316 316 315 314 314 314 313 313 312 311 309 308 308 307 308 308 307 307
316 315 314 315 313 312 311 311 309 310 310 310 309 309 309 309 309 311 311 311 313 314 314 314 314 315 315 313 312 312 311 310 311 311 310 308 308 308 307 307 307 307
313 313 312 310 309 308 309 309 309 307 308 308 307 306 308 307 307 306 307 307 308 310 310 311 312 312 311 310 312 312 309 308 308 309 309 309 308 307 307 307 306 306
309 310 309 307 306 307 308 308 308 307 307 306 306 306 305 306 304 305 305 303 305 304 304 306 306 309 310 311 312 310 310 307 308 309 306 306 307 307 307 306 306 306
306 306 306 306 306 305 304 304 304 304 303 304 304 303 303 303 302 300 300 300 301 301 301 302 302 303 303 302 304 304 304 305 305 307 305 304 306 306 306 305 304 303
303 302 302 303 302 302 302 303 304 304 303 302 302 300 300 299 298 299 298 298 298 299 299 298 299 299 299 299 300 299 299 301 303 303 302 302 303 304 304 305 303 303
302 301 301 301 301 301 301 301 300 300 300 300 297 297 297 296 296 296 296 296 296 296 296 296 297 299 299 299 298 297 299 299 299 301 299 299 299 301 302 302 302 303
300 299 299 299 298 298 298 297 295 295 295 295 296 296 295 295 295 295 295 295 295 295 297 297 297 300 299 299 299 298 300 303 302 300 301 301 300 301 300 302 300 301
297 295 295 295 294 294 294 293 293 293 293 293 293 293 293 294 294 294 294 293 294 295 298 298 299 298 298 298 299 299 299 300 300 299 300 299 299 300 300 301 300 299
295 293 293 293 293 292 291 291 292 292 292 292 293 293 294 293 294 292 292 292 293 295 296 297 297 298 297 297 299 298 299 299 299 299 299 299 299 299 299 298 298 298
293 292 291 291 291 290 290 290 290 290 291 292 291 291 291 290 291 291 291 292 293 294 295 295 295 296 296 296 297 297 297 297 298 298 298 298 298 298 295 297 296 296
291 291 290 288 288 288 289 289 289 289 289 289 289 291 289 290 290 289 291 292 291 290 291 291 291 292 293 294 295 295 295 296 296 296 296 296 296 296 296 296 296 296
289 288 288 288 288 288 289 289 289 288 288 289 288 289 288 288 288 289 288 289 289 290 290 289 290 290 291 290 291 292 293 293 293 293 293 294 294 294 294 295 295 295
288 287 287 288 288 288 288 288 288 287 287 287 287 287 288 288 288 288 287 288 288 289 289 289 289 288 287 288 288 289 290 289 290 291 291 292 292 293 293 293 293 294
288 287 287 287 286 286 287 287 287 286 286 286 285 286 288 286 287 287 287 287 286 287 288 288 290 290 289 289 288 287 286 287 288 288 288 288 289 290 291 292 292 293
287 286 287 286 287 287 286 286 286 285 285 286 286 286 286 287 287 287 286 287 288 287 286 288 290 290 290 292 293 288 287 288 288 287 287 287 288 289 289 290 290 291
286 286 286 287 286 286 286 286 286 286 286 286 286 286 286 286 286 286 286 286 286 286 287 288 289 290 291 294 295 295 288 286 286 287 286 287 287 287 287 288 288 289
286 286 286 286 286 285 285 285 285 285 285 285 285 285 286 285 285 284 285 284 286 284 284 286 286 289 293 293 293 294 293 288 286 286 286 286 286 286 287 287 288 288
286 286 286 286 285 285 284 284 284 283 283 283 284 283 282 284 282 283 283 283 283 283 284 285 285 289 291 292 292 292 292 290 286 285 285 286 286 286 286 287 287 287
285 285 284 284 283 283 282 282 282 282 281 281 282 281 281 281 281 282 282 282 282 282 283 284 285 287 291 291 291 291 292 291 285 285 285 285 285 286 286 286 286 286
284 283 283 282 281 280 280 280 280 280 280 281 281 281 282 283 283 283 283 282 281 281 282 284 285 288 290 291 291 291 291 290 285 284 284 284 285 285 285 286 286 287
282 281 281 280 280 279 279 280 280 279 280 281 281 282 282 281 282 280 282 283 283 283 282 283 284 288 289 290 290 291 291 287 284 283 283 284 284 284 284 285 285 286
281 280 279 279 279 279 279 280 280 281 281 281 281 282 282 282 281 281 282 282 282 282 282 283 283 285 288 289 289 290 289 284 283 282 283 283 283 284 284 284 285 285
280 279 278 278 277 279 279 278 279 278 278 280 279 280 281 281 281 281 281 282 282 282 282 282 283 284 287 288 289 290 289 285 283 282 282 282 283 284 284 284 284 285
278 278 277 277 277 277 278 277 278 278 280 278 279 278 280 281 282 281 281 281 281 281 282 282 282 283 286 288 289 289 288 283 283 282 282 282 283 283 284 284 284 284
276 277 276 275 274 275 275 276 277 278 277 277 278 279 279 279 280 280 279 280 280 280 281 280 281 282 282 288 289 289 290 286 283 281 282 283 283 283 283 283 284 284

ECMWFNIL_sfc_thetae_117.txt.gz
Theta_e
306 306 308 310 306 308 307 307 308 310 309 310 311 312 312 313 310 310 309 308 310 312 312 313 311 311 311 313 313 312 311 310 310 309 309 309 308 308 308 307 306 306
308 308 308 310 311 311 310 310 307 307 305 306 308 308 307 305 304 304 305 306 306 308 310 311 311 308 309 308 307 308 308 309 309 310 308 307 306 305 306 306 305 305
311 311 312 311 311 311 312 307 304 302 303 305 305 303 303 302 300 300 301 301 302 303 304 304 305 307 308 309 307 306 304 304 304 304 306 307 306 306 306 305 305 306
312 312 312 310 308 308 306 304 301 300 299 301 300 300 300 300 299 299 298 297 298 298 298 299 301 303 304 306 307 306 307 305 304 303 303 301 301 303 305 304 304 304
311 309 307 305 302 299 299 300 298 298 299 298 297 298 299 298 298 296 295 295 295 295 296 296 296 297 295 296 298 301 300 300 302 302 301 300 300 302 302 302 302 302
305 303 300 300 298 299 300 298 297 297 296 298 296 296 295 294 294 294 293 294 293 292 293 294 294 294 294 295 294 294 292 296 298 299 299 298 297 297 300 299 300 301
299 299 298 298 298 297 297 296 296 295 295 293 292 294 291 292 293 291 291 291 291 291 290 292 292 292 292 293 292 293 294 297 297 298 298 298 298 297 296 296 298 299
297 295 296 296 295 294 294 292 292 292 290 291 292 289 289 290 290 289 289 290 289 289 290 292 294 296 292 292 291 291 292 295 295 296 297 296 297 296 297 298 297 298
293 293 293 291 291 291 290 290 290 289 289 290 290 289 287 289 288 290 289 289 290 290 292 294 296 295 295 295 294 294 294 295 295 295 296 295 295 295 296 296 297 296
291 289 290 290 290 289 289 288 289 288 288 289 286 287 290 289 288 287 288 287 288 288 290 292 291 292 292 292 294 294 294 295 294 294 294 295 295 295 295 295 295 295
289 288 289 288 288 288 288 287 288 289 288 287 287 288 287 288 289 287 286 287 288 289 290 289 288 289 290 290 290 291 292 292 292 292 293 293 293 294 292 294 294 294
288 288 287 287 287 287 287 287 288 287 287 286 286 288 287 287 287 286 286 286 286 287 287 286 285 285 286 287 287 286 287 287 287 288 288 288 289 290 290 290 291 292
288 288 287 288 287 287 287 287 287 286 286 287 286 286 286 286 285 286 286 287 287 287 287 287 287 286 287 286 287 286 286 286 286 285 286 285 286 287 287 287 288 289
286 286 286 286 286 286 286 286 285 285 285 284 285 285 285 285 286 286 285 285 285 286 285 285 286 286 285 285 285 285 285 285 285 285 285 285 284 285 285 285 286 287
286 286 286 286 285 285 285 284 284 283 283 283 283 284 285 284 284 285 285 285 284 285 285 284 285 285 286 286 286 286 285 285 285 285 284 285 285 285 285 285 285 285
286 285 285 285 285 284 283 283 283 282 283 283 284 283 283 283 283 283 284 284 284 283 283 284 284 285 287 291 292 288 286 286 285 284 284 284 284 284 285 285 285 285
285 285 284 284 283 283 282 283 282 282 282 283 283 283 283 283 283 284 284 284 284 283 283 284 285 285 289 292 293 293 287 284 284 284 284 283 283 283 283 284 284 285
284 284 283 283 282 282 282 280 280 281 282 281 283 283 282 281 283 282 283 283 284 283 283 283 283 287 290 291 291 292 291 287 283 283 283 283 283 283 283 283 284 284
284 283 283 283 282 282 280 280 281 282 282 283 282 280 281 282 280 282 282 282 282 283 283 283 282 286 290 291 291 291 291 288 283 281 283 282 282 283 283 283 283 283
283 283 282 282 281 281 281 281 282 282 280 279 279 280 281 280 279 280 280 281 282 282 282 282 282 286 290 290 290 291 291 290 282 282 282 282 282 282 282 282 282 282
282 282 282 281 280 280 280 280 280 279 280 279 280 279 280 280 280 279 279 279 279 280 281 282 283 288 290 290 290 290 291 290 283 282 282 281 282 281 282 282 282 282
281 281 280 280 280 279 280 280 279 279 279 278 278 278 277 278 278 277 278 279 279 278 280 281 282 287 288 289 289 290 291 285 282 281 281 281 281 281 281 281 281 281
280 280 280 279 279 279 278 278 278 278 277 278 277 277 277 278 277 277 277 277 278 278 277 279 280 283 287 288 289 290 288 282 280 280 280 280 281 281 281 281 280 280
280 279 279 278 277 278 277 276 277 277 277 277 277 276 277 277 277 278 277 277 277 277 277 277 279 282 286 288 289 289 287 282 281 280 280 280 281 282 282 282 282 282
278 278 277 276 276 275 275 275 276 276 276 275 275 275 276 276 277 277 276 276 275 276 279 278 276 280 285 287 287 287 285 282 281 279 280 280 281 281 281 282 281 282
277 276 275 274 274 273 273 275 275 274 274 273 274 274 275 275 275 275 274 274 274 275 276 276 277 278 281 285 285 286 286 283 279 279 279 279 279 279 279 280 280 280

ECMWFNIL_sfc_thetae_120.txt.gz
Theta_e
307 307 308 306 305 305 305 304 303 305 304 303 304 304 306 304 302 303 303 303 305 307 308 310 309 309 309 309 309 308 308 308 308 308 308 307 306 306 306 306 305 305
306 305 304 305 304 303 304 305 305 304 303 303 304 305 305 304 302 302 301 301 303 305 306 307 307 306 306 306 304 305 306 305 305 305 305 304 304 303 303 303 303 303
306 306 308 308 308 307 305 306 307 307 306 305 306 307 306 303 302 299 297 297 300 300 301 301 303 304 305 305 306 305 304 304 303 302 300 301 302 303 304 304 303 303
306 307 307 306 307 306 306 306 305 304 304 304 304 302 301 297 296 295 295 294 296 295 295 296 295 296 296 296 298 300 303 303 302 301 301 298 298 300 302 301 301 301
307 307 307 308 306 304 303 303 302 302 303 300 296 293 295 294 294 292 291 290 291 290 291 291 292 292 292 292 292 294 296 296 297 298 298 298 297 298 299 299 298 298
307 307 307 307 304 302 302 301 298 299 298 296 294 292 293 292 290 290 289 289 288 289 289 289 290 290 291 290 289 289 289 290 291 295 295 294 294 294 297 296 297 297
305 304 302 302 301 300 299 296 294 294 294 293 290 290 288 289 289 288 288 288 289 289 289 289 289 289 289 288 288 288 289 289 289 290 291 291 293 295 294 295 295 294
302 300 300 299 298 296 294 292 290 290 289 289 290 286 288 289 288 287 286 287 288 289 289 290 292 295 292 292 292 292 292 294 291 291 291 292 292 292 291 292 292 293
296 295 294 293 292 290 290 289 288 287 287 290 288 287 286 287 288 288 288 288 289 289 291 290 291 290 289 290 290 291 291 291 291 291 291 291 290 290 290 290 290 290
293 291 291 291 290 289 289 287 287 287 287 288 287 287 288 286 288 288 287 288 287 286 286 286 286 285 285 287 289 288 288 290 289 289 289 289 289 288 287 287 287 286
289 289 290 289 288 288 288 287 287 286 287 288 287 287 287 287 286 284 284 285 287 287 287 286 286 284 287 286 285 285 287 287 286 285 286 286 286 285 286 285 286 285
288 288 289 288 288 287 287 287 286 287 287 286 287 288 286 286 286 286 285 284 283 284 284 285 284 284 285 285 285 284 284 284 284 284 284 284 284 284 284 285 286 286
288 288 288 287 287 286 286 286 286 286 287 286 285 287 287 286 285 286 283 284 283 283 284 285 284 284 284 284 284 283 284 285 285 284 284 283 283 283 283 283 284 284
287 286 286 286 286 286 286 286 286 286 285 285 286 287 286 286 286 285 283 283 283 284 283 282 283 283 283 283 283 283 283 283 283 283 283 283 283 283 283 283 283 283
286 286 286 286 286 286 286 285 285 285 285 285 285 285 285 284 284 284 284 284 283 284 283 283 284 283 284 284 284 284 284 284 284 283 283 283 283 283 283 283 283 282
286 285 285 285 285 285 285 285 285 285 285 284 283 283 283 283 283 283 283 283 283 282 282 283 282 283 286 290 291 285 284 283 283 283 283 282 282 282 283 283 283 283
285 285 285 285 284 284 284 284 284 284 283 283 283 283 283 283 283 282 281 282 282 282 282 282 282 284 289 292 292 292 285 283 283 283 282 281 281 281 282 282 282 283
285 284 284 284 284 284 283 283 283 282 282 282 282 282 282 281 281 281 281 281 282 281 282 281 281 288 290 291 291 291 290 284 282 282 282 282 281 281 281 281 281 281
284 284 284 283 283 283 282 282 282 282 282 281 281 280 280 281 279 281 281 281 281 281 281 280 281 288 290 290 290 290 291 287 282 281 282 281 281 281 281 280 280 280
283 283 283 282 282 282 282 282 282 282 281 280 280 279 280 280 279 280 280 281 281 280 280 280 281 287 289 290 290 290 291 289 281 281 280 280 280 280 280 279 280 280
283 283 282 281 281 281 281 281 281 281 280 280 280 280 280 280 280 280 279 278 278 278 280 281 282 288 288 289 290 289 289 287 280 279 279 278 278 279 278 278 279 280
282 282 281 281 281 281 281 280 280 280 280 279 279 278 277 278 277 278 279 278 278 278 280 280 281 286 288 288 288 288 287 281 279 279 277 277 277 277 278 278 278 278
282 281 281 280 281 280 280 280 280 279 278 277 279 278 278 279 278 277 276 278 278 278 278 279 279 283 286 287 287 287 284 278 276 275 275 275 277 277 277 277 277 278
281 281 280 280 280 280 279 279 278 277 278 276 279 279 278 277 277 278 278 279 279 278 277 278 277 281 285 285 286 287 283 277 275 274 273 274 274 277 276 276 277 280
280 280 280 279 279 278 278 278 278 278 276 276 276 276 277 276 277 279 279 279 278 278 279 278 276 278 283 284 285 285 282 275 274 273 273 274 275 275 275 274 277 278
278 278 277 278 277 276 276 277 276 275 275 275 274 276 276 276 277 278 278 277 278 278 277 276 276 275 277 284 284 284 284 278 273 274 275 276 276 276 275 276 276 275

ECMWFNIL_sfc_thetae_123.txt.gz
Theta_e
315 314 314 311 311 311 308 306 305 307 306 304 306 304 304 304 303 304 302 302 304 305 307 309 308 308 307 307 306 307 306 306 306 306 305 305 305 305 305 304 303 303
311 310 308 309 306 303 306 308 306 308 305 304 304 303 302 303 301 301 300 302 304 306 307 307 307 307 306 305 304 304 304 304 304 303 303 302 302 302 302 302 302 301
307 307 308 308 308 306 306 305 306 305 305 302 303 303 302 301 299 299 298 300 301 299 300 302 302 302 303 303 304 303 302 302 302 301 302 301 301 301 301 302 301 301
307 308 309 308 307 306 305 305 303 302 302 302 301 300 300 299 300 298 297 295 296 293 293 294 293 294 294 294 295 296 299 299 299 300 299 298 298 299 298 298 298 298
307 307 307 308 307 306 305 306 303 303 302 300 297 297 299 298 297 295 292 290 291 290 290 290 291 291 291 291 292 292 293 294 295 296 295 294 295 296 295 294 292 292
306 307 306 306 305 305 304 303 302 302 301 301 299 297 297 295 293 290 290 290 289 290 289 289 288 287 288 289 290 289 289 289 287 289 289 289 290 292 294 292 292 291
307 307 305 303 301 301 301 299 300 301 301 298 295 294 292 291 289 289 289 289 288 288 289 289 289 288 287 288 289 289 289 288 288 288 289 289 289 288 287 288 288 288
306 305 304 303 300 298 298 296 296 297 295 294 294 288 289 289 288 287 288 288 289 290 289 290 292 295 292 293 293 292 291 293 290 290 289 285 285 285 285 285 286 285
301 299 300 298 296 293 293 292 291 291 292 293 290 288 286 288 287 287 288 289 290 291 292 292 292 291 290 291 290 290 289 286 286 286 285 284 286 285 286 285 286 285
298 296 297 296 294 292 291 290 290 290 289 290 288 288 288 287 288 288 289 290 289 288 287 285 284 284 286 286 286 285 286 286 285 285 285 285 285 285 285 285 285 286
295 295 296 295 293 291 291 289 289 288 288 289 288 288 288 287 286 286 286 288 286 285 285 285 284 284 285 285 284 285 285 285 284 284 283 284 283 284 284 285 285 284
293 293 293 292 291 290 290 288 287 288 288 287 289 288 287 287 286 286 285 283 284 284 284 284 284 284 284 284 284 283 283 283 284 284 283 283 283 283 283 283 284 283
292 292 291 290 289 288 287 287 287 287 288 287 286 287 287 286 286 286 285 284 283 284 284 284 283 283 283 283 283 283 283 283 283 282 282 282 282 282 283 283 283 283
290 289 288 288 287 286 287 286 286 286 286 285 286 287 287 287 287 286 284 285 285 285 284 284 285 284 284 283 283 283 283 282 282 283 281 282 283 283 283 282 282 282
286 286 286 286 286 287 286 286 286 286 285 285 285 286 286 285 286 286 286 285 284 284 284 284 285 285 284 284 283 283 282 283 283 282 282 282 281 281 282 282 281 281
286 286 286 286 287 287 286 286 286 285 285 285 285 285 284 284 285 284 284 284 284 284 284 284 284 284 286 289 287 283 283 282 282 282 282 281 281 280 280 281 281 281
286 286 286 286 286 286 285 285 285 285 285 285 284 284 284 284 284 284 283 283 283 283 283 283 283 284 289 292 291 289 283 282 282 282 281 281 281 281 281 281 281 280
286 286 286 285 285 285 285 284 284 284 284 284 284 283 283 283 283 283 283 282 282 282 282 283 284 289 291 291 291 290 286 282 282 281 281 281 280 280 280 280 280 280
286 286 285 285 285 284 284 284 284 284 283 283 283 283 282 283 282 282 282 282 282 281 281 282 283 290 291 291 291 290 288 284 281 281 281 280 280 280 279 279 279 279
285 285 285 284 284 283 283 283 283 283 283 283 282 282 282 282 281 281 281 281 281 281 281 282 283 288 290 289 289 288 287 284 281 281 280 280 280 279 279 278 278 277
285 285 284 283 283 283 283 282 282 282 282 282 282 282 282 281 281 280 280 280 280 280 281 282 284 289 289 288 288 287 286 283 280 280 279 279 279 278 277 277 278 277
284 284 283 283 282 282 282 282 282 282 281 281 280 280 280 280 279 280 279 279 279 280 280 280 283 288 288 287 286 285 284 279 279 278 278 278 277 277 277 277 277 276
284 284 283 282 282 282 282 282 281 280 280 280 280 280 280 280 279 279 278 279 279 279 279 280 282 286 287 286 285 284 281 277 276 275 275 274 276 276 276 276 276 276
284 283 283 282 282 282 282 281 281 280 280 280 281 280 279 279 279 278 278 279 279 278 279 279 279 283 286 286 285 283 280 277 275 274 273 273 273 275 275 275 276 278
283 283 283 282 282 282 281 280 280 280 279 279 280 280 279 279 279 279 278 278 278 278 279 278 278 281 285 284 284 283 279 275 274 272 273 274 274 274 274 273 274 277
282 282 282 282 281 280 280 280 278 277 278 278 278 279 278 278 278 278 277 277 278 278 278 278 278 278 281 284 283 283 281 275 272 274 276 275 275 273 270 271 274 274

ECMWFNIL_sfc_thetae_126.txt.gz
Theta_e
319 317 317 316 316 315 312 311 310 312 312 312 312 310 312 310 307 308 307 306 307 310 309 309 308 308 308 307 307 307 307 306 305 306 305 305 304 303 303 303 302 302
316 315 313 314 312 309 310 311 310 312 311 310 310 308 306 304 303 304 302 303 305 307 309 310 309 308 307 306 305 304 304 304 303 303 303 302 301 301 301 301 301 301
314 313 313 313 312 309 309 308 308 309 309 307 307 307 303 303 300 302 303 305 305 304 305 307 306 306 307 306 305 303 302 303 302 301 301 300 301 301 300 300 299 299
313 314 313 312 311 309 307 306 306 307 306 306 306 305 303 301 300 299 299 298 300 299 298 299 299 296 297 300 301 300 301 300 300 299 298 297 296 296 295 295 295 294
312 311 311 311 309 308 307 308 307 307 308 306 302 300 299 298 297 296 294 294 295 294 294 294 293 293 295 296 297 296 296 295 295 296 294 293 294 295 293 293 291 291
308 309 309 309 307 307 307 308 307 307 305 303 302 299 299 297 295 293 293 292 291 292 291 290 290 290 291 291 292 291 290 290 287 290 291 292 292 292 293 290 288 286
308 308 307 307 306 307 307 306 306 304 305 302 297 296 294 294 293 293 292 291 291 291 291 290 290 288 289 290 289 288 288 288 288 290 291 291 290 287 285 285 284 284
307 307 307 307 307 306 305 304 303 302 299 297 297 291 294 293 292 290 289 290 291 290 290 290 291 292 290 291 292 292 291 293 291 291 289 285 284 285 285 285 285 285
306 305 305 305 304 302 301 300 298 297 297 297 294 291 290 292 290 289 290 290 291 292 293 294 294 292 292 293 293 292 291 288 287 286 284 284 284 284 285 284 284 284
303 302 302 301 301 298 297 295 295 295 295 295 292 291 290 288 289 289 290 292 292 291 291 291 290 290 290 290 290 289 287 285 285 285 285 285 284 284 284 284 283 284
300 300 300 299 297 295 293 292 293 293 293 293 291 291 290 289 288 290 290 291 290 289 288 288 287 288 288 286 286 285 285 285 285 284 284 283 283 284 284 284 283 283
298 298 298 296 293 292 292 292 292 292 292 291 292 290 288 288 288 289 289 288 287 286 286 286 286 286 286 285 285 284 284 284 284 283 283 283 283 282 283 283 283 283
296 296 295 293 292 291 291 291 291 291 291 290 289 289 287 286 286 286 286 286 286 286 286 286 285 285 284 284 284 284 284 283 283 282 282 282 283 283 283 283 283 283
292 292 292 292 291 290 290 290 290 290 290 288 288 288 288 287 287 286 285 285 285 285 285 285 285 284 284 284 284 284 283 283 283 284 284 283 283 283 283 282 282 282
290 290 290 290 290 290 290 289 289 288 287 287 287 287 287 287 287 286 286 285 285 285 285 285 286 285 285 285 284 283 283 284 284 284 283 283 283 282 282 281 281 281
290 290 290 290 290 290 289 288 288 287 286 287 286 286 286 286 286 286 286 285 285 284 284 285 285 285 286 287 287 285 284 284 283 283 283 282 282 282 281 281 281 280
289 289 289 290 290 289 288 287 287 287 287 286 285 285 286 285 285 285 284 284 284 284 285 285 286 287 289 291 290 288 285 284 283 282 282 282 281 281 281 280 280 280
289 289 289 289 288 288 287 286 286 286 286 286 285 285 284 284 284 284 284 283 284 284 285 285 286 289 291 290 289 288 286 283 283 282 282 282 282 281 281 280 279 279
289 289 289 288 287 287 286 286 286 286 285 285 285 284 284 284 283 283 283 283 283 284 284 285 287 291 291 290 289 288 287 284 283 283 282 282 282 281 280 280 279 279
288 288 287 287 286 286 285 285 286 286 285 285 284 283 283 283 282 282 282 282 283 284 284 285 286 289 290 289 288 288 287 284 282 282 282 282 281 280 280 279 279 278
287 287 286 285 285 285 285 285 285 284 284 283 283 283 283 282 282 281 281 282 282 283 284 285 286 289 289 289 288 287 286 284 282 281 281 280 280 280 280 279 277 278
287 286 286 285 285 284 285 284 284 284 283 282 282 282 282 282 281 281 281 281 282 283 284 284 286 288 288 287 287 286 284 281 281 280 280 280 279 279 279 278 277 277
286 286 285 285 284 284 284 284 283 282 282 282 281 281 281 281 281 280 280 280 281 282 283 283 284 286 286 286 285 284 282 280 279 279 278 278 278 278 278 278 277 276
286 286 285 284 284 284 284 283 283 282 281 281 281 281 280 280 280 279 279 280 280 281 282 282 283 284 285 285 284 283 281 279 278 277 277 276 276 277 276 275 276 278
286 286 285 285 284 285 284 283 282 282 281 281 281 281 280 279 279 279 278 278 279 280 281 282 282 284 285 284 283 282 279 278 277 276 275 275 276 275 274 273 274 276
285 285 285 285 284 283 283 282 281 280 280 280 280 280 279 279 279 279 278 277 277 278 279 280 281 282 283 284 283 282 280 277 276 276 275 275 276 275 271 271 273 274